Darstellungsparameter: Aktuell verwendete Einstellungen:
Skalierung der Graphiken ... ?
xyx+y,   Skalierungsfaktor:      Skalierung: Modus: x, Faktor: 1
Darstellungszeitraum ... ?
Vom - - bis: - -   Zeitraum: 19.11.2019 - 17.12.2019
Min/Max/Avg-Anzeige ... ?
Zeige MMA aktuell
Zeige MMA Monat
Zeige MMA alles
Zeige --A aktuell
Zeige --A Monat
Zeige --A alles
Keine MMA-Anzeige
MMA:
Average (ber die Originaldaten)
MMA-Basis: 19.11.2019 - 17.12.2019
Quicknavigation für Darstellung... ?
Tage:      1T, 2T, 3T, 5T -1T -2T -3T -5T +1T +2T +3T +5T
Wochen: 1W, 2W, 3W -1W -2W -3W +1W +2W +3W
Monate: 1M, 3M, 6M -1M -3M -6M +1M +3M +6M
Jahre:    1J, 3J, 5J, 10J -1J -3J -5J -10J +1J +3J +5J +10J
Nutze für die Darstellung ... ?
Originaldaten oder Mittelwerte auf ...
Stundenbasis Tagesbasis Wochenbasis
Monatsbasis Jahresbasis      Datenbasis: Original-Daten
Darstellen als:
Statistik (Auto) Statistik J:M      Darstellung:
Zur Graphik,    zurück zur Übersicht aller Sensoren.
 
Tabellarische Datenbersicht: ?
 
Sensor: Nr:Datum:Temp:Feuchte:
Aussen-T/F 1 19-11-2019 00:09:17 2.9 C 36 %
2 19-11-2019 00:19:17 2.9 C 36 %
3 19-11-2019 00:29:17 3 C 36 %
4 19-11-2019 00:39:17 3 C 35 %
5 19-11-2019 00:49:18 3 C 35 %
6 19-11-2019 00:59:18 3 C 36 %
7 19-11-2019 01:09:17 3.2 C 36 %
8 19-11-2019 01:19:17 3.2 C 36 %
9 19-11-2019 01:29:17 3.2 C 36 %
10 19-11-2019 01:39:18 3.3 C 37 %
11 19-11-2019 01:49:18 3.4 C 36 %
12 19-11-2019 01:59:18 3.3 C 36 %
13 19-11-2019 02:09:18 3.3 C 36 %
14 19-11-2019 02:19:17 3.4 C 36 %
15 19-11-2019 02:29:17 3.3 C 36 %
16 19-11-2019 02:39:17 3.4 C 37 %
17 19-11-2019 02:49:17 3.3 C 37 %
18 19-11-2019 02:59:17 3.3 C 38 %
19 19-11-2019 03:09:17 3.3 C 40 %
20 19-11-2019 03:19:17 3.4 C 39 %
21 19-11-2019 03:29:17 3.4 C 39 %
22 19-11-2019 03:39:17 3.5 C 37 %
23 19-11-2019 03:49:17 3.5 C 37 %
24 19-11-2019 03:59:17 3.5 C 38 %
25 19-11-2019 04:09:17 3.6 C 37 %
Sensor: Nr:Datum:Temp:Feuchte:
Aussen-T/F 26 19-11-2019 04:19:18 3.6 C 36 %
27 19-11-2019 04:29:18 3.5 C 36 %
28 19-11-2019 04:39:17 3.5 C 37 %
29 19-11-2019 04:49:17 3.4 C 37 %
30 19-11-2019 04:59:17 3.1 C 39 %
31 19-11-2019 05:09:17 2.5 C 40 %
32 19-11-2019 05:19:18 2.3 C 41 %
33 19-11-2019 05:29:18 2 C 42 %
34 19-11-2019 05:39:17 1.6 C 43 %
35 19-11-2019 05:49:17 1.5 C 43 %
36 19-11-2019 05:59:17 1.8 C 44 %
37 19-11-2019 06:09:17 1.8 C 44 %
38 19-11-2019 06:19:17 1.7 C 43 %
39 19-11-2019 06:29:17 1.7 C 43 %
40 19-11-2019 06:39:17 1.8 C 43 %
41 19-11-2019 06:49:17 2 C 42 %
42 19-11-2019 06:59:17 2.1 C 42 %
43 19-11-2019 07:09:17 2.4 C 42 %
44 19-11-2019 07:19:17 2.2 C 42 %
45 19-11-2019 07:29:17 1.5 C 42 %
46 19-11-2019 07:39:17 1.3 C 42 %
47 19-11-2019 07:49:17 1.2 C 42 %
48 19-11-2019 07:59:17 1.8 C 43 %
49 19-11-2019 08:09:17 2.1 C 42 %
50 19-11-2019 08:19:17 2.5 C 42 %
Sensor: Nr:Datum:Temp:Feuchte:
Aussen-T/F 51 19-11-2019 08:29:17 2.8 C 42 %
52 19-11-2019 08:39:17 2.5 C 41 %
53 19-11-2019 08:49:17 2.6 C 41 %
54 19-11-2019 08:59:17 3.2 C 41 %
55 19-11-2019 09:09:17 3.3 C 40 %
56 19-11-2019 09:19:17 3.3 C 39 %
57 19-11-2019 09:29:17 3.4 C 38 %
58 19-11-2019 09:39:17 3.3 C 35 %
59 19-11-2019 09:49:17 3.2 C 35 %
60 19-11-2019 09:59:17 3.1 C 35 %
61 19-11-2019 10:09:17 3.1 C 36 %
62 19-11-2019 10:19:17 3.2 C 36 %
63 19-11-2019 10:29:17 3.3 C 37 %
64 19-11-2019 10:39:17 3.2 C 38 %
65 19-11-2019 10:49:17 3.3 C 38 %
66 19-11-2019 10:59:17 3.4 C 38 %
67 19-11-2019 11:09:17 3.5 C 38 %
68 19-11-2019 11:19:17 3.5 C 38 %
69 19-11-2019 11:29:17 4.2 C 33 %
70 19-11-2019 11:39:17 5 C 30 %
71 19-11-2019 11:49:17 5.5 C 23 %
72 19-11-2019 11:59:17 5.5 C 23 %
73 19-11-2019 12:09:17 5.5 C 23 %
74 19-11-2019 12:19:17 6.2 C 20 %
75 19-11-2019 12:29:17 6.3 C 20 %
Sensor: Nr:Datum:Temp:Feuchte:
Aussen-T/F 76 19-11-2019 12:39:17 5.5 C 20 %
77 19-11-2019 12:49:17 5.6 C 20 %
78 19-11-2019 12:59:17 5.7 C 20 %
79 19-11-2019 13:09:17 5.8 C 20 %
80 19-11-2019 13:19:17 5.7 C 20 %
81 19-11-2019 13:29:17 5.8 C 20 %
82 19-11-2019 13:39:17 5.7 C 20 %
83 19-11-2019 13:49:17 6 C 20 %
84 19-11-2019 13:59:17 6.3 C 20 %
85 19-11-2019 14:09:17 6.2 C 20 %
86 19-11-2019 14:19:17 6.2 C 20 %
87 19-11-2019 14:29:17 6 C 20 %
88 19-11-2019 14:39:17 5.9 C 20 %
89 19-11-2019 14:49:17 5.8 C 20 %
90 19-11-2019 14:59:17 5.9 C 25 %
91 19-11-2019 15:09:17 5.8 C 23 %
92 19-11-2019 15:19:18 5.6 C 28 %
93 19-11-2019 15:29:18 5.4 C 30 %
94 19-11-2019 15:39:17 5.1 C 32 %
95 19-11-2019 15:49:17 4.9 C 30 %
96 19-11-2019 15:59:17 4.8 C 32 %
97 19-11-2019 16:09:17 4.7 C 35 %
98 19-11-2019 16:19:17 4.5 C 36 %
99 19-11-2019 16:29:17 4.4 C 35 %
100 19-11-2019 16:39:17 4.4 C 35 %
Sensor: Nr:Datum:Temp:Feuchte:
Aussen-T/F 101 19-11-2019 16:49:17 3.8 C 38 %
102 19-11-2019 16:59:17 3.5 C 39 %
103 19-11-2019 17:09:17 3.3 C 40 %
104 19-11-2019 17:19:17 3.2 C 41 %
105 19-11-2019 17:29:17 2.9 C 41 %
106 19-11-2019 17:39:17 2.8 C 42 %
107 19-11-2019 17:49:17 2.7 C 42 %
108 19-11-2019 17:59:17 2.7 C 42 %
109 19-11-2019 18:09:17 2.4 C 42 %
110 19-11-2019 18:19:17 2.2 C 42 %
111 19-11-2019 18:29:17 2.3 C 42 %
112 19-11-2019 18:39:17 2.5 C 42 %
113 19-11-2019 18:49:17 2.6 C 42 %
114 19-11-2019 18:59:17 2 C 41 %
115 19-11-2019 19:09:17 1.4 C 41 %
116 19-11-2019 19:19:17 1.4 C 42 %
117 19-11-2019 19:29:17 1.5 C 42 %
118 19-11-2019 19:39:17 1.2 C 42 %
119 19-11-2019 19:49:17 1 C 42 %
120 19-11-2019 19:59:17 0.6 C 43 %
121 19-11-2019 20:09:17 0.9 C 44 %
122 19-11-2019 20:19:17 1.5 C 43 %
123 19-11-2019 20:29:17 1.8 C 43 %
124 19-11-2019 20:39:17 1.9 C 43 %
125 19-11-2019 20:49:17 1.9 C 43 %
Sensor: Nr:Datum:Temp:Feuchte:
Aussen-T/F 126 19-11-2019 20:59:17 1.9 C 43 %
127 19-11-2019 21:09:17 1.9 C 43 %
128 19-11-2019 21:19:17 1.9 C 43 %
129 19-11-2019 21:29:17 1.9 C 42 %
130 19-11-2019 21:39:17 2 C 41 %
131 19-11-2019 21:49:17 2 C 41 %
132 19-11-2019 21:59:17 1.9 C 42 %
133 19-11-2019 22:09:17 1.7 C 42 %
134 19-11-2019 22:19:17 1.5 C 41 %
135 19-11-2019 22:29:17 1.4 C 41 %
136 19-11-2019 22:39:17 1.1 C 41 %
137 19-11-2019 22:49:17 0.6 C 41 %
138 19-11-2019 22:59:17 0.6 C 42 %
139 19-11-2019 23:09:17 -0.1 C 42 %
140 19-11-2019 23:19:17 -0.2 C 42 %
141 19-11-2019 23:29:17 -0.4 C 42 %
142 19-11-2019 23:39:17 -0.5 C 42 %
143 19-11-2019 23:49:17 -0.5 C 42 %
144 19-11-2019 23:59:17 -0.6 C 42 %
145 20-11-2019 00:09:17 -0.7 C 42 %
146 20-11-2019 00:19:17 -0.6 C 42 %
147 20-11-2019 00:29:17 -0.5 C 42 %
148 20-11-2019 00:39:17 -0.7 C 42 %
149 20-11-2019 00:49:17 -0.7 C 43 %
150 20-11-2019 00:59:17 -0.8 C 42 %
Sensor: Nr:Datum:Temp:Feuchte:
Aussen-T/F 151 20-11-2019 01:09:17 -0.8 C 42 %
152 20-11-2019 01:19:17 -1.1 C 42 %
153 20-11-2019 01:29:17 -1.1 C 42 %
154 20-11-2019 01:39:17 -0.7 C 43 %
155 20-11-2019 01:49:17 -0.6 C 43 %
156 20-11-2019 01:59:17 -0.5 C 43 %
157 20-11-2019 02:09:17 -0.4 C 43 %
158 20-11-2019 02:19:17 -0.4 C 43 %
159 20-11-2019 02:29:17 -0.5 C 43 %
160 20-11-2019 02:39:17 -0.5 C 43 %
161 20-11-2019 02:49:17 -0.4 C 43 %
162 20-11-2019 02:59:17 -0.4 C 43 %
163 20-11-2019 03:09:17 -0.3 C 43 %
164 20-11-2019 03:19:17 -0.3 C 43 %
165 20-11-2019 03:29:17 -0.4 C 43 %
166 20-11-2019 03:39:17 -0.5 C 43 %
167 20-11-2019 03:49:17 -0.5 C 43 %
168 20-11-2019 03:59:17 -0.7 C 43 %
169 20-11-2019 04:09:17 -0.6 C 43 %
170 20-11-2019 04:19:17 -0.5 C 43 %
171 20-11-2019 04:29:17 -0.6 C 42 %
172 20-11-2019 04:39:17 -0.5 C 42 %
173 20-11-2019 04:49:17 -0.5 C 42 %
174 20-11-2019 04:59:17 -0.4 C 42 %
175 20-11-2019 05:09:17 -0.3 C 42 %
Sensor: Nr:Datum:Temp:Feuchte:
Aussen-T/F 176 20-11-2019 05:19:17 -0.3 C 42 %
177 20-11-2019 05:29:17 -0.3 C 42 %
178 20-11-2019 05:39:17 -0.3 C 42 %
179 20-11-2019 05:49:17 -0.3 C 42 %
180 20-11-2019 05:59:17 -0.2 C 42 %
181 20-11-2019 06:09:17 -0.1 C 42 %
182 20-11-2019 06:19:17 -0.1 C 42 %
183 20-11-2019 06:29:17 0 C 42 %
184 20-11-2019 06:39:17 0 C 42 %
185 20-11-2019 06:49:17 0 C 42 %
186 20-11-2019 06:59:17 0.2 C 42 %
187 20-11-2019 07:09:17 0.2 C 42 %
188 20-11-2019 07:19:17 0.2 C 42 %
189 20-11-2019 07:29:17 0.4 C 42 %
190 20-11-2019 07:39:18 0.3 C 42 %
191 20-11-2019 07:49:17 0.4 C 42 %
192 20-11-2019 07:59:17 0.4 C 42 %
193 20-11-2019 08:09:17 0.4 C 42 %
194 20-11-2019 08:19:17 0.5 C 42 %
195 20-11-2019 08:29:17 0.6 C 42 %
196 20-11-2019 08:39:17 0.7 C 43 %
197 20-11-2019 08:49:17 0.8 C 43 %
198 20-11-2019 08:59:17 0.9 C 43 %
199 20-11-2019 09:09:17 1.1 C 42 %
200 20-11-2019 09:19:17 1 C 42 %
Sensor: Nr:Datum:Temp:Feuchte:
Aussen-T/F 201 20-11-2019 09:29:17 1.2 C 42 %
202 20-11-2019 09:39:17 1.6 C 42 %
203 20-11-2019 09:49:17 1.7 C 42 %
204 20-11-2019 09:59:17 2 C 41 %
205 20-11-2019 10:09:17 2.1 C 41 %
206 20-11-2019 10:19:17 2.4 C 41 %
207 20-11-2019 10:29:17 2.9 C 41 %
208 20-11-2019 10:39:17 3 C 39 %
209 20-11-2019 10:49:17 2.6 C 39 %
210 20-11-2019 10:59:17 2.5 C 38 %
211 20-11-2019 11:09:17 2.6 C 38 %
212 20-11-2019 11:19:17 3.3 C 38 %
213 20-11-2019 11:29:17 3.3 C 37 %
214 20-11-2019 11:39:17 3 C 35 %
215 20-11-2019 11:49:17 3.7 C 35 %
216 20-11-2019 11:59:17 4.3 C 31 %
217 20-11-2019 12:09:17 3.9 C 30 %
218 20-11-2019 12:19:17 4.3 C 30 %
219 20-11-2019 12:29:17 4.5 C 30 %
220 20-11-2019 12:39:17 4.5 C 27 %
221 20-11-2019 12:49:17 4.6 C 26 %
222 20-11-2019 12:59:17 4.5 C 26 %
223 20-11-2019 13:09:17 4.7 C 25 %
224 20-11-2019 13:19:17 4.5 C 23 %
225 20-11-2019 13:29:17 4.4 C 23 %
Sensor: Nr:Datum:Temp:Feuchte:
Aussen-T/F 226 20-11-2019 13:39:17 4.7 C 20 %
227 20-11-2019 13:49:17 5.1 C 20 %
228 20-11-2019 13:59:17 4.8 C 20 %
229 20-11-2019 14:09:17 4.8 C 20 %
230 20-11-2019 14:19:17 4.8 C 20 %
231 20-11-2019 14:29:17 4.7 C 20 %
232 20-11-2019 14:39:17 4.7 C 20 %
233 20-11-2019 14:49:17 4.7 C 20 %
234 20-11-2019 14:59:17 4.7 C 20 %
235 20-11-2019 15:09:17 4.7 C 20 %
236 20-11-2019 15:19:17 4.7 C 20 %
237 20-11-2019 15:29:17 4.6 C 20 %
238 20-11-2019 15:39:17 4.5 C 20 %
239 20-11-2019 15:49:17 4.3 C 21 %
240 20-11-2019 15:59:17 3.4 C 26 %
241 20-11-2019 16:09:17 2.7 C 28 %
242 20-11-2019 16:19:17 2.2 C 29 %
243 20-11-2019 16:29:17 1.8 C 30 %
244 20-11-2019 16:39:17 1.8 C 30 %
245 20-11-2019 16:49:17 1.5 C 32 %
246 20-11-2019 16:59:17 1.5 C 32 %
247 20-11-2019 17:09:17 1.7 C 32 %
248 20-11-2019 17:19:17 1.8 C 34 %
249 20-11-2019 17:29:17 1.7 C 35 %
250 20-11-2019 17:39:17 0.9 C 35 %
Sensor: Nr:Datum:Temp:Feuchte:
Aussen-T/F 251 20-11-2019 17:49:17 0.5 C 38 %
252 20-11-2019 17:59:17 0.6 C 40 %
253 20-11-2019 18:09:17 0.3 C 40 %
254 20-11-2019 18:19:17 0.2 C 41 %
255 20-11-2019 18:29:17 0.1 C 40 %
256 20-11-2019 18:39:17 0 C 41 %
257 20-11-2019 18:49:17 -0.2 C 41 %
258 20-11-2019 18:59:17 -0.7 C 41 %
259 20-11-2019 19:09:17 -0.9 C 41 %
260 20-11-2019 19:19:17 -1.1 C 41 %
261 20-11-2019 19:29:17 -1.2 C 41 %
262 20-11-2019 19:39:18 -1.2 C 42 %
263 20-11-2019 19:49:18 -1.4 C 42 %
264 20-11-2019 19:59:18 -1.5 C 42 %
265 20-11-2019 20:09:18 -1.6 C 42 %
266 20-11-2019 20:19:17 -1.7 C 42 %
267 20-11-2019 20:29:17 -1.4 C 43 %
268 20-11-2019 20:39:17 -1.4 C 43 %
269 20-11-2019 20:59:17 -1.7 C 43 %
270 20-11-2019 20:59:17 -1.8 C 43 %
271 20-11-2019 21:09:17 -1.8 C 42 %
272 20-11-2019 21:19:17 -2 C 42 %
273 20-11-2019 21:29:17 -2.1 C 42 %
274 20-11-2019 21:39:17 -2.1 C 42 %
275 20-11-2019 21:49:17 -2.3 C 42 %
Sensor: Nr:Datum:Temp:Feuchte:
Aussen-T/F 276 20-11-2019 21:59:17 -2.1 C 42 %
277 20-11-2019 22:09:17 -2 C 43 %
278 20-11-2019 22:19:17 -2.1 C 42 %
279 20-11-2019 22:29:17 -2.2 C 42 %
280 20-11-2019 22:39:17 -2.1 C 42 %
281 20-11-2019 22:49:17 -1.8 C 43 %
282 20-11-2019 22:59:17 -1.7 C 43 %
283 20-11-2019 23:09:17 -1.6 C 43 %
284 20-11-2019 23:19:17 -1.4 C 43 %
285 20-11-2019 23:29:17 -1.6 C 43 %
286 20-11-2019 23:39:17 -1.3 C 43 %
287 20-11-2019 23:49:17 -1.1 C 43 %
288 20-11-2019 23:59:17 -1.1 C 43 %
289 21-11-2019 00:09:17 -1.3 C 43 %
290 21-11-2019 00:29:17 -1.8 C 42 %
291 21-11-2019 00:30:17 -1.9 C 42 %
292 21-11-2019 00:39:17 -2 C 41 %
293 21-11-2019 00:50:17 -2.1 C 41 %
294 21-11-2019 01:00:17 -2.4 C 41 %
295 21-11-2019 01:10:17 -2.4 C 41 %
296 21-11-2019 01:20:17 -2.5 C 41 %
297 21-11-2019 01:30:17 -2.3 C 41 %
298 21-11-2019 01:40:17 -2.7 C 40 %
299 21-11-2019 01:50:17 -2.6 C 41 %
300 21-11-2019 02:00:17 -2.6 C 40 %
Sensor: Nr:Datum:Temp:Feuchte:
Aussen-T/F 301 21-11-2019 02:10:17 -2.7 C 40 %
302 21-11-2019 02:20:17 -2.2 C 42 %
303 21-11-2019 02:30:17 -2.3 C 42 %
304 21-11-2019 02:40:17 -1.9 C 42 %
305 21-11-2019 02:50:17 -2.1 C 42 %
306 21-11-2019 03:00:17 -2.2 C 41 %
307 21-11-2019 03:10:17 -2.4 C 41 %
308 21-11-2019 03:20:17 -2.3 C 41 %
309 21-11-2019 03:30:17 -2.1 C 42 %
310 21-11-2019 03:40:17 -1.8 C 42 %
311 21-11-2019 03:50:17 -1.6 C 42 %
312 21-11-2019 04:00:17 -1.5 C 42 %
313 21-11-2019 04:10:17 -1.3 C 43 %
314 21-11-2019 04:20:17 -1.1 C 43 %
315 21-11-2019 04:30:17 -1 C 43 %
316 21-11-2019 04:40:17 -1 C 43 %
317 21-11-2019 04:50:17 -1 C 43 %
318 21-11-2019 05:00:17 -1 C 43 %
319 21-11-2019 05:10:17 -0.7 C 43 %
320 21-11-2019 05:20:17 -0.6 C 43 %
321 21-11-2019 05:30:17 -0.6 C 43 %
322 21-11-2019 05:40:17 -0.5 C 43 %
323 21-11-2019 05:50:17 -0.4 C 43 %
324 21-11-2019 06:00:17 -0.3 C 43 %
325 21-11-2019 06:10:17 -0.3 C 43 %
Sensor: Nr:Datum:Temp:Feuchte:
Aussen-T/F 326 21-11-2019 06:20:17 -0.3 C 43 %
327 21-11-2019 06:30:17 -0.3 C 43 %
328 21-11-2019 06:40:17 -0.3 C 43 %
329 21-11-2019 06:50:17 -0.2 C 43 %
330 21-11-2019 07:00:17 -0.2 C 43 %
331 21-11-2019 07:10:17 -0.2 C 43 %
332 21-11-2019 07:20:17 -0.1 C 43 %
333 21-11-2019 07:30:17 -0.2 C 43 %
334 21-11-2019 07:40:17 -0.2 C 43 %
335 21-11-2019 07:50:17 -0.1 C 43 %
336 21-11-2019 08:00:17 -0.1 C 43 %
337 21-11-2019 08:10:17 0 C 43 %
338 21-11-2019 08:20:17 0 C 43 %
339 21-11-2019 08:30:17 0.1 C 43 %
340 21-11-2019 08:40:17 0.2 C 43 %
341 21-11-2019 08:50:17 0.2 C 43 %
342 21-11-2019 09:00:17 0.2 C 43 %
343 21-11-2019 09:10:17 0.3 C 43 %
344 21-11-2019 09:20:17 0.4 C 43 %
345 21-11-2019 09:30:17 0.6 C 43 %
346 21-11-2019 09:40:17 0.8 C 43 %
347 21-11-2019 09:50:17 1.1 C 42 %
348 21-11-2019 10:00:17 1.1 C 41 %
349 21-11-2019 10:10:17 1.2 C 40 %
350 21-11-2019 10:20:17 1.6 C 40 %
Sensor: Nr:Datum:Temp:Feuchte:
Aussen-T/F 351 21-11-2019 10:30:17 1.5 C 39 %
352 21-11-2019 10:40:17 1.5 C 39 %
353 21-11-2019 10:50:17 1.7 C 38 %
354 21-11-2019 11:00:17 2.1 C 37 %
355 21-11-2019 11:10:17 2.2 C 37 %
356 21-11-2019 11:20:17 2.3 C 34 %
357 21-11-2019 11:30:17 2.5 C 33 %
358 21-11-2019 11:40:17 2.7 C 33 %
359 21-11-2019 11:50:17 3 C 32 %
360 21-11-2019 12:00:17 2.8 C 32 %
361 21-11-2019 12:10:17 2.5 C 33 %
362 21-11-2019 12:20:17 2.6 C 34 %
363 21-11-2019 12:30:18 2.8 C 35 %
364 21-11-2019 12:40:18 3.1 C 35 %
365 21-11-2019 12:50:18 3.3 C 34 %
366 21-11-2019 13:00:17 3.1 C 31 %
367 21-11-2019 13:10:17 3.7 C 34 %
368 21-11-2019 13:20:17 3.9 C 31 %
369 21-11-2019 13:30:17 4.1 C 32 %
370 21-11-2019 13:40:17 4 C 31 %
371 21-11-2019 13:50:17 3.9 C 32 %
372 21-11-2019 14:00:17 3.9 C 31 %
373 21-11-2019 14:10:17 3.9 C 30 %
374 21-11-2019 14:20:17 4.2 C 31 %
375 21-11-2019 14:30:17 4.4 C 31 %
Sensor: Nr:Datum:Temp:Feuchte:
Aussen-T/F 376 21-11-2019 14:40:17 4.4 C 30 %
377 21-11-2019 14:50:17 4.1 C 29 %
378 21-11-2019 15:00:17 4.1 C 30 %
379 21-11-2019 15:10:17 4.2 C 29 %
380 21-11-2019 15:20:17 4.4 C 30 %
381 21-11-2019 15:30:17 4.3 C 30 %
382 21-11-2019 15:40:17 4.2 C 29 %
383 21-11-2019 15:50:17 4.3 C 30 %
384 21-11-2019 16:00:17 4.3 C 30 %
385 21-11-2019 16:10:17 4.2 C 31 %
386 21-11-2019 16:20:17 4 C 33 %
387 21-11-2019 16:30:17 3.9 C 36 %
388 21-11-2019 16:40:17 3.7 C 37 %
389 21-11-2019 16:50:17 3.7 C 39 %
390 21-11-2019 17:00:17 3.6 C 39 %
391 21-11-2019 17:10:17 3.6 C 38 %
392 21-11-2019 17:20:17 3.5 C 39 %
393 21-11-2019 17:30:17 3.4 C 39 %
394 21-11-2019 17:40:17 3.4 C 39 %
395 21-11-2019 17:50:17 3.3 C 39 %
396 21-11-2019 18:00:17 3.3 C 39 %
397 21-11-2019 18:10:17 3.3 C 39 %
398 21-11-2019 18:20:17 3.3 C 38 %
399 21-11-2019 18:30:17 3.3 C 39 %
400 21-11-2019 18:40:17 3.4 C 39 %
Sensor: Nr:Datum:Temp:Feuchte:
Aussen-T/F 401 21-11-2019 18:50:17 3.3 C 40 %
402 21-11-2019 19:00:17 3.3 C 40 %
403 21-11-2019 19:10:17 3.2 C 40 %
404 21-11-2019 19:20:17 3 C 39 %
405 21-11-2019 19:30:17 3 C 40 %
406 21-11-2019 19:40:17 3.1 C 41 %
407 21-11-2019 19:50:17 2.9 C 41 %
408 21-11-2019 20:00:17 2.5 C 40 %
409 21-11-2019 20:10:17 2 C 40 %
410 21-11-2019 20:20:17 1.9 C 42 %
411 21-11-2019 20:30:17 2.1 C 42 %
412 21-11-2019 20:40:17 1.6 C 42 %
413 21-11-2019 20:50:17 1.5 C 42 %
414 21-11-2019 21:00:17 1.6 C 43 %
415 21-11-2019 21:10:17 1.6 C 43 %
416 21-11-2019 21:20:17 1.3 C 43 %
417 21-11-2019 21:30:17 1.3 C 43 %
418 21-11-2019 21:40:17 1.5 C 43 %
419 21-11-2019 21:50:17 1.2 C 43 %
420 21-11-2019 22:00:17 1 C 42 %
421 21-11-2019 22:10:17 0.8 C 44 %
422 21-11-2019 22:20:17 1.2 C 43 %
423 21-11-2019 22:30:17 0.9 C 44 %
424 21-11-2019 22:40:17 0.8 C 44 %
425 21-11-2019 22:50:17 1 C 43 %
Sensor: Nr:Datum:Temp:Feuchte:
Aussen-T/F 426 21-11-2019 23:00:17 1.1 C 43 %
427 21-11-2019 23:10:17 1.4 C 43 %
428 21-11-2019 23:20:17 1 C 43 %
429 21-11-2019 23:30:17 1 C 43 %
430 21-11-2019 23:40:17 1.5 C 43 %
431 21-11-2019 23:50:17 1.5 C 43 %
432 22-11-2019 00:00:17 1.3 C 43 %
433 22-11-2019 00:10:17 1.3 C 43 %
434 22-11-2019 00:20:17 1.3 C 43 %
435 22-11-2019 00:30:17 1.3 C 43 %
436 22-11-2019 00:40:17 1 C 42 %
437 22-11-2019 00:50:17 1.1 C 42 %
438 22-11-2019 01:00:17 1 C 42 %
439 22-11-2019 01:10:17 1.2 C 43 %
440 22-11-2019 01:20:17 0.9 C 43 %
441 22-11-2019 01:30:17 1 C 42 %
442 22-11-2019 01:40:17 1 C 42 %
443 22-11-2019 01:50:17 0.6 C 43 %
444 22-11-2019 02:00:17 0.4 C 43 %
445 22-11-2019 02:10:17 0 C 42 %
446 22-11-2019 02:20:17 1 C 42 %
447 22-11-2019 02:30:17 0.8 C 44 %
448 22-11-2019 02:40:17 0.7 C 43 %
449 22-11-2019 02:50:17 0.5 C 43 %
450 22-11-2019 03:00:17 0.6 C 43 %
Sensor: Nr:Datum:Temp:Feuchte:
Aussen-T/F 451 22-11-2019 03:10:17 0.8 C 44 %
452 22-11-2019 03:20:17 0.8 C 43 %
453 22-11-2019 03:30:17 0.6 C 43 %
454 22-11-2019 03:40:17 0.7 C 43 %
455 22-11-2019 03:50:17 1.1 C 42 %
456 22-11-2019 04:00:17 1.1 C 42 %
457 22-11-2019 04:10:17 1.1 C 42 %
458 22-11-2019 04:20:17 1.2 C 42 %
459 22-11-2019 04:30:17 1.3 C 42 %
460 22-11-2019 04:40:17 1.3 C 42 %
461 22-11-2019 04:50:17 1.2 C 42 %
462 22-11-2019 05:00:18 1.4 C 42 %
463 22-11-2019 05:10:18 1.6 C 42 %
464 22-11-2019 05:20:17 1.9 C 42 %
465 22-11-2019 05:30:17 2.1 C 41 %
466 22-11-2019 05:40:17 2.2 C 41 %
467 22-11-2019 05:50:17 2.6 C 41 %
468 22-11-2019 06:00:18 2.5 C 41 %
469 22-11-2019 06:10:18 2.8 C 41 %
470 22-11-2019 06:20:18 2.6 C 41 %
471 22-11-2019 06:30:18 2.7 C 41 %
472 22-11-2019 06:40:18 2.9 C 41 %
473 22-11-2019 06:50:18 3 C 41 %
474 22-11-2019 07:00:17 3 C 41 %
475 22-11-2019 07:10:17 3 C 41 %
Sensor: Nr:Datum:Temp:Feuchte:
Aussen-T/F 476 22-11-2019 07:20:17 3.1 C 41 %
477 22-11-2019 07:30:17 3.2 C 41 %
478 22-11-2019 07:40:17 3.4 C 41 %
479 22-11-2019 07:50:17 3.4 C 41 %
480 22-11-2019 08:00:17 3.4 C 41 %
481 22-11-2019 08:10:17 3.5 C 41 %
482 22-11-2019 08:20:17 3.7 C 41 %
483 22-11-2019 08:30:17 3.8 C 41 %
484 22-11-2019 08:40:17 3.7 C 41 %
485 22-11-2019 08:50:17 3.7 C 41 %
486 22-11-2019 09:00:17 3.9 C 41 %
487 22-11-2019 09:10:17 3.9 C 40 %
488 22-11-2019 09:20:17 4 C 39 %
489 22-11-2019 09:30:17 3.8 C 39 %
490 22-11-2019 09:40:17 3.7 C 39 %
491 22-11-2019 09:50:17 3.5 C 39 %
492 22-11-2019 10:00:17 3.3 C 39 %
493 22-11-2019 10:10:17 3.5 C 40 %
494 22-11-2019 10:20:17 3.5 C 39 %
495 22-11-2019 10:30:17 3.6 C 40 %
496 22-11-2019 10:40:17 4.1 C 39 %
497 22-11-2019 10:50:17 4.3 C 39 %
498 22-11-2019 11:00:17 4.2 C 38 %
499 22-11-2019 11:10:17 4.4 C 38 %
500 22-11-2019 11:20:17 4.5 C 37 %
Sensor: Nr:Datum:Temp:Feuchte:
Aussen-T/F 501 22-11-2019 11:30:17 5 C 35 %
502 22-11-2019 11:40:17 5.3 C 33 %
503 22-11-2019 11:50:17 5.3 C 32 %
504 22-11-2019 12:00:17 5.6 C 32 %
505 22-11-2019 12:10:17 5.5 C 32 %
506 22-11-2019 12:20:17 5.6 C 32 %
507 22-11-2019 12:30:17 5.6 C 32 %
508 22-11-2019 12:40:17 5.8 C 32 %
509 22-11-2019 12:50:17 5.8 C 31 %
510 22-11-2019 13:00:17 5.7 C 30 %
511 22-11-2019 13:10:17 5.9 C 31 %
512 22-11-2019 13:20:17 6 C 30 %
513 22-11-2019 13:30:17 5.7 C 29 %
514 22-11-2019 13:40:17 5.5 C 29 %
515 22-11-2019 13:50:17 5.5 C 29 %
516 22-11-2019 14:00:17 5.5 C 29 %
517 22-11-2019 14:10:17 5.7 C 29 %
518 22-11-2019 14:20:17 5.7 C 28 %
519 22-11-2019 14:30:17 5.9 C 28 %
520 22-11-2019 14:40:17 5.8 C 27 %
521 22-11-2019 14:50:17 5.8 C 28 %
522 22-11-2019 15:00:17 5.6 C 28 %
523 22-11-2019 15:10:17 5.6 C 28 %
524 22-11-2019 15:20:17 5.6 C 29 %
525 22-11-2019 15:30:17 5.5 C 28 %
Sensor: Nr:Datum:Temp:Feuchte:
Aussen-T/F 526 22-11-2019 15:40:17 5.4 C 29 %
527 22-11-2019 15:50:17 5.4 C 29 %
528 22-11-2019 16:00:17 5.3 C 29 %
529 22-11-2019 16:10:17 5.3 C 30 %
530 22-11-2019 16:20:17 5.2 C 30 %
531 22-11-2019 16:30:17 5.2 C 30 %
532 22-11-2019 16:40:17 5.1 C 31 %
533 22-11-2019 16:50:17 5 C 31 %
534 22-11-2019 17:00:17 4.9 C 32 %
535 22-11-2019 17:10:17 4.9 C 33 %
536 22-11-2019 17:20:17 4.8 C 34 %
537 22-11-2019 17:30:17 4.9 C 33 %
538 22-11-2019 17:40:17 4.9 C 32 %
539 22-11-2019 17:50:17 5 C 31 %
540 22-11-2019 18:00:17 5 C 30 %
541 22-11-2019 18:10:17 4.8 C 32 %
542 22-11-2019 18:20:17 4.7 C 34 %
543 22-11-2019 18:30:17 4.8 C 33 %
544 22-11-2019 18:40:17 4.8 C 32 %
545 22-11-2019 18:50:17 4.8 C 32 %
546 22-11-2019 19:00:17 4.8 C 31 %
547 22-11-2019 19:10:17 4.7 C 32 %
548 22-11-2019 19:20:17 4.8 C 30 %
549 22-11-2019 19:30:17 4.8 C 30 %
550 22-11-2019 19:40:17 4.8 C 30 %
Sensor: Nr:Datum:Temp:Feuchte:
Aussen-T/F 551 22-11-2019 19:50:17 4.7 C 31 %
552 22-11-2019 20:00:17 4.6 C 31 %
553 22-11-2019 20:10:17 4.6 C 30 %
554 22-11-2019 20:20:17 4.6 C 30 %
555 22-11-2019 20:30:17 4.5 C 30 %
556 22-11-2019 20:40:17 4.5 C 30 %
557 22-11-2019 20:50:17 4.3 C 30 %
558 22-11-2019 21:00:17 4.3 C 30 %
559 22-11-2019 21:10:17 4.4 C 31 %
560 22-11-2019 21:20:17 4.3 C 31 %
561 22-11-2019 21:30:17 4.3 C 31 %
562 22-11-2019 21:40:17 4.3 C 31 %
563 22-11-2019 21:50:17 4.3 C 30 %
564 22-11-2019 22:00:17 4.2 C 31 %
565 22-11-2019 22:10:17 4.2 C 31 %
566 22-11-2019 22:20:17 4.2 C 30 %
567 22-11-2019 22:30:17 4.2 C 30 %
568 22-11-2019 22:40:17 4.2 C 29 %
569 22-11-2019 22:50:17 4.1 C 30 %
570 22-11-2019 23:00:17 4 C 30 %
571 22-11-2019 23:10:17 4.1 C 28 %
572 22-11-2019 23:20:17 4 C 30 %
573 22-11-2019 23:30:17 4 C 30 %
574 22-11-2019 23:40:17 4 C 30 %
575 22-11-2019 23:50:17 3.9 C 31 %
Sensor: Nr:Datum:Temp:Feuchte:
Aussen-T/F 576 23-11-2019 00:00:17 4 C 29 %
577 23-11-2019 00:10:17 4 C 29 %
578 23-11-2019 00:20:17 4 C 29 %
579 23-11-2019 00:30:17 4 C 29 %
580 23-11-2019 00:40:17 4 C 28 %
581 23-11-2019 00:50:17 4 C 29 %
582 23-11-2019 01:00:17 4.1 C 28 %
583 23-11-2019 01:10:17 4.2 C 27 %
584 23-11-2019 01:20:17 4.1 C 29 %
585 23-11-2019 01:30:17 4 C 30 %
586 23-11-2019 01:40:17 4.1 C 29 %
587 23-11-2019 01:50:17 4 C 29 %
588 23-11-2019 02:00:17 4.1 C 27 %
589 23-11-2019 02:10:17 4.1 C 27 %
590 23-11-2019 02:20:17 4 C 30 %
591 23-11-2019 02:30:18 3.8 C 32 %
592 23-11-2019 02:40:18 3.7 C 32 %
593 23-11-2019 02:50:17 3.6 C 32 %
594 23-11-2019 03:00:17 3.6 C 33 %
595 23-11-2019 03:10:17 3.7 C 32 %
596 23-11-2019 03:20:17 3.8 C 31 %
597 23-11-2019 03:30:17 3.7 C 32 %
598 23-11-2019 03:40:17 3.5 C 33 %
599 23-11-2019 03:50:17 3.2 C 34 %
600 23-11-2019 04:00:17 3.2 C 35 %
Sensor: Nr:Datum:Temp:Feuchte:
Aussen-T/F 601 23-11-2019 04:10:17 3.1 C 38 %
602 23-11-2019 04:20:17 3.3 C 36 %
603 23-11-2019 04:30:17 3 C 36 %
604 23-11-2019 04:40:17 3 C 37 %
605 23-11-2019 04:50:17 3 C 37 %
606 23-11-2019 05:00:17 3 C 38 %
607 23-11-2019 05:10:17 3 C 39 %
608 23-11-2019 05:20:17 2.7 C 39 %
609 23-11-2019 05:30:17 2.9 C 40 %
610 23-11-2019 05:40:17 2.8 C 40 %
611 23-11-2019 05:50:17 2.9 C 40 %
612 23-11-2019 06:00:17 3 C 39 %
613 23-11-2019 06:10:17 3 C 39 %
614 23-11-2019 06:20:17 3 C 39 %
615 23-11-2019 06:30:17 3 C 40 %
616 23-11-2019 06:40:17 3.1 C 40 %
617 23-11-2019 06:50:17 3 C 40 %
618 23-11-2019 07:00:17 3.2 C 40 %
619 23-11-2019 07:10:17 3.2 C 39 %
620 23-11-2019 07:20:17 3.3 C 40 %
621 23-11-2019 07:30:17 3.2 C 39 %
622 23-11-2019 07:40:17 3.3 C 40 %
623 23-11-2019 07:50:17 3.2 C 40 %
624 23-11-2019 08:00:17 3.3 C 39 %
625 23-11-2019 08:10:17 3.3 C 40 %
Sensor: Nr:Datum:Temp:Feuchte:
Aussen-T/F 626 23-11-2019 08:20:17 3.2 C 40 %
627 23-11-2019 08:30:17 3.3 C 40 %
628 23-11-2019 08:40:17 3.4 C 40 %
629 23-11-2019 08:50:17 3.8 C 37 %
630 23-11-2019 09:00:17 4.2 C 33 %
631 23-11-2019 09:10:17 4.3 C 33 %
632 23-11-2019 09:20:17 4.5 C 33 %
633 23-11-2019 09:30:17 4.9 C 31 %
634 23-11-2019 09:40:17 5.1 C 31 %
635 23-11-2019 09:50:17 5.4 C 27 %
636 23-11-2019 10:00:17 5.4 C 26 %
637 23-11-2019 10:10:17 5.7 C 26 %
638 23-11-2019 10:20:17 6 C 26 %
639 23-11-2019 10:30:17 6 C 25 %
640 23-11-2019 10:40:17 6.1 C 26 %
641 23-11-2019 10:50:17 6.2 C 25 %
642 23-11-2019 11:00:17 6.4 C 25 %
643 23-11-2019 11:10:17 6.6 C 25 %
644 23-11-2019 11:20:17 6.7 C 25 %
645 23-11-2019 11:30:17 7.1 C 21 %
646 23-11-2019 11:40:17 7.1 C 23 %
647 23-11-2019 11:50:17 7 C 25 %
648 23-11-2019 12:00:17 6.4 C 28 %
649 23-11-2019 12:10:17 6.4 C 28 %
650 23-11-2019 12:20:17 6.5 C 27 %
Sensor: Nr:Datum:Temp:Feuchte:
Aussen-T/F 651 23-11-2019 12:30:17 6.5 C 28 %
652 23-11-2019 12:40:17 6.5 C 29 %
653 23-11-2019 12:50:17 7.3 C 25 %
654 23-11-2019 13:00:17 7.3 C 25 %
655 23-11-2019 13:10:17 6.7 C 28 %
656 23-11-2019 13:20:17 6.8 C 29 %
657 23-11-2019 13:30:17 6.6 C 29 %
658 23-11-2019 13:40:17 6.6 C 30 %
659 23-11-2019 13:50:17 6.6 C 30 %
660 23-11-2019 14:00:17 6.6 C 30 %
661 23-11-2019 14:10:17 6.8 C 30 %
662 23-11-2019 14:20:17 7 C 29 %
663 23-11-2019 14:30:17 7.2 C 27 %
664 23-11-2019 14:40:17 7.1 C 28 %
665 23-11-2019 14:50:17 7.2 C 28 %
666 23-11-2019 15:00:17 7.7 C 26 %
667 23-11-2019 15:10:17 8.1 C 26 %
668 23-11-2019 15:20:17 8.4 C 23 %
669 23-11-2019 15:30:17 8.4 C 25 %
670 23-11-2019 15:40:17 8.1 C 25 %
671 23-11-2019 15:50:17 7.5 C 26 %
672 23-11-2019 16:00:17 7.5 C 26 %
673 23-11-2019 16:10:17 7.3 C 25 %
674 23-11-2019 16:20:17 7.3 C 25 %
675 23-11-2019 16:30:17 6.5 C 28 %
Sensor: Nr:Datum:Temp:Feuchte:
Aussen-T/F 676 23-11-2019 16:40:17 5.9 C 31 %
677 23-11-2019 16:50:17 5.7 C 32 %
678 23-11-2019 17:00:17 5.7 C 32 %
679 23-11-2019 17:10:17 5.8 C 31 %
680 23-11-2019 17:20:17 5.6 C 32 %
681 23-11-2019 17:30:17 5.5 C 33 %
682 23-11-2019 17:40:17 5.3 C 32 %
683 23-11-2019 17:50:17 5.3 C 33 %
684 23-11-2019 18:00:17 5.3 C 33 %
685 23-11-2019 18:10:17 5 C 34 %
686 23-11-2019 18:20:17 5.3 C 34 %
687 23-11-2019 18:30:17 5.3 C 34 %
688 23-11-2019 18:40:17 5.3 C 34 %
689 23-11-2019 18:50:17 4.9 C 36 %
690 23-11-2019 19:00:17 5.1 C 35 %
691 23-11-2019 19:10:17 5 C 36 %
692 23-11-2019 19:20:17 5 C 36 %
693 23-11-2019 19:30:17 5 C 36 %
694 23-11-2019 19:40:17 4.7 C 36 %
695 23-11-2019 19:50:17 4.7 C 38 %
696 23-11-2019 20:00:17 4.5 C 40 %
697 23-11-2019 20:10:17 4.2 C 39 %
698 23-11-2019 20:20:17 4.1 C 40 %
699 23-11-2019 20:30:17 3.6 C 40 %
700 23-11-2019 20:40:18 3.6 C 40 %
Sensor: Nr:Datum:Temp:Feuchte:
Aussen-T/F 701 23-11-2019 20:50:17 3.6 C 42 %
702 23-11-2019 21:00:17 3.6 C 42 %
703 23-11-2019 21:10:17 3.5 C 42 %
704 23-11-2019 21:20:17 3.3 C 41 %
705 23-11-2019 21:30:17 3.2 C 41 %
706 23-11-2019 21:40:17 3.2 C 42 %
707 23-11-2019 21:50:17 3.2 C 42 %
708 23-11-2019 22:00:17 3.1 C 42 %
709 23-11-2019 22:10:17 2.8 C 42 %
710 23-11-2019 22:20:17 2.6 C 42 %
711 23-11-2019 22:30:17 2.7 C 42 %
712 23-11-2019 22:40:17 2.6 C 42 %
713 23-11-2019 22:50:17 2.6 C 42 %
714 23-11-2019 23:00:17 2.5 C 42 %
715 23-11-2019 23:10:17 2.2 C 42 %
716 23-11-2019 23:20:17 2.2 C 42 %
717 23-11-2019 23:30:17 2 C 42 %
718 23-11-2019 23:40:17 2.1 C 42 %
719 23-11-2019 23:50:17 2.1 C 42 %
720 24-11-2019 00:00:17 1.9 C 43 %
721 24-11-2019 00:10:17 1.7 C 43 %
722 24-11-2019 00:20:17 1.7 C 43 %
723 24-11-2019 00:30:17 1.6 C 43 %
724 24-11-2019 00:40:17 1.4 C 42 %
725 24-11-2019 00:50:18 1.1 C 42 %
Sensor: Nr:Datum:Temp:Feuchte:
Aussen-T/F 726 24-11-2019 01:00:18 1.2 C 43 %
727 24-11-2019 01:10:18 1.4 C 43 %
728 24-11-2019 01:20:17 1.3 C 43 %
729 24-11-2019 01:30:17 1.2 C 42 %
730 24-11-2019 01:40:17 1.2 C 43 %
731 24-11-2019 01:50:17 1.1 C 43 %
732 24-11-2019 02:00:17 1.1 C 43 %
733 24-11-2019 02:10:17 1.1 C 43 %
734 24-11-2019 02:20:17 1.2 C 43 %
735 24-11-2019 02:30:17 1 C 42 %
736 24-11-2019 02:40:17 1.1 C 42 %
737 24-11-2019 02:50:17 1.1 C 42 %
738 24-11-2019 03:00:17 0.9 C 44 %
739 24-11-2019 03:10:17 1.1 C 43 %
740 24-11-2019 03:20:17 1.2 C 42 %
741 24-11-2019 03:30:17 1 C 42 %
742 24-11-2019 03:40:17 0.7 C 43 %
743 24-11-2019 03:50:17 0.6 C 43 %
744 24-11-2019 04:00:17 0.5 C 43 %
745 24-11-2019 04:10:17 0.5 C 43 %
746 24-11-2019 04:20:17 0.6 C 43 %
747 24-11-2019 04:30:17 0.5 C 43 %
748 24-11-2019 04:40:17 0.5 C 43 %
749 24-11-2019 04:50:17 0.6 C 44 %
750 24-11-2019 05:00:17 0.6 C 44 %
Sensor: Nr:Datum:Temp:Feuchte:
Aussen-T/F 751 24-11-2019 05:10:17 0.8 C 44 %
752 24-11-2019 05:20:17 1 C 42 %
753 24-11-2019 05:30:17 1.1 C 42 %
754 24-11-2019 05:40:17 1 C 42 %
755 24-11-2019 05:50:17 0.6 C 43 %
756 24-11-2019 06:00:18 0.4 C 43 %
757 24-11-2019 06:10:18 0.5 C 43 %
758 24-11-2019 06:20:17 0.5 C 43 %
759 24-11-2019 06:30:17 0.5 C 43 %
760 24-11-2019 06:40:17 0.5 C 43 %
761 24-11-2019 06:50:17 0.3 C 43 %
762 24-11-2019 07:00:18 0.4 C 43 %
763 24-11-2019 07:10:18 0.1 C 43 %
764 24-11-2019 07:20:18 0.1 C 43 %
765 24-11-2019 07:30:17 0.1 C 43 %
766 24-11-2019 07:40:17 -0.3 C 43 %
767 24-11-2019 07:50:18 -0.3 C 43 %
768 24-11-2019 08:00:18 -0.1 C 43 %
769 24-11-2019 08:10:18 0.1 C 43 %
770 24-11-2019 08:20:17 -0.1 C 43 %
771 24-11-2019 08:30:17 0.3 C 43 %
772 24-11-2019 08:40:17 0.5 C 43 %
773 24-11-2019 08:50:17 0.5 C 43 %
774 24-11-2019 09:00:17 0.6 C 43 %
775 24-11-2019 09:10:17 0.7 C 43 %
Sensor: Nr:Datum:Temp:Feuchte:
Aussen-T/F 776 24-11-2019 09:20:17 0.8 C 43 %
777 24-11-2019 09:30:17 0.8 C 43 %
778 24-11-2019 09:40:17 1 C 42 %
779 24-11-2019 09:50:17 1.1 C 42 %
780 24-11-2019 10:00:17 1.2 C 42 %
781 24-11-2019 10:10:17 1.5 C 42 %
782 24-11-2019 10:20:17 1.7 C 42 %
783 24-11-2019 10:30:17 2 C 42 %
784 24-11-2019 10:40:17 2.2 C 41 %
785 24-11-2019 10:50:17 2.7 C 42 %
786 24-11-2019 11:00:17 2.5 C 41 %
787 24-11-2019 11:10:17 2.1 C 40 %
788 24-11-2019 11:20:17 2.2 C 40 %
789 24-11-2019 11:30:17 2.2 C 40 %
790 24-11-2019 11:40:17 2.3 C 40 %
791 24-11-2019 11:50:17 2.5 C 40 %
792 24-11-2019 12:00:17 2.7 C 41 %
793 24-11-2019 12:10:17 3 C 40 %
794 24-11-2019 12:20:17 3.4 C 40 %
795 24-11-2019 12:30:17 3.8 C 40 %
796 24-11-2019 12:40:17 4 C 38 %
797 24-11-2019 12:50:17 4.2 C 38 %
798 24-11-2019 13:00:17 4.6 C 38 %
799 24-11-2019 13:10:17 5.1 C 35 %
800 24-11-2019 13:20:17 5 C 35 %
Sensor: Nr:Datum:Temp:Feuchte:
Aussen-T/F 801 24-11-2019 13:30:17 5 C 35 %
802 24-11-2019 13:40:17 4.7 C 35 %
803 24-11-2019 13:50:17 4.8 C 35 %
804 24-11-2019 14:00:17 5.1 C 35 %
805 24-11-2019 14:10:17 5.1 C 35 %
806 24-11-2019 14:20:17 5 C 35 %
807 24-11-2019 14:30:17 4.8 C 37 %
808 24-11-2019 14:40:17 4.6 C 37 %
809 24-11-2019 14:50:17 4.6 C 39 %
810 24-11-2019 15:00:17 4.5 C 38 %
811 24-11-2019 15:10:17 4.7 C 40 %
812 24-11-2019 15:20:17 4.9 C 39 %
813 24-11-2019 15:30:17 4.8 C 38 %
814 24-11-2019 15:40:17 4.7 C 38 %
815 24-11-2019 15:50:17 4.6 C 38 %
816 24-11-2019 16:00:17 4.5 C 40 %
817 24-11-2019 16:10:17 4.2 C 39 %
818 24-11-2019 16:20:17 3.9 C 40 %
819 24-11-2019 16:30:17 3.7 C 41 %
820 24-11-2019 16:40:17 3.5 C 41 %
821 24-11-2019 16:50:17 3.2 C 41 %
822 24-11-2019 17:00:17 3 C 41 %
823 24-11-2019 17:10:17 2.8 C 42 %
824 24-11-2019 17:20:17 2.7 C 42 %
825 24-11-2019 17:30:17 2.6 C 42 %
Sensor: Nr:Datum:Temp:Feuchte:
Aussen-T/F 826 24-11-2019 17:40:17 2.4 C 42 %
827 24-11-2019 17:50:17 2.6 C 43 %
828 24-11-2019 18:00:17 2.5 C 42 %
829 24-11-2019 18:10:17 2.8 C 43 %
830 24-11-2019 18:20:17 2.6 C 42 %
831 24-11-2019 18:30:17 2.9 C 43 %
832 24-11-2019 18:40:17 2.6 C 42 %
833 24-11-2019 18:50:17 2.7 C 42 %
834 24-11-2019 19:00:17 2.5 C 42 %
835 24-11-2019 19:10:17 2.6 C 42 %
836 24-11-2019 19:20:17 2.6 C 42 %
837 24-11-2019 19:30:17 2.8 C 42 %
838 24-11-2019 19:40:17 2.7 C 42 %
839 24-11-2019 19:50:17 2.7 C 42 %
840 24-11-2019 20:00:17 2.5 C 42 %
841 24-11-2019 20:10:17 2.4 C 42 %
842 24-11-2019 20:20:17 2.1 C 41 %
843 24-11-2019 20:30:17 2 C 41 %
844 24-11-2019 20:40:17 2 C 41 %
845 24-11-2019 20:50:17 2 C 42 %
846 24-11-2019 21:00:17 1.8 C 42 %
847 24-11-2019 21:10:17 2.2 C 42 %
848 24-11-2019 21:20:17 2 C 42 %
849 24-11-2019 21:30:17 2 C 42 %
850 24-11-2019 21:40:17 1.8 C 43 %
Sensor: Nr:Datum:Temp:Feuchte:
Aussen-T/F 851 24-11-2019 21:50:17 1.8 C 43 %
852 24-11-2019 22:00:17 1.7 C 42 %
853 24-11-2019 22:10:17 1.3 C 42 %
854 24-11-2019 22:20:17 1.2 C 42 %
855 24-11-2019 22:30:17 1.2 C 42 %
856 24-11-2019 22:40:17 1 C 42 %
857 24-11-2019 22:50:17 1 C 42 %
858 24-11-2019 23:00:17 1.2 C 42 %
859 24-11-2019 23:10:17 1 C 42 %
860 24-11-2019 23:20:17 1 C 42 %
861 24-11-2019 23:30:17 0.8 C 43 %
862 24-11-2019 23:40:17 0.8 C 43 %
863 24-11-2019 23:50:17 0.9 C 43 %
864 25-11-2019 00:00:18 0.8 C 43 %
865 25-11-2019 00:10:18 0.9 C 43 %
866 25-11-2019 00:20:17 1.2 C 42 %
867 25-11-2019 00:30:17 1.4 C 42 %
868 25-11-2019 00:40:17 1.5 C 42 %
869 25-11-2019 00:50:18 1.5 C 42 %
870 25-11-2019 01:00:18 1.5 C 42 %
871 25-11-2019 01:10:18 1.5 C 42 %
872 25-11-2019 01:20:17 1.6 C 42 %
873 25-11-2019 01:30:17 1.5 C 42 %
874 25-11-2019 01:40:17 1.4 C 42 %
875 25-11-2019 01:50:17 1.3 C 42 %
Sensor: Nr:Datum:Temp:Feuchte:
Aussen-T/F 876 25-11-2019 02:00:17 1.3 C 42 %
877 25-11-2019 02:10:17 1.3 C 42 %
878 25-11-2019 02:20:17 1.2 C 42 %
879 25-11-2019 02:30:17 1.3 C 42 %
880 25-11-2019 02:40:17 1.4 C 42 %
881 25-11-2019 02:50:17 1.5 C 42 %
882 25-11-2019 03:00:17 1.6 C 42 %
883 25-11-2019 03:10:17 1.5 C 42 %
884 25-11-2019 03:20:17 1.5 C 42 %
885 25-11-2019 03:30:17 1.5 C 42 %
886 25-11-2019 03:40:17 1.6 C 42 %
887 25-11-2019 03:50:17 1.7 C 42 %
888 25-11-2019 04:00:17 1.8 C 42 %
889 25-11-2019 04:10:17 1.8 C 42 %
890 25-11-2019 04:20:17 1.9 C 42 %
891 25-11-2019 04:30:17 2 C 41 %
892 25-11-2019 04:40:17 2.1 C 41 %
893 25-11-2019 04:50:17 2.1 C 41 %
894 25-11-2019 05:00:17 2.2 C 41 %
895 25-11-2019 05:10:17 2.1 C 41 %
896 25-11-2019 05:20:17 2.2 C 41 %
897 25-11-2019 05:30:17 2.4 C 41 %
898 25-11-2019 05:40:17 2.4 C 41 %
899 25-11-2019 05:50:17 2.5 C 41 %
900 25-11-2019 06:00:17 2.5 C 41 %
Sensor: Nr:Datum:Temp:Feuchte:
Aussen-T/F 901 25-11-2019 06:10:17 2.5 C 41 %
902 25-11-2019 06:20:17 2.5 C 41 %
903 25-11-2019 06:30:17 2.6 C 41 %
904 25-11-2019 06:40:17 2.6 C 41 %
905 25-11-2019 06:50:17 2.8 C 41 %
906 25-11-2019 07:00:17 2.8 C 41 %
907 25-11-2019 07:10:17 2.8 C 41 %
908 25-11-2019 07:20:17 2.8 C 41 %
909 25-11-2019 07:30:17 2.8 C 41 %
910 25-11-2019 07:40:17 2.8 C 41 %
911 25-11-2019 07:50:17 2.8 C 41 %
912 25-11-2019 08:00:17 2.9 C 41 %
913 25-11-2019 08:10:17 3 C 41 %
914 25-11-2019 08:20:17 3.1 C 41 %
915 25-11-2019 08:30:18 3.2 C 41 %
916 25-11-2019 08:40:18 3.3 C 42 %
917 25-11-2019 08:50:17 3.4 C 42 %
918 25-11-2019 09:00:17 3.6 C 43 %
919 25-11-2019 09:10:17 3.6 C 43 %
920 25-11-2019 09:20:17 3.7 C 43 %
921 25-11-2019 09:30:17 3.6 C 43 %
922 25-11-2019 09:40:17 3.8 C 43 %
923 25-11-2019 09:50:17 3.8 C 42 %
924 25-11-2019 10:00:17 4.1 C 42 %
925 25-11-2019 10:10:17 4.5 C 43 %
Sensor: Nr:Datum:Temp:Feuchte:
Aussen-T/F 926 25-11-2019 10:20:17 4.5 C 43 %
927 25-11-2019 10:30:17 5.1 C 40 %
928 25-11-2019 10:40:17 5.1 C 38 %
929 25-11-2019 10:50:17 5.1 C 37 %
930 25-11-2019 11:00:17 5.1 C 37 %
931 25-11-2019 11:10:17 5.2 C 37 %
932 25-11-2019 11:20:17 5.3 C 37 %
933 25-11-2019 11:30:17 5.4 C 37 %
934 25-11-2019 11:40:17 5.8 C 37 %
935 25-11-2019 11:50:17 6.3 C 36 %
936 25-11-2019 12:00:17 6.1 C 33 %
937 25-11-2019 12:10:17 6.4 C 33 %
938 25-11-2019 12:20:17 6.3 C 33 %
939 25-11-2019 12:30:17 6.3 C 32 %
940 25-11-2019 12:40:17 6.6 C 32 %
941 25-11-2019 12:50:17 6.6 C 32 %
942 25-11-2019 13:00:17 6.7 C 31 %
943 25-11-2019 13:10:17 6.8 C 33 %
944 25-11-2019 13:20:17 7 C 32 %
945 25-11-2019 13:30:17 7 C 32 %
946 25-11-2019 13:40:17 7 C 33 %
947 25-11-2019 13:50:17 6.9 C 32 %
948 25-11-2019 14:00:17 6.9 C 33 %
949 25-11-2019 14:10:17 6.8 C 31 %
950 25-11-2019 14:20:17 6.8 C 35 %
Sensor: Nr:Datum:Temp:Feuchte:
Aussen-T/F 951 25-11-2019 14:30:17 6.8 C 36 %
952 25-11-2019 14:40:17 6.9 C 36 %
953 25-11-2019 14:50:17 6.8 C 35 %
954 25-11-2019 15:00:17 6.7 C 35 %
955 25-11-2019 15:10:17 6.7 C 35 %
956 25-11-2019 15:20:17 6.7 C 34 %
957 25-11-2019 15:30:17 6.7 C 35 %
958 25-11-2019 15:40:17 6.6 C 33 %
959 25-11-2019 15:50:17 6.5 C 34 %
960 25-11-2019 16:00:17 6.5 C 35 %
961 25-11-2019 16:10:17 6.4 C 36 %
962 25-11-2019 16:20:17 6.3 C 36 %
963 25-11-2019 16:30:17 6.2 C 37 %
964 25-11-2019 16:40:17 6.1 C 38 %
965 25-11-2019 16:50:17 6.1 C 38 %
966 25-11-2019 17:00:17 6 C 38 %
967 25-11-2019 17:10:17 6 C 38 %
968 25-11-2019 17:20:17 5.9 C 38 %
969 25-11-2019 17:30:17 5.9 C 39 %
970 25-11-2019 17:40:17 5.8 C 39 %
971 25-11-2019 17:50:17 5.9 C 39 %
972 25-11-2019 18:00:18 5.9 C 39 %
973 25-11-2019 18:10:18 5.9 C 40 %
974 25-11-2019 18:20:17 5.9 C 39 %
975 25-11-2019 18:30:17 5.9 C 40 %
Sensor: Nr:Datum:Temp:Feuchte:
Aussen-T/F 976 25-11-2019 18:40:17 5.9 C 40 %
977 25-11-2019 18:50:17 5.8 C 40 %
978 25-11-2019 19:00:17 5.8 C 39 %
979 25-11-2019 19:10:17 5.4 C 38 %
980 25-11-2019 19:20:17 5 C 38 %
981 25-11-2019 19:30:17 5.1 C 40 %
982 25-11-2019 19:40:17 5 C 40 %
983 25-11-2019 19:50:17 5.2 C 40 %
984 25-11-2019 20:00:17 5.1 C 41 %
985 25-11-2019 20:10:17 5.3 C 41 %
986 25-11-2019 20:20:17 5.4 C 41 %
987 25-11-2019 20:30:17 5.4 C 41 %
988 25-11-2019 20:40:17 5.2 C 40 %
989 25-11-2019 20:50:17 5.1 C 40 %
990 25-11-2019 21:00:17 5.3 C 40 %
991 25-11-2019 21:10:17 5.1 C 39 %
992 25-11-2019 21:20:17 5.1 C 39 %
993 25-11-2019 21:30:17 5.2 C 40 %
994 25-11-2019 21:40:17 5 C 40 %
995 25-11-2019 21:50:17 4.7 C 40 %
996 25-11-2019 22:00:17 4.7 C 40 %
997 25-11-2019 22:10:17 4.3 C 40 %
998 25-11-2019 22:20:17 4.1 C 40 %
999 25-11-2019 22:30:17 3.9 C 41 %
1000 25-11-2019 22:40:17 4.1 C 41 %
Sensor: Nr:Datum:Temp:Feuchte:
Aussen-T/F 1001 25-11-2019 22:50:17 3.8 C 42 %
1002 25-11-2019 23:00:17 3.5 C 42 %
1003 25-11-2019 23:10:17 3.3 C 42 %
1004 25-11-2019 23:20:17 3.1 C 42 %
1005 25-11-2019 23:30:17 2.7 C 42 %
1006 25-11-2019 23:40:17 3 C 42 %
1007 25-11-2019 23:50:17 2.8 C 43 %
1008 26-11-2019 00:00:17 2.3 C 42 %
1009 26-11-2019 00:10:17 2.3 C 42 %
1010 26-11-2019 00:20:17 2.5 C 42 %
1011 26-11-2019 00:30:17 2.4 C 42 %
1012 26-11-2019 00:40:17 2.5 C 43 %
1013 26-11-2019 00:50:17 3.1 C 42 %
1014 26-11-2019 01:00:17 3.3 C 42 %
1015 26-11-2019 01:10:17 3.4 C 42 %
1016 26-11-2019 01:20:17 3.4 C 42 %
1017 26-11-2019 01:30:17 3.4 C 42 %
1018 26-11-2019 01:40:17 3.5 C 42 %
1019 26-11-2019 01:50:17 3.6 C 42 %
1020 26-11-2019 02:00:17 3.8 C 42 %
1021 26-11-2019 02:10:17 3.8 C 42 %
1022 26-11-2019 02:20:17 3.8 C 41 %
1023 26-11-2019 02:30:17 3.8 C 41 %
1024 26-11-2019 02:40:17 3.9 C 41 %
1025 26-11-2019 02:50:17 4.3 C 41 %
Sensor: Nr:Datum:Temp:Feuchte:
Aussen-T/F 1026 26-11-2019 03:00:17 4.5 C 41 %
1027 26-11-2019 03:10:17 4.5 C 41 %
1028 26-11-2019 03:20:17 4.5 C 41 %
1029 26-11-2019 03:30:17 4.1 C 40 %
1030 26-11-2019 03:40:17 4.4 C 40 %
1031 26-11-2019 03:50:17 4.6 C 41 %
1032 26-11-2019 04:00:17 4.8 C 41 %
1033 26-11-2019 04:10:17 5.1 C 40 %
1034 26-11-2019 04:20:17 5.2 C 40 %
1035 26-11-2019 04:30:18 5.2 C 40 %
1036 26-11-2019 04:40:18 5.4 C 40 %
1037 26-11-2019 04:50:17 5.6 C 40 %
1038 26-11-2019 05:00:18 5.7 C 40 %
1039 26-11-2019 05:10:18 5.7 C 40 %
1040 26-11-2019 05:20:17 5.8 C 40 %
1041 26-11-2019 05:30:17 5.8 C 40 %
1042 26-11-2019 05:40:17 5.8 C 40 %
1043 26-11-2019 05:50:17 5.9 C 40 %
1044 26-11-2019 06:00:17 5.9 C 40 %
1045 26-11-2019 06:10:17 5.9 C 40 %
1046 26-11-2019 06:20:17 6 C 39 %
1047 26-11-2019 06:30:17 6.2 C 40 %
1048 26-11-2019 06:40:17 6.2 C 39 %
1049 26-11-2019 06:50:17 6.2 C 39 %
1050 26-11-2019 07:00:17 6.5 C 40 %
Sensor: Nr:Datum:Temp:Feuchte:
Aussen-T/F 1051 26-11-2019 07:10:17 6.5 C 40 %
1052 26-11-2019 07:20:17 6.6 C 39 %
1053 26-11-2019 07:30:17 6.6 C 39 %
1054 26-11-2019 07:40:17 6.6 C 39 %
1055 26-11-2019 07:50:17 6.7 C 39 %
1056 26-11-2019 08:00:17 6.8 C 39 %
1057 26-11-2019 08:10:17 6.9 C 39 %
1058 26-11-2019 08:20:17 6.8 C 38 %
1059 26-11-2019 08:30:17 6.8 C 38 %
1060 26-11-2019 08:40:17 6.7 C 38 %
1061 26-11-2019 08:50:17 6.8 C 38 %
1062 26-11-2019 09:00:17 7 C 37 %
1063 26-11-2019 09:10:17 7.4 C 38 %
1064 26-11-2019 09:20:17 7.6 C 37 %
1065 26-11-2019 09:30:17 7.9 C 36 %
1066 26-11-2019 09:40:17 8.3 C 33 %
1067 26-11-2019 09:50:17 8.5 C 31 %
1068 26-11-2019 10:00:17 8.8 C 32 %
1069 26-11-2019 10:10:17 9.1 C 32 %
1070 26-11-2019 10:20:17 9.4 C 32 %
1071 26-11-2019 10:30:17 9.6 C 32 %
1072 26-11-2019 10:40:17 9.7 C 31 %
1073 26-11-2019 10:50:17 9.9 C 31 %
1074 26-11-2019 11:00:17 10.3 C 29 %
1075 26-11-2019 11:10:17 10.5 C 29 %
Sensor: Nr:Datum:Temp:Feuchte:
Aussen-T/F 1076 26-11-2019 11:20:17 10.6 C 26 %
1077 26-11-2019 11:30:17 10.7 C 26 %
1078 26-11-2019 11:40:17 10.6 C 26 %
1079 26-11-2019 11:50:17 10.5 C 26 %
1080 26-11-2019 12:00:17 10.6 C 27 %
1081 26-11-2019 12:10:17 10.6 C 28 %
1082 26-11-2019 12:20:17 10.4 C 26 %
1083 26-11-2019 12:30:17 10.4 C 27 %
1084 26-11-2019 12:40:17 10.8 C 27 %
1085 26-11-2019 12:50:17 10.7 C 26 %
1086 26-11-2019 13:00:17 10.8 C 27 %
1087 26-11-2019 13:10:17 10.8 C 27 %
1088 26-11-2019 13:20:17 11 C 26 %
1089 26-11-2019 13:30:17 10.8 C 26 %
1090 26-11-2019 13:40:17 10.6 C 26 %
1091 26-11-2019 13:50:17 10.5 C 27 %
1092 26-11-2019 14:00:17 10.2 C 30 %
1093 26-11-2019 14:10:17 10.2 C 30 %
1094 26-11-2019 14:20:17 10.5 C 30 %
1095 26-11-2019 14:30:17 10.2 C 28 %
1096 26-11-2019 14:40:17 10.6 C 28 %
1097 26-11-2019 14:50:17 10.6 C 28 %
1098 26-11-2019 15:00:17 10.7 C 27 %
1099 26-11-2019 15:10:17 10.9 C 26 %
1100 26-11-2019 15:20:17 11.1 C 26 %
Sensor: Nr:Datum:Temp:Feuchte:
Aussen-T/F 1101 26-11-2019 15:30:17 11.1 C 26 %
1102 26-11-2019 15:40:17 10.6 C 27 %
1103 26-11-2019 15:50:17 10.5 C 28 %
1104 26-11-2019 16:00:17 10.1 C 30 %
1105 26-11-2019 16:10:17 10 C 30 %
1106 26-11-2019 16:20:17 9.9 C 31 %
1107 26-11-2019 16:30:17 10 C 30 %
1108 26-11-2019 16:40:17 10 C 29 %
1109 26-11-2019 16:50:17 9.7 C 30 %
1110 26-11-2019 17:00:17 9.6 C 30 %
1111 26-11-2019 17:10:17 9.4 C 31 %
1112 26-11-2019 17:20:17 9.3 C 31 %
1113 26-11-2019 17:30:17 9.2 C 31 %
1114 26-11-2019 17:40:17 9.1 C 31 %
1115 26-11-2019 17:50:17 8.9 C 32 %
1116 26-11-2019 18:00:17 8.8 C 34 %
1117 26-11-2019 18:10:17 8.9 C 36 %
1118 26-11-2019 18:20:17 8.9 C 37 %
1119 26-11-2019 18:30:17 9 C 35 %
1120 26-11-2019 18:40:17 8.9 C 35 %
1121 26-11-2019 18:50:17 9.1 C 34 %
1122 26-11-2019 19:00:17 9.7 C 31 %
1123 26-11-2019 19:10:17 9.5 C 31 %
1124 26-11-2019 19:20:17 9.6 C 30 %
1125 26-11-2019 19:30:17 9.6 C 30 %
Sensor: Nr:Datum:Temp:Feuchte:
Aussen-T/F 1126 26-11-2019 19:40:17 9.7 C 30 %
1127 26-11-2019 19:50:17 9.5 C 30 %
1128 26-11-2019 20:00:17 9.5 C 30 %
1129 26-11-2019 20:10:17 9.2 C 31 %
1130 26-11-2019 20:20:17 8.9 C 32 %
1131 26-11-2019 20:30:17 8.4 C 35 %
1132 26-11-2019 20:40:17 8.2 C 35 %
1133 26-11-2019 20:50:17 8 C 37 %
1134 26-11-2019 21:00:17 7.9 C 38 %
1135 26-11-2019 21:10:17 8.3 C 39 %
1136 26-11-2019 21:20:17 8.5 C 37 %
1137 26-11-2019 21:30:17 8.7 C 36 %
1138 26-11-2019 21:40:17 8.8 C 35 %
1139 26-11-2019 21:50:17 8.8 C 35 %
1140 26-11-2019 22:00:17 8.9 C 35 %
1141 26-11-2019 22:10:17 8.8 C 34 %
1142 26-11-2019 22:20:17 8.6 C 34 %
1143 26-11-2019 22:30:17 8.4 C 35 %
1144 26-11-2019 22:40:17 8.1 C 35 %
1145 26-11-2019 22:50:17 7.8 C 36 %
1146 26-11-2019 23:00:17 7.9 C 39 %
1147 26-11-2019 23:10:17 7.9 C 39 %
1148 26-11-2019 23:20:17 8 C 38 %
1149 26-11-2019 23:30:17 7.8 C 38 %
1150 26-11-2019 23:40:17 7.7 C 38 %
Sensor: Nr:Datum:Temp:Feuchte:
Aussen-T/F 1151 26-11-2019 23:50:17 7.8 C 39 %
1152 27-11-2019 00:00:17 7.6 C 39 %
1153 27-11-2019 00:10:17 7.5 C 39 %
1154 27-11-2019 00:20:17 7.6 C 40 %
1155 27-11-2019 00:30:17 7.6 C 39 %
1156 27-11-2019 00:40:17 7.9 C 40 %
1157 27-11-2019 00:50:17 7.7 C 39 %
1158 27-11-2019 01:00:17 7.4 C 39 %
1159 27-11-2019 01:10:17 7.6 C 40 %
1160 27-11-2019 01:20:17 7.6 C 40 %
1161 27-11-2019 01:30:17 7.8 C 40 %
1162 27-11-2019 01:40:17 7.8 C 40 %
1163 27-11-2019 01:50:17 8 C 39 %
1164 27-11-2019 02:00:17 8.1 C 39 %
1165 27-11-2019 02:10:17 8.1 C 38 %
1166 27-11-2019 02:20:17 8.1 C 38 %
1167 27-11-2019 02:30:17 8 C 39 %
1168 27-11-2019 02:40:17 7.8 C 40 %
1169 27-11-2019 02:50:17 7.7 C 40 %
1170 27-11-2019 03:00:17 7.8 C 40 %
1171 27-11-2019 03:10:17 7.6 C 41 %
1172 27-11-2019 03:20:17 7.5 C 40 %
1173 27-11-2019 03:30:17 7.2 C 40 %
1174 27-11-2019 03:40:17 7.1 C 40 %
1175 27-11-2019 03:50:17 7 C 40 %
Sensor: Nr:Datum:Temp:Feuchte:
Aussen-T/F 1176 27-11-2019 04:00:17 7.1 C 40 %
1177 27-11-2019 04:10:17 7.3 C 40 %
1178 27-11-2019 04:20:17 7.5 C 40 %
1179 27-11-2019 04:30:17 7.6 C 40 %
1180 27-11-2019 04:40:17 7.6 C 40 %
1181 27-11-2019 04:50:17 7.4 C 39 %
1182 27-11-2019 05:00:17 7.1 C 38 %
1183 27-11-2019 05:10:17 7.4 C 39 %
1184 27-11-2019 05:20:17 7.8 C 37 %
1185 27-11-2019 05:30:17 7.7 C 37 %
1186 27-11-2019 05:40:17 8 C 35 %
1187 27-11-2019 05:50:17 8 C 35 %
1188 27-11-2019 06:00:18 8 C 34 %
1189 27-11-2019 06:10:18 7.8 C 35 %
1190 27-11-2019 06:20:17 7.8 C 36 %
1191 27-11-2019 06:30:17 7.6 C 37 %
1192 27-11-2019 06:40:17 7.7 C 39 %
1193 27-11-2019 06:50:17 7.6 C 39 %
1194 27-11-2019 07:00:17 7.8 C 37 %
1195 27-11-2019 07:10:17 7.8 C 35 %
1196 27-11-2019 07:20:17 7.9 C 35 %
1197 27-11-2019 07:30:17 8.1 C 34 %
1198 27-11-2019 07:40:17 8 C 32 %
1199 27-11-2019 07:50:17 8 C 34 %
1200 27-11-2019 08:00:17 8.2 C 33 %
Sensor: Nr:Datum:Temp:Feuchte:
Aussen-T/F 1201 27-11-2019 08:10:17 8.2 C 33 %
1202 27-11-2019 08:20:17 8.3 C 34 %
1203 27-11-2019 08:30:17 8.4 C 33 %
1204 27-11-2019 08:40:17 8.4 C 33 %
1205 27-11-2019 08:50:17 8.4 C 35 %
1206 27-11-2019 09:00:17 8.6 C 35 %
1207 27-11-2019 09:10:17 8.6 C 36 %
1208 27-11-2019 09:20:17 8.8 C 36 %
1209 27-11-2019 09:30:17 9.1 C 33 %
1210 27-11-2019 09:40:17 9 C 34 %
1211 27-11-2019 09:50:17 9 C 34 %
1212 27-11-2019 10:00:17 9.1 C 35 %
1213 27-11-2019 10:10:17 9.2 C 35 %
1214 27-11-2019 10:20:17 9.3 C 35 %
1215 27-11-2019 10:30:17 9.7 C 31 %
1216 27-11-2019 10:40:17 10 C 29 %
1217 27-11-2019 10:50:17 10.4 C 27 %
1218 27-11-2019 11:00:17 11 C 25 %
1219 27-11-2019 11:10:17 11.3 C 24 %
1220 27-11-2019 11:20:17 11.6 C 22 %
1221 27-11-2019 11:30:17 11.7 C 22 %
1222 27-11-2019 11:40:17 12.1 C 20 %
1223 27-11-2019 11:50:17 12.4 C 20 %
1224 27-11-2019 12:00:17 12.7 C 20 %
1225 27-11-2019 12:10:17 12.7 C 20 %
Sensor: Nr:Datum:Temp:Feuchte:
Aussen-T/F 1226 27-11-2019 12:20:18 12.7 C 20 %
1227 27-11-2019 12:30:17 12.7 C 20 %
1228 27-11-2019 12:40:17 12.8 C 20 %
1229 27-11-2019 12:50:17 12.8 C 20 %
1230 27-11-2019 13:00:17 12.7 C 20 %
1231 27-11-2019 13:10:17 12.8 C 20 %
1232 27-11-2019 13:20:17 12.8 C 20 %
1233 27-11-2019 13:30:17 12.6 C 20 %
1234 27-11-2019 13:40:17 12.7 C 20 %
1235 27-11-2019 13:50:17 12.9 C 20 %
1236 27-11-2019 14:00:17 13.1 C 20 %
1237 27-11-2019 14:10:17 13 C 20 %
1238 27-11-2019 14:20:17 12.9 C 20 %
1239 27-11-2019 14:30:17 12.9 C 20 %
1240 27-11-2019 14:40:17 12.9 C 20 %
1241 27-11-2019 14:50:17 12.9 C 20 %
1242 27-11-2019 15:00:17 12.7 C 20 %
1243 27-11-2019 15:10:17 12.8 C 20 %
1244 27-11-2019 15:20:17 12.8 C 20 %
1245 27-11-2019 15:30:17 12.8 C 20 %
1246 27-11-2019 15:40:17 12.5 C 20 %
1247 27-11-2019 15:50:17 12.2 C 20 %
1248 27-11-2019 16:00:17 11.5 C 20 %
1249 27-11-2019 16:10:17 11.1 C 20 %
1250 27-11-2019 16:20:17 10.8 C 25 %
Sensor: Nr:Datum:Temp:Feuchte:
Aussen-T/F 1251 27-11-2019 16:30:17 10.3 C 26 %
1252 27-11-2019 16:40:17 9.9 C 29 %
1253 27-11-2019 16:50:18 9.7 C 30 %
1254 27-11-2019 17:00:17 9.5 C 31 %
1255 27-11-2019 17:10:17 9.8 C 31 %
1256 27-11-2019 17:20:17 9.8 C 31 %
1257 27-11-2019 17:30:17 9.8 C 31 %
1258 27-11-2019 17:40:17 9.7 C 33 %
1259 27-11-2019 17:50:17 9.6 C 33 %
1260 27-11-2019 18:00:17 9.7 C 32 %
1261 27-11-2019 18:10:17 9.7 C 32 %
1262 27-11-2019 18:20:17 9.9 C 31 %
1263 27-11-2019 18:30:17 9.9 C 31 %
1264 27-11-2019 18:40:17 9.8 C 32 %
1265 27-11-2019 18:50:17 9.7 C 34 %
1266 27-11-2019 19:00:17 9.7 C 36 %
1267 27-11-2019 19:10:17 9.8 C 34 %
1268 27-11-2019 19:20:17 9.7 C 33 %
1269 27-11-2019 19:30:17 10 C 31 %
1270 27-11-2019 19:40:17 10 C 31 %
1271 27-11-2019 19:50:17 10.4 C 28 %
1272 27-11-2019 20:00:17 10.8 C 26 %
1273 27-11-2019 20:10:17 10.9 C 26 %
1274 27-11-2019 20:20:17 11 C 25 %
1275 27-11-2019 20:30:17 10.6 C 26 %
Sensor: Nr:Datum:Temp:Feuchte:
Aussen-T/F 1276 27-11-2019 20:40:17 9.9 C 30 %
1277 27-11-2019 20:50:17 9.7 C 31 %
1278 27-11-2019 21:00:17 9.8 C 33 %
1279 27-11-2019 21:10:17 9.8 C 32 %
1280 27-11-2019 21:20:17 9.6 C 33 %
1281 27-11-2019 21:30:17 9.8 C 32 %
1282 27-11-2019 21:40:17 10.1 C 31 %
1283 27-11-2019 21:50:17 10.2 C 29 %
1284 27-11-2019 22:00:17 10.3 C 28 %
1285 27-11-2019 22:10:17 10.6 C 27 %
1286 27-11-2019 22:20:17 10.9 C 26 %
1287 27-11-2019 22:30:17 10.9 C 26 %
1288 27-11-2019 22:40:17 10.8 C 25 %
1289 27-11-2019 22:50:17 10.7 C 25 %
1290 27-11-2019 23:00:17 11.1 C 24 %
1291 27-11-2019 23:10:17 11.3 C 23 %
1292 27-11-2019 23:20:17 11.1 C 23 %
1293 27-11-2019 23:30:17 11.5 C 21 %
1294 27-11-2019 23:40:18 11.5 C 21 %
1295 27-11-2019 23:50:17 11.2 C 21 %
1296 28-11-2019 00:00:18 11.2 C 21 %
1297 28-11-2019 00:10:18 11.3 C 20 %
1298 28-11-2019 00:20:17 11.2 C 20 %
1299 28-11-2019 00:30:17 11.2 C 20 %
1300 28-11-2019 00:40:17 11.5 C 20 %
Sensor: Nr:Datum:Temp:Feuchte:
Aussen-T/F 1301 28-11-2019 00:50:17 11.3 C 20 %
1302 28-11-2019 01:00:17 11.4 C 20 %
1303 28-11-2019 01:10:17 11.4 C 20 %
1304 28-11-2019 01:20:17 11.4 C 20 %
1305 28-11-2019 01:30:17 11.4 C 20 %
1306 28-11-2019 01:40:17 11.1 C 20 %
1307 28-11-2019 01:50:17 11.1 C 20 %
1308 28-11-2019 02:00:18 10.8 C 20 %
1309 28-11-2019 02:10:18 10.5 C 20 %
1310 28-11-2019 02:20:17 10.7 C 20 %
1311 28-11-2019 02:30:17 11 C 20 %
1312 28-11-2019 02:40:17 10.5 C 21 %
1313 28-11-2019 02:50:17 10.8 C 20 %
1314 28-11-2019 03:00:17 10.9 C 20 %
1315 28-11-2019 03:10:17 10.3 C 20 %
1316 28-11-2019 03:20:18 10.8 C 20 %
1317 28-11-2019 03:30:18 10.6 C 20 %
1318 28-11-2019 03:40:18 10.9 C 20 %
1319 28-11-2019 03:50:18 10.9 C 20 %
1320 28-11-2019 04:00:18 10.7 C 20 %
1321 28-11-2019 04:10:18 10.6 C 20 %
1322 28-11-2019 04:20:17 10.6 C 20 %
1323 28-11-2019 04:30:17 10.6 C 20 %
1324 28-11-2019 04:40:17 10.5 C 20 %
1325 28-11-2019 04:50:17 10.3 C 20 %
Sensor: Nr:Datum:Temp:Feuchte:
Aussen-T/F 1326 28-11-2019 05:00:17 10.5 C 20 %
1327 28-11-2019 05:10:17 10.2 C 20 %
1328 28-11-2019 05:20:17 10.1 C 20 %
1329 28-11-2019 05:30:17 10.4 C 20 %
1330 28-11-2019 05:40:17 10.1 C 20 %
1331 28-11-2019 05:50:17 10.2 C 20 %
1332 28-11-2019 06:00:17 9.9 C 20 %
1333 28-11-2019 06:10:17 10.1 C 20 %
1334 28-11-2019 06:20:17 10.2 C 20 %
1335 28-11-2019 06:30:17 10.5 C 20 %
1336 28-11-2019 06:40:17 10.6 C 20 %
1337 28-11-2019 06:50:17 10.5 C 20 %
1338 28-11-2019 07:00:17 10.4 C 20 %
1339 28-11-2019 07:10:17 10 C 20 %
1340 28-11-2019 07:20:17 10 C 20 %
1341 28-11-2019 07:30:17 10 C 20 %
1342 28-11-2019 07:40:17 10.2 C 20 %
1343 28-11-2019 07:50:17 10.3 C 20 %
1344 28-11-2019 08:00:17 10.4 C 20 %
1345 28-11-2019 08:10:17 10.2 C 20 %
1346 28-11-2019 08:20:17 10.2 C 20 %
1347 28-11-2019 08:30:17 10.1 C 20 %
1348 28-11-2019 08:40:17 10.1 C 20 %
1349 28-11-2019 08:50:17 10.1 C 20 %
1350 28-11-2019 09:00:17 10.3 C 20 %
Sensor: Nr:Datum:Temp:Feuchte:
Aussen-T/F 1351 28-11-2019 09:10:17 10.7 C 20 %
1352 28-11-2019 09:20:17 11 C 20 %
1353 28-11-2019 09:30:17 11 C 20 %
1354 28-11-2019 09:40:17 11.1 C 20 %
1355 28-11-2019 09:50:17 11.1 C 20 %
1356 28-11-2019 10:00:17 11.3 C 20 %
1357 28-11-2019 10:10:17 11.3 C 20 %
1358 28-11-2019 10:20:17 11.5 C 20 %
1359 28-11-2019 10:30:17 11.6 C 20 %
1360 28-11-2019 10:40:17 11.7 C 20 %
1361 28-11-2019 10:50:17 11.7 C 20 %
1362 28-11-2019 11:00:17 11.7 C 20 %
1363 28-11-2019 11:10:17 11.8 C 20 %
1364 28-11-2019 11:20:17 11.9 C 20 %
1365 28-11-2019 11:30:17 11.9 C 20 %
1366 28-11-2019 11:40:17 12.2 C 20 %
1367 28-11-2019 11:50:17 11.9 C 20 %
1368 28-11-2019 12:00:17 11.6 C 20 %
1369 28-11-2019 12:10:17 11.5 C 20 %
1370 28-11-2019 12:20:17 11.1 C 20 %
1371 28-11-2019 12:30:17 11.1 C 20 %
1372 28-11-2019 12:40:17 10.9 C 20 %
1373 28-11-2019 12:50:17 11.2 C 20 %
1374 28-11-2019 13:00:17 11.2 C 20 %
1375 28-11-2019 13:10:17 11.7 C 20 %
Sensor: Nr:Datum:Temp:Feuchte:
Aussen-T/F 1376 28-11-2019 13:20:17 11.8 C 20 %
1377 28-11-2019 13:30:17 12.1 C 20 %
1378 28-11-2019 13:40:17 11.4 C 20 %
1379 28-11-2019 13:50:17 11.4 C 20 %
1380 28-11-2019 14:00:17 11.3 C 20 %
1381 28-11-2019 14:10:17 11.4 C 20 %
1382 28-11-2019 14:20:17 11.2 C 20 %
1383 28-11-2019 14:30:17 11.1 C 20 %
1384 28-11-2019 14:40:17 11.2 C 20 %
1385 28-11-2019 14:50:17 11.2 C 20 %
1386 28-11-2019 15:00:17 11.2 C 20 %
1387 28-11-2019 15:10:17 11.1 C 20 %
1388 28-11-2019 15:20:17 11 C 20 %
1389 28-11-2019 15:30:17 10.2 C 23 %
1390 28-11-2019 15:40:17 10.2 C 21 %
1391 28-11-2019 15:50:17 10.3 C 21 %
1392 28-11-2019 16:00:17 10.5 C 21 %
1393 28-11-2019 16:10:17 10.3 C 22 %
1394 28-11-2019 16:20:17 10.5 C 21 %
1395 28-11-2019 16:30:17 10.6 C 21 %
1396 28-11-2019 16:40:17 10.4 C 21 %
1397 28-11-2019 16:50:17 10.4 C 21 %
1398 28-11-2019 17:00:17 10.3 C 22 %
1399 28-11-2019 17:10:17 9.7 C 27 %
1400 28-11-2019 17:20:17 9.5 C 29 %
Sensor: Nr:Datum:Temp:Feuchte:
Aussen-T/F 1401 28-11-2019 17:30:17 9.4 C 30 %
1402 28-11-2019 17:40:17 9.3 C 30 %
1403 28-11-2019 17:50:17 9.6 C 28 %
1404 28-11-2019 18:00:17 9.8 C 27 %
1405 28-11-2019 18:10:17 10.2 C 25 %
1406 28-11-2019 18:20:17 10.3 C 25 %
1407 28-11-2019 18:30:17 10.2 C 25 %
1408 28-11-2019 18:40:17 10.2 C 25 %
1409 28-11-2019 18:50:17 10.2 C 25 %
1410 28-11-2019 19:00:17 10.1 C 25 %
1411 28-11-2019 19:10:17 9.8 C 26 %
1412 28-11-2019 19:20:17 9.8 C 26 %
1413 28-11-2019 19:30:17 9.8 C 26 %
1414 28-11-2019 19:40:17 9.9 C 26 %
1415 28-11-2019 19:50:17 10.1 C 25 %
1416 28-11-2019 20:00:17 10.1 C 26 %
1417 28-11-2019 20:10:17 9.8 C 26 %
1418 28-11-2019 20:20:17 9.8 C 26 %
1419 28-11-2019 20:30:17 9.8 C 27 %
1420 28-11-2019 20:40:17 10.1 C 26 %
1421 28-11-2019 20:50:17 10 C 25 %
1422 28-11-2019 21:00:17 10.1 C 25 %
1423 28-11-2019 21:10:17 9.7 C 27 %
1424 28-11-2019 21:20:17 9.9 C 27 %
1425 28-11-2019 21:30:17 10.1 C 26 %
Sensor: Nr:Datum:Temp:Feuchte:
Aussen-T/F 1426 28-11-2019 21:40:17 10 C 26 %
1427 28-11-2019 21:50:17 10 C 25 %
1428 28-11-2019 22:00:17 9.6 C 27 %
1429 28-11-2019 22:10:17 9.6 C 28 %
1430 28-11-2019 22:20:17 9.6 C 28 %
1431 28-11-2019 22:30:17 9.5 C 28 %
1432 28-11-2019 22:40:17 9.6 C 28 %
1433 28-11-2019 22:50:17 9.5 C 28 %
1434 28-11-2019 23:00:17 9.5 C 28 %
1435 28-11-2019 23:10:17 9.5 C 29 %
1436 28-11-2019 23:20:17 9.6 C 28 %
1437 28-11-2019 23:30:17 9.2 C 30 %
1438 28-11-2019 23:40:17 9.1 C 32 %
1439 28-11-2019 23:50:17 8.9 C 35 %
1440 29-11-2019 00:00:17 8.9 C 34 %
1441 29-11-2019 00:10:17 8.7 C 36 %
1442 29-11-2019 00:20:17 8.8 C 35 %
1443 29-11-2019 00:30:17 8.7 C 36 %
1444 29-11-2019 00:40:17 8.7 C 35 %
1445 29-11-2019 00:50:17 8.6 C 35 %
1446 29-11-2019 01:00:17 8.6 C 36 %
1447 29-11-2019 01:10:17 8.5 C 37 %
1448 29-11-2019 01:20:17 8.3 C 37 %
1449 29-11-2019 01:30:17 8.3 C 36 %
1450 29-11-2019 01:40:17 8.3 C 36 %
Sensor: Nr:Datum:Temp:Feuchte:
Aussen-T/F 1451 29-11-2019 01:50:17 8.1 C 39 %
1452 29-11-2019 02:00:17 8.1 C 40 %
1453 29-11-2019 02:10:17 8.1 C 40 %
1454 29-11-2019 02:20:17 8.1 C 40 %
1455 29-11-2019 02:30:17 8.1 C 40 %
1456 29-11-2019 02:40:17 8.1 C 40 %
1457 29-11-2019 02:50:17 8 C 40 %
1458 29-11-2019 03:00:17 8 C 40 %
1459 29-11-2019 03:10:17 8 C 40 %
1460 29-11-2019 03:20:17 7.9 C 40 %
1461 29-11-2019 03:30:17 7.8 C 40 %
1462 29-11-2019 03:40:17 7.7 C 40 %
1463 29-11-2019 03:50:17 7.6 C 40 %
1464 29-11-2019 04:00:17 7.6 C 40 %
1465 29-11-2019 04:10:17 7.6 C 40 %
1466 29-11-2019 04:20:17 7.6 C 40 %
1467 29-11-2019 04:30:17 7.5 C 40 %
1468 29-11-2019 04:40:17 7.5 C 40 %
1469 29-11-2019 04:50:17 7.2 C 38 %
1470 29-11-2019 05:00:17 6.8 C 34 %
1471 29-11-2019 05:10:17 6.4 C 33 %
1472 29-11-2019 05:20:17 6.2 C 34 %
1473 29-11-2019 05:30:17 6.2 C 35 %
1474 29-11-2019 05:40:18 6.1 C 36 %
1475 29-11-2019 05:50:17 6 C 36 %
Sensor: Nr:Datum:Temp:Feuchte:
Aussen-T/F 1476 29-11-2019 06:00:17 6 C 38 %
1477 29-11-2019 06:10:17 5.9 C 38 %
1478 29-11-2019 06:20:17 5.9 C 38 %
1479 29-11-2019 06:30:17 5.9 C 40 %
1480 29-11-2019 06:40:17 5.9 C 40 %
1481 29-11-2019 06:50:17 5.8 C 36 %
1482 29-11-2019 07:00:17 5.7 C 35 %
1483 29-11-2019 07:10:17 5.6 C 37 %
1484 29-11-2019 07:20:17 5.4 C 37 %
1485 29-11-2019 07:30:17 5.4 C 40 %
1486 29-11-2019 07:40:17 5.4 C 37 %
1487 29-11-2019 07:50:17 5.4 C 39 %
1488 29-11-2019 08:00:17 5.3 C 40 %
1489 29-11-2019 08:10:17 5.2 C 40 %
1490 29-11-2019 08:20:17 5.1 C 40 %
1491 29-11-2019 08:30:17 5 C 40 %
1492 29-11-2019 08:40:17 5 C 40 %
1493 29-11-2019 08:50:17 5 C 39 %
1494 29-11-2019 09:00:17 5 C 39 %
1495 29-11-2019 09:10:17 5 C 39 %
1496 29-11-2019 09:20:17 4.8 C 37 %
1497 29-11-2019 09:30:17 4.6 C 37 %
1498 29-11-2019 09:40:17 4.6 C 37 %
1499 29-11-2019 09:50:17 4.7 C 36 %
1500 29-11-2019 10:00:17 4.8 C 32 %
Sensor: Nr:Datum:Temp:Feuchte:
Aussen-T/F 1501 29-11-2019 10:10:17 5.1 C 31 %
1502 29-11-2019 10:20:17 5.8 C 27 %
1503 29-11-2019 10:30:17 5.9 C 29 %
1504 29-11-2019 10:40:17 5.7 C 27 %
1505 29-11-2019 10:50:17 5.4 C 28 %
1506 29-11-2019 11:00:17 5.6 C 30 %
1507 29-11-2019 11:10:17 5.9 C 26 %
1508 29-11-2019 11:20:17 6 C 27 %
1509 29-11-2019 11:30:17 6.4 C 26 %
1510 29-11-2019 11:40:17 7 C 23 %
1511 29-11-2019 11:50:17 7.3 C 21 %
1512 29-11-2019 12:00:17 7.2 C 20 %
1513 29-11-2019 12:10:17 7.2 C 20 %
1514 29-11-2019 12:20:17 7.1 C 20 %
1515 29-11-2019 12:30:17 7.6 C 20 %
1516 29-11-2019 12:40:17 7.2 C 20 %
1517 29-11-2019 12:50:17 6.9 C 21 %
1518 29-11-2019 13:00:17 6.6 C 21 %
1519 29-11-2019 13:10:17 6.2 C 23 %
1520 29-11-2019 13:20:17 5.9 C 25 %
1521 29-11-2019 13:30:17 6.1 C 25 %
1522 29-11-2019 13:40:17 6.1 C 25 %
1523 29-11-2019 13:50:17 6.5 C 20 %
1524 29-11-2019 14:00:17 6.5 C 20 %
1525 29-11-2019 14:10:17 7 C 20 %
Sensor: Nr:Datum:Temp:Feuchte:
Aussen-T/F 1526 29-11-2019 14:20:17 7.3 C 20 %
1527 29-11-2019 14:30:17 7.3 C 20 %
1528 29-11-2019 14:40:17 6.9 C 20 %
1529 29-11-2019 14:50:17 6.5 C 20 %
1530 29-11-2019 15:00:17 7.3 C 20 %
1531 29-11-2019 15:10:17 7.3 C 20 %
1532 29-11-2019 15:20:17 7.2 C 20 %
1533 29-11-2019 15:30:17 7.2 C 20 %
1534 29-11-2019 15:40:17 7.2 C 20 %
1535 29-11-2019 15:50:17 6.7 C 20 %
1536 29-11-2019 16:00:17 6.4 C 20 %
1537 29-11-2019 16:10:17 5.6 C 20 %
1538 29-11-2019 16:20:17 6.2 C 20 %
1539 29-11-2019 16:30:17 6 C 20 %
1540 29-11-2019 16:40:18 5.3 C 20 %
1541 29-11-2019 16:50:17 5.3 C 20 %
1542 29-11-2019 17:00:18 4.5 C 23 %
1543 29-11-2019 17:10:18 4 C 26 %
1544 29-11-2019 17:20:17 4 C 26 %
1545 29-11-2019 17:30:18 3.9 C 27 %
1546 29-11-2019 17:40:18 4 C 26 %
1547 29-11-2019 17:50:17 3.8 C 27 %
1548 29-11-2019 18:00:17 4.2 C 26 %
1549 29-11-2019 18:10:18 4.6 C 25 %
1550 29-11-2019 18:20:17 5 C 21 %
Sensor: Nr:Datum:Temp:Feuchte:
Aussen-T/F 1551 29-11-2019 18:30:17 5 C 21 %
1552 29-11-2019 18:40:17 4.8 C 23 %
1553 29-11-2019 18:50:17 4.7 C 26 %
1554 29-11-2019 19:00:17 4.8 C 21 %
1555 29-11-2019 19:10:17 4.8 C 21 %
1556 29-11-2019 19:20:17 4.8 C 21 %
1557 29-11-2019 19:30:17 4.4 C 25 %
1558 29-11-2019 19:40:17 4.6 C 21 %
1559 29-11-2019 19:50:17 4.4 C 25 %
1560 29-11-2019 20:00:17 4 C 26 %
1561 29-11-2019 20:10:17 4 C 26 %
1562 29-11-2019 20:20:17 4.3 C 25 %
1563 29-11-2019 20:30:17 4.7 C 23 %
1564 29-11-2019 20:40:17 4 C 25 %
1565 29-11-2019 20:50:17 3.9 C 26 %
1566 29-11-2019 21:00:17 3.8 C 28 %
1567 29-11-2019 21:10:17 3.9 C 27 %
1568 29-11-2019 21:20:17 3.8 C 27 %
1569 29-11-2019 21:30:17 3.8 C 28 %
1570 29-11-2019 21:40:17 3.9 C 28 %
1571 29-11-2019 21:50:17 3.2 C 30 %
1572 29-11-2019 22:00:17 3.3 C 29 %
1573 29-11-2019 22:10:17 2.6 C 32 %
1574 29-11-2019 22:20:17 2.1 C 35 %
1575 29-11-2019 22:30:17 1.9 C 37 %
Sensor: Nr:Datum:Temp:Feuchte:
Aussen-T/F 1576 29-11-2019 22:40:17 1.7 C 40 %
1577 29-11-2019 22:50:17 1.8 C 41 %
1578 29-11-2019 23:00:17 1.5 C 38 %
1579 29-11-2019 23:10:17 1.1 C 39 %
1580 29-11-2019 23:20:17 1.3 C 41 %
1581 29-11-2019 23:30:17 1.5 C 42 %
1582 29-11-2019 23:40:17 1.6 C 41 %
1583 29-11-2019 23:50:17 1.7 C 41 %
1584 30-11-2019 00:00:17 1.9 C 40 %
1585 30-11-2019 00:10:17 1.8 C 40 %
1586 30-11-2019 00:20:17 1.8 C 40 %
1587 30-11-2019 00:30:17 2 C 37 %
1588 30-11-2019 00:40:17 1.7 C 37 %
1589 30-11-2019 00:50:17 1.6 C 40 %
1590 30-11-2019 01:00:17 1.3 C 40 %
1591 30-11-2019 01:10:17 1 C 40 %
1592 30-11-2019 01:20:17 0.7 C 41 %
1593 30-11-2019 01:30:17 0.5 C 42 %
1594 30-11-2019 01:40:17 0.7 C 44 %
1595 30-11-2019 01:50:17 0.5 C 43 %
1596 30-11-2019 02:00:17 0.4 C 44 %
1597 30-11-2019 02:10:17 0.9 C 45 %
1598 30-11-2019 02:20:17 1.1 C 44 %
1599 30-11-2019 02:30:17 1.2 C 44 %
1600 30-11-2019 02:40:17 0.8 C 43 %
Sensor: Nr:Datum:Temp:Feuchte:
Aussen-T/F 1601 30-11-2019 02:50:17 0.8 C 43 %
1602 30-11-2019 03:00:17 0.9 C 43 %
1603 30-11-2019 03:10:17 0.7 C 43 %
1604 30-11-2019 03:20:17 0.3 C 41 %
1605 30-11-2019 03:30:17 0.5 C 44 %
1606 30-11-2019 03:40:17 0.2 C 43 %
1607 30-11-2019 03:50:17 0.6 C 44 %
1608 30-11-2019 04:00:17 1 C 44 %
1609 30-11-2019 04:10:17 1.3 C 43 %
1610 30-11-2019 04:20:17 1.3 C 41 %
1611 30-11-2019 04:30:17 1.4 C 40 %
1612 30-11-2019 04:40:17 1.3 C 40 %
1613 30-11-2019 04:50:17 1 C 38 %
1614 30-11-2019 05:00:17 0.6 C 40 %
1615 30-11-2019 05:10:17 1.1 C 41 %
1616 30-11-2019 05:20:17 0.8 C 40 %
1617 30-11-2019 05:30:17 0.3 C 40 %
1618 30-11-2019 05:40:17 -0.5 C 40 %
1619 30-11-2019 05:50:17 -0.7 C 41 %
1620 30-11-2019 06:00:17 -0.7 C 43 %
1621 30-11-2019 06:10:17 -0.9 C 43 %
1622 30-11-2019 06:20:17 -1 C 43 %
1623 30-11-2019 06:30:17 -1.2 C 43 %
1624 30-11-2019 06:40:17 -1.3 C 43 %
1625 30-11-2019 06:50:17 -1.2 C 44 %
Sensor: Nr:Datum:Temp:Feuchte:
Aussen-T/F 1626 30-11-2019 07:00:17 -1.4 C 44 %
1627 30-11-2019 07:10:17 -1.4 C 43 %
1628 30-11-2019 07:20:17 -1.4 C 43 %
1629 30-11-2019 07:30:17 -1.5 C 43 %
1630 30-11-2019 07:40:17 -1.2 C 44 %
1631 30-11-2019 07:50:17 -1.1 C 44 %
1632 30-11-2019 08:00:17 -1 C 44 %
1633 30-11-2019 08:10:17 -0.7 C 44 %
1634 30-11-2019 08:20:17 -0.6 C 44 %
1635 30-11-2019 08:30:17 -0.7 C 44 %
1636 30-11-2019 08:40:17 -0.6 C 44 %
1637 30-11-2019 08:50:17 -0.7 C 44 %
1638 30-11-2019 09:00:17 -0.7 C 44 %
1639 30-11-2019 09:10:17 -0.6 C 44 %
1640 30-11-2019 09:20:17 -0.7 C 44 %
1641 30-11-2019 09:30:17 -0.7 C 44 %
1642 30-11-2019 09:40:17 -0.6 C 44 %
1643 30-11-2019 09:50:17 -0.3 C 44 %
1644 30-11-2019 10:00:17 -0.3 C 44 %
1645 30-11-2019 10:10:17 0 C 44 %
1646 30-11-2019 10:20:17 0.1 C 43 %
1647 30-11-2019 10:30:17 0.4 C 43 %
1648 30-11-2019 10:40:17 0.5 C 43 %
1649 30-11-2019 10:50:17 0.4 C 43 %
1650 30-11-2019 11:00:18 0.5 C 42 %
Sensor: Nr:Datum:Temp:Feuchte:
Aussen-T/F 1651 30-11-2019 11:10:18 0.6 C 42 %
1652 30-11-2019 11:20:17 0.6 C 42 %
1653 30-11-2019 11:30:17 0.4 C 41 %
1654 30-11-2019 11:40:17 0.6 C 41 %
1655 30-11-2019 11:50:17 0.9 C 41 %
1656 30-11-2019 12:00:17 1.1 C 40 %
1657 30-11-2019 12:10:17 0.9 C 38 %
1658 30-11-2019 12:20:17 1.3 C 39 %
1659 30-11-2019 12:30:17 1.4 C 37 %
1660 30-11-2019 12:40:17 1.4 C 36 %
1661 30-11-2019 12:50:17 2.3 C 36 %
1662 30-11-2019 13:00:17 2.4 C 36 %
1663 30-11-2019 13:10:17 1.8 C 36 %
1664 30-11-2019 13:20:17 2.2 C 36 %
1665 30-11-2019 13:30:17 2.1 C 36 %
1666 30-11-2019 13:40:17 2.3 C 36 %
1667 30-11-2019 13:50:17 2.3 C 36 %
1668 30-11-2019 14:00:17 2 C 36 %
1669 30-11-2019 14:10:17 2.1 C 38 %
1670 30-11-2019 14:20:17 2.2 C 38 %
1671 30-11-2019 14:30:17 2.2 C 38 %
1672 30-11-2019 14:40:17 2.4 C 38 %
1673 30-11-2019 14:50:17 2.2 C 37 %
1674 30-11-2019 15:00:17 1.9 C 39 %
1675 30-11-2019 15:10:17 1.8 C 40 %
Sensor: Nr:Datum:Temp:Feuchte:
Aussen-T/F 1676 30-11-2019 15:20:18 1.9 C 41 %
1677 30-11-2019 15:30:17 1.8 C 41 %
1678 30-11-2019 15:40:17 1.6 C 41 %
1679 30-11-2019 15:50:17 1.7 C 42 %
1680 30-11-2019 16:00:17 1.5 C 42 %
1681 30-11-2019 16:10:17 1.5 C 42 %
1682 30-11-2019 16:20:17 1.4 C 43 %
1683 30-11-2019 16:30:17 1.3 C 43 %
1684 30-11-2019 16:40:17 1.3 C 43 %
1685 30-11-2019 16:50:17 1.1 C 43 %
1686 30-11-2019 17:00:17 0.9 C 44 %
1687 30-11-2019 17:10:17 0.9 C 44 %
1688 30-11-2019 17:20:17 0.6 C 44 %
1689 30-11-2019 17:30:17 0.6 C 44 %
1690 30-11-2019 17:40:17 0.6 C 44 %
1691 30-11-2019 17:50:17 0.5 C 44 %
1692 30-11-2019 18:00:17 0.4 C 44 %
1693 30-11-2019 18:10:17 0.3 C 44 %
1694 30-11-2019 18:20:17 0.3 C 44 %
1695 30-11-2019 18:30:17 0.4 C 44 %
1696 30-11-2019 18:40:17 0.4 C 44 %
1697 30-11-2019 18:50:17 0.4 C 44 %
1698 30-11-2019 19:00:17 0.2 C 44 %
1699 30-11-2019 19:10:17 0 C 44 %
1700 30-11-2019 19:20:17 0 C 44 %
Sensor: Nr:Datum:Temp:Feuchte:
Aussen-T/F 1701 30-11-2019 19:30:17 0 C 44 %
1702 30-11-2019 19:40:17 -0.1 C 44 %
1703 30-11-2019 19:50:17 -0.1 C 44 %
1704 30-11-2019 20:00:17 -0.2 C 44 %
1705 30-11-2019 20:10:18 -0.2 C 44 %
1706 30-11-2019 20:20:18 -0.2 C 44 %
1707 30-11-2019 20:30:17 -0.2 C 44 %
1708 30-11-2019 20:40:17 -0.4 C 44 %
1709 30-11-2019 20:50:17 -0.3 C 44 %
1710 30-11-2019 21:00:17 -0.2 C 44 %
1711 30-11-2019 21:10:17 -0.3 C 44 %
1712 30-11-2019 21:20:17 -0.3 C 44 %
1713 30-11-2019 21:30:17 -0.4 C 44 %
1714 30-11-2019 21:40:17 -0.2 C 44 %
1715 30-11-2019 21:50:17 -0.3 C 44 %
1716 30-11-2019 22:00:17 -0.3 C 44 %
1717 30-11-2019 22:10:17 -0.3 C 44 %
1718 30-11-2019 22:20:17 -0.3 C 44 %
1719 30-11-2019 22:30:17 -0.1 C 44 %
1720 30-11-2019 22:40:17 0 C 44 %
1721 30-11-2019 22:50:17 0 C 44 %
1722 30-11-2019 23:00:17 0 C 44 %
1723 30-11-2019 23:10:17 0 C 44 %
1724 30-11-2019 23:20:17 -0.1 C 44 %
1725 30-11-2019 23:30:17 -0.4 C 43 %
Sensor: Nr:Datum:Temp:Feuchte:
Aussen-T/F 1726 30-11-2019 23:40:17 -0.5 C 43 %
1727 30-11-2019 23:50:17 -0.4 C 43 %
1728 01-12-2019 00:00:17 -0.2 C 43 %
1729 01-12-2019 00:10:17 -0.3 C 43 %
1730 01-12-2019 00:20:17 -0.3 C 43 %
1731 01-12-2019 00:30:17 -0.3 C 43 %
1732 01-12-2019 00:40:17 -0.3 C 43 %
1733 01-12-2019 00:50:18 -0.2 C 43 %
1734 01-12-2019 01:00:17 0 C 44 %
1735 01-12-2019 01:10:17 -0.1 C 43 %
1736 01-12-2019 01:20:17 -0.1 C 43 %
1737 01-12-2019 01:30:17 -0.1 C 43 %
1738 01-12-2019 01:40:17 -0.1 C 43 %
1739 01-12-2019 01:50:17 -0.2 C 43 %
1740 01-12-2019 02:00:17 -0.1 C 43 %
1741 01-12-2019 02:10:17 -0.2 C 43 %
1742 01-12-2019 02:20:17 -0.2 C 43 %
1743 01-12-2019 02:30:17 -0.2 C 43 %
1744 01-12-2019 02:40:17 -0.3 C 43 %
1745 01-12-2019 02:50:17 -0.2 C 43 %
1746 01-12-2019 03:00:17 -0.3 C 43 %
1747 01-12-2019 03:10:17 -0.3 C 43 %
1748 01-12-2019 03:20:17 -0.4 C 43 %
1749 01-12-2019 03:30:17 -0.4 C 43 %
1750 01-12-2019 03:40:17 -0.4 C 43 %
Sensor: Nr:Datum:Temp:Feuchte:
Aussen-T/F 1751 01-12-2019 03:50:17 -0.4 C 43 %
1752 01-12-2019 04:00:17 -0.4 C 43 %
1753 01-12-2019 04:10:17 -0.8 C 42 %
1754 01-12-2019 04:20:17 -1.1 C 42 %
1755 01-12-2019 04:30:17 -1.3 C 42 %
1756 01-12-2019 04:40:17 -0.9 C 43 %
1757 01-12-2019 04:50:17 -0.9 C 43 %
1758 01-12-2019 05:00:17 -0.7 C 43 %
1759 01-12-2019 05:10:17 -0.8 C 43 %
1760 01-12-2019 05:20:17 -0.9 C 43 %
1761 01-12-2019 05:30:17 -1.1 C 43 %
1762 01-12-2019 05:40:17 -1 C 43 %
1763 01-12-2019 05:50:17 -0.9 C 43 %
1764 01-12-2019 06:00:17 -1 C 43 %
1765 01-12-2019 06:10:17 -1.1 C 43 %
1766 01-12-2019 06:20:17 -1.3 C 43 %
1767 01-12-2019 06:30:17 -1 C 43 %
1768 01-12-2019 06:40:17 -0.9 C 43 %
1769 01-12-2019 06:50:17 -0.9 C 43 %
1770 01-12-2019 07:00:17 -0.8 C 43 %
1771 01-12-2019 07:10:17 -0.7 C 43 %
1772 01-12-2019 07:20:17 -0.5 C 43 %
1773 01-12-2019 07:30:17 -0.5 C 43 %
1774 01-12-2019 07:40:17 -0.3 C 43 %
1775 01-12-2019 07:50:17 -0.2 C 43 %
Sensor: Nr:Datum:Temp:Feuchte:
Aussen-T/F 1776 01-12-2019 08:00:17 -0.1 C 43 %
1777 01-12-2019 08:10:17 -0.1 C 43 %
1778 01-12-2019 08:20:17 -0.2 C 43 %
1779 01-12-2019 08:30:17 -0.2 C 43 %
1780 01-12-2019 08:40:17 -0.2 C 43 %
1781 01-12-2019 08:50:17 0 C 43 %
1782 01-12-2019 09:00:17 0 C 42 %
1783 01-12-2019 09:10:17 0.2 C 42 %
1784 01-12-2019 09:20:17 0.1 C 42 %
1785 01-12-2019 09:30:17 0.1 C 42 %
1786 01-12-2019 09:40:17 0.2 C 41 %
1787 01-12-2019 09:50:17 0.3 C 41 %
1788 01-12-2019 10:00:17 0.5 C 41 %
1789 01-12-2019 10:10:17 0.6 C 41 %
1790 01-12-2019 10:20:17 0.7 C 40 %
1791 01-12-2019 10:30:17 0.8 C 39 %
1792 01-12-2019 10:40:17 1 C 38 %
1793 01-12-2019 10:50:17 1.1 C 37 %
1794 01-12-2019 11:00:17 1.4 C 36 %
1795 01-12-2019 11:10:17 1.9 C 34 %
1796 01-12-2019 11:20:17 2.1 C 32 %
1797 01-12-2019 11:30:17 2.7 C 30 %
1798 01-12-2019 11:40:17 3 C 27 %
1799 01-12-2019 11:50:17 2.9 C 20 %
1800 01-12-2019 12:00:17 3 C 21 %
Sensor: Nr:Datum:Temp:Feuchte:
Aussen-T/F 1801 01-12-2019 12:10:17 3.1 C 20 %
1802 01-12-2019 12:20:17 3.3 C 20 %
1803 01-12-2019 12:30:18 3.3 C 20 %
1804 01-12-2019 12:40:18 3.3 C 20 %
1805 01-12-2019 12:50:18 3.4 C 20 %
1806 01-12-2019 13:00:17 3.3 C 20 %
1807 01-12-2019 13:10:17 3.4 C 20 %
1808 01-12-2019 13:20:18 3.5 C 20 %
1809 01-12-2019 13:30:18 3.5 C 20 %
1810 01-12-2019 13:40:18 3.6 C 20 %
1811 01-12-2019 13:50:17 3.8 C 20 %
1812 01-12-2019 14:00:17 3.9 C 20 %
1813 01-12-2019 14:10:18 3.9 C 20 %
1814 01-12-2019 14:20:18 3.7 C 20 %
1815 01-12-2019 14:30:17 3.7 C 20 %
1816 01-12-2019 14:40:17 3.6 C 20 %
1817 01-12-2019 14:50:17 3.6 C 20 %
1818 01-12-2019 15:00:17 3.5 C 20 %
1819 01-12-2019 15:10:17 3.3 C 20 %
1820 01-12-2019 15:20:17 3.2 C 21 %
1821 01-12-2019 15:30:17 3 C 20 %
1822 01-12-2019 15:40:17 3 C 21 %
1823 01-12-2019 15:50:17 2.7 C 25 %
1824 01-12-2019 16:00:17 2.6 C 25 %
1825 01-12-2019 16:10:17 2.5 C 25 %
Sensor: Nr:Datum:Temp:Feuchte:
Aussen-T/F 1826 01-12-2019 16:20:17 2.4 C 25 %
1827 01-12-2019 16:30:18 2.4 C 25 %
1828 01-12-2019 16:40:18 2.2 C 25 %
1829 01-12-2019 16:50:18 2.2 C 25 %
1830 01-12-2019 17:00:18 2.2 C 25 %
1831 01-12-2019 17:10:18 2.2 C 25 %
1832 01-12-2019 17:20:17 2.3 C 25 %
1833 01-12-2019 17:30:17 2.3 C 25 %
1834 01-12-2019 17:40:17 2.3 C 25 %
1835 01-12-2019 17:50:17 2.3 C 25 %
1836 01-12-2019 18:00:17 2.3 C 25 %
1837 01-12-2019 18:10:17 2.3 C 25 %
1838 01-12-2019 18:20:17 2.3 C 25 %
1839 01-12-2019 18:30:17 2.3 C 25 %
1840 01-12-2019 18:40:17 2.3 C 25 %
1841 01-12-2019 18:50:17 2.3 C 23 %
1842 01-12-2019 19:00:17 2.3 C 23 %
1843 01-12-2019 19:10:18 2.4 C 25 %
1844 01-12-2019 19:20:17 2.3 C 25 %
1845 01-12-2019 19:30:17 2.3 C 25 %
1846 01-12-2019 19:40:17 2.3 C 25 %
1847 01-12-2019 19:50:17 2.2 C 26 %
1848 01-12-2019 20:00:17 2.5 C 25 %
1849 01-12-2019 20:10:17 2.2 C 25 %
1850 01-12-2019 20:20:17 2.1 C 25 %
Sensor: Nr:Datum:Temp:Feuchte:
Aussen-T/F 1851 01-12-2019 20:30:18 2.1 C 25 %
1852 01-12-2019 20:40:18 2.1 C 25 %
1853 01-12-2019 20:50:17 2 C 27 %
1854 01-12-2019 21:00:17 1.9 C 27 %
1855 01-12-2019 21:10:17 1.8 C 28 %
1856 01-12-2019 21:20:17 1.6 C 30 %
1857 01-12-2019 21:30:18 1.5 C 29 %
1858 01-12-2019 21:40:18 1.6 C 28 %
1859 01-12-2019 21:50:17 1.6 C 28 %
1860 01-12-2019 22:00:17 1.5 C 29 %
1861 01-12-2019 22:10:17 1.4 C 29 %
1862 01-12-2019 22:20:17 1.4 C 30 %
1863 01-12-2019 22:30:18 1.3 C 28 %
1864 01-12-2019 22:40:18 1.2 C 29 %
1865 01-12-2019 22:50:17 1.1 C 29 %
1866 01-12-2019 23:00:17 0.8 C 30 %
1867 01-12-2019 23:10:17 0.8 C 30 %
1868 01-12-2019 23:20:18 0.7 C 30 %
1869 01-12-2019 23:30:17 0.5 C 32 %
1870 01-12-2019 23:40:17 0.3 C 33 %
1871 01-12-2019 23:50:17 0.2 C 33 %
1872 02-12-2019 00:00:17 0.1 C 33 %
1873 02-12-2019 00:10:17 0.2 C 33 %
1874 02-12-2019 00:20:17 0.3 C 32 %
1875 02-12-2019 00:30:17 0.3 C 32 %
Sensor: Nr:Datum:Temp:Feuchte:
Aussen-T/F 1876 02-12-2019 00:40:17 0.2 C 32 %
1877 02-12-2019 00:50:18 0.2 C 35 %
1878 02-12-2019 01:00:17 0.1 C 36 %
1879 02-12-2019 01:10:17 0 C 38 %
1880 02-12-2019 01:20:17 -0.2 C 36 %
1881 02-12-2019 01:30:17 0.2 C 34 %
1882 02-12-2019 01:40:17 -0.2 C 35 %
1883 02-12-2019 01:50:17 -0.9 C 35 %
1884 02-12-2019 02:00:18 -0.9 C 37 %
1885 02-12-2019 02:10:18 -0.9 C 37 %
1886 02-12-2019 02:20:17 -0.5 C 37 %
1887 02-12-2019 02:30:17 -1 C 36 %
1888 02-12-2019 02:40:17 -1.1 C 37 %
1889 02-12-2019 02:50:17 -1.1 C 36 %
1890 02-12-2019 03:00:17 -1 C 37 %
1891 02-12-2019 03:10:17 -1.2 C 38 %
1892 02-12-2019 03:20:17 -1.3 C 37 %
1893 02-12-2019 03:30:18 -1.3 C 38 %
1894 02-12-2019 03:40:18 -1.4 C 37 %
1895 02-12-2019 03:50:17 -1.4 C 37 %
1896 02-12-2019 04:00:18 -1.7 C 39 %
1897 02-12-2019 04:10:18 -1.4 C 40 %
1898 02-12-2019 04:20:17 -1.1 C 40 %
1899 02-12-2019 04:30:17 -1 C 40 %
1900 02-12-2019 04:40:17 -0.8 C 36 %
Sensor: Nr:Datum:Temp:Feuchte:
Aussen-T/F 1901 02-12-2019 04:50:17 -1.1 C 37 %
1902 02-12-2019 05:00:17 -1.4 C 40 %
1903 02-12-2019 05:10:17 -1.1 C 40 %
1904 02-12-2019 05:20:17 -1.2 C 39 %
1905 02-12-2019 05:30:17 -1.6 C 40 %
1906 02-12-2019 05:40:17 -1.4 C 41 %
1907 02-12-2019 05:50:17 -1.3 C 42 %
1908 02-12-2019 06:00:17 -1.2 C 41 %
1909 02-12-2019 06:10:17 -1.3 C 39 %
1910 02-12-2019 06:20:17 -1.2 C 39 %
1911 02-12-2019 06:30:17 -1.4 C 38 %
1912 02-12-2019 06:40:17 -1.4 C 40 %
1913 02-12-2019 06:50:17 -1.8 C 37 %
1914 02-12-2019 07:00:17 -2.4 C 38 %
1915 02-12-2019 07:10:17 -2.6 C 40 %
1916 02-12-2019 07:20:17 -2.9 C 40 %
1917 02-12-2019 07:30:17 -2.7 C 42 %
1918 02-12-2019 07:40:17 -2.6 C 42 %
1919 02-12-2019 07:50:17 -2.4 C 43 %
1920 02-12-2019 08:00:17 -1.9 C 45 %
1921 02-12-2019 08:10:18 -1.6 C 44 %
1922 02-12-2019 08:20:17 -1.3 C 44 %
1923 02-12-2019 08:30:17 -1 C 43 %
1924 02-12-2019 08:40:17 -0.7 C 43 %
1925 02-12-2019 08:50:17 -0.5 C 42 %
Sensor: Nr:Datum:Temp:Feuchte:
Aussen-T/F 1926 02-12-2019 09:00:17 -0.5 C 40 %
1927 02-12-2019 09:10:17 -0.4 C 38 %
1928 02-12-2019 09:20:17 -0.4 C 36 %
1929 02-12-2019 09:30:17 -0.4 C 36 %
1930 02-12-2019 09:40:17 0 C 36 %
1931 02-12-2019 09:50:17 0 C 35 %
1932 02-12-2019 10:00:17 0.1 C 35 %
1933 02-12-2019 10:10:17 0.1 C 34 %
1934 02-12-2019 10:20:17 0.2 C 35 %
1935 02-12-2019 10:30:17 0.5 C 36 %
1936 02-12-2019 10:40:17 1 C 31 %
1937 02-12-2019 10:50:17 0.8 C 31 %
1938 02-12-2019 11:00:17 1.2 C 30 %
1939 02-12-2019 11:10:17 1.1 C 30 %
1940 02-12-2019 11:20:17 1.2 C 30 %
1941 02-12-2019 11:30:17 0.9 C 31 %
1942 02-12-2019 11:40:18 1 C 31 %
1943 02-12-2019 11:50:17 0.8 C 32 %
1944 02-12-2019 12:00:18 1.6 C 31 %
1945 02-12-2019 12:10:18 2.3 C 27 %
1946 02-12-2019 12:20:17 2.8 C 25 %
1947 02-12-2019 12:30:17 3.1 C 26 %
1948 02-12-2019 12:40:17 3 C 25 %
1949 02-12-2019 12:50:18 3.2 C 26 %
1950 02-12-2019 13:00:17 3.2 C 26 %
Sensor: Nr:Datum:Temp:Feuchte:
Aussen-T/F 1951 02-12-2019 13:10:17 3.5 C 25 %
1952 02-12-2019 13:20:17 3.9 C 25 %
1953 02-12-2019 13:30:17 3.9 C 25 %
1954 02-12-2019 13:40:17 3.8 C 25 %
1955 02-12-2019 13:50:17 3.6 C 25 %
1956 02-12-2019 14:00:17 4 C 26 %
1957 02-12-2019 14:10:17 3.7 C 28 %
1958 02-12-2019 14:20:17 3.7 C 30 %
1959 02-12-2019 14:30:17 4.1 C 27 %
1960 02-12-2019 14:40:17 4.3 C 27 %
1961 02-12-2019 14:50:17 4.5 C 27 %
1962 02-12-2019 15:00:18 4.3 C 28 %
1963 02-12-2019 15:10:18 4.3 C 29 %
1964 02-12-2019 15:20:17 4.7 C 27 %
1965 02-12-2019 15:30:17 4.4 C 27 %
1966 02-12-2019 15:40:17 4.1 C 31 %
1967 02-12-2019 15:50:17 3.9 C 36 %
1968 02-12-2019 16:00:18 3.7 C 37 %
1969 02-12-2019 16:10:18 3.6 C 37 %
1970 02-12-2019 16:20:17 3.5 C 40 %
1971 02-12-2019 16:30:17 3.5 C 38 %
1972 02-12-2019 16:40:17 3.5 C 35 %
1973 02-12-2019 16:50:17 3.5 C 35 %
1974 02-12-2019 17:00:17 3.3 C 36 %
1975 02-12-2019 17:10:17 3.2 C 39 %
Sensor: Nr:Datum:Temp:Feuchte:
Aussen-T/F 1976 02-12-2019 17:20:17 3.2 C 36 %
1977 02-12-2019 17:30:18 3.3 C 36 %
1978 02-12-2019 17:40:18 3.4 C 35 %
1979 02-12-2019 17:50:17 3.3 C 35 %
1980 02-12-2019 18:01:17 3.1 C 36 %
1981 02-12-2019 18:11:17 3.2 C 37 %
1982 02-12-2019 18:21:17 3.2 C 36 %
1983 02-12-2019 18:30:17 3 C 36 %
1984 02-12-2019 18:40:17 2.5 C 40 %
1985 02-12-2019 18:50:17 2.2 C 40 %
1986 02-12-2019 19:00:17 2.1 C 42 %
1987 02-12-2019 19:10:17 2.7 C 43 %
1988 02-12-2019 19:21:17 2.7 C 42 %
1989 02-12-2019 19:30:17 2.7 C 41 %
1990 02-12-2019 19:40:17 2.9 C 42 %
1991 02-12-2019 19:51:17 2.9 C 42 %
1992 02-12-2019 20:01:17 2.9 C 39 %
1993 02-12-2019 20:11:17 2.8 C 38 %
1994 02-12-2019 20:21:17 2.9 C 37 %
1995 02-12-2019 20:31:17 2.9 C 38 %
1996 02-12-2019 20:40:17 2.8 C 40 %
1997 02-12-2019 20:51:17 2.7 C 42 %
1998 02-12-2019 21:00:17 2.7 C 42 %
1999 02-12-2019 21:10:17 2.7 C 42 %
2000 02-12-2019 21:21:17 2.7 C 42 %
Sensor: Nr:Datum:Temp:Feuchte:
Aussen-T/F 2001 02-12-2019 21:30:18 2.7 C 42 %
2002 02-12-2019 21:40:18 2.6 C 41 %
2003 02-12-2019 21:51:17 2.6 C 42 %
2004 02-12-2019 22:01:17 2.6 C 41 %
2005 02-12-2019 22:11:17 2.6 C 41 %
2006 02-12-2019 22:21:17 2.6 C 41 %
2007 02-12-2019 22:30:18 2.5 C 40 %
2008 02-12-2019 22:40:18 2.5 C 41 %
2009 02-12-2019 22:51:17 2.4 C 41 %
2010 02-12-2019 23:01:17 2.5 C 41 %
2011 02-12-2019 23:11:17 2.4 C 42 %
2012 02-12-2019 23:21:17 2.5 C 42 %
2013 02-12-2019 23:31:17 2.5 C 42 %
2014 02-12-2019 23:41:17 2.5 C 42 %
2015 02-12-2019 23:50:18 2.5 C 42 %
2016 03-12-2019 00:01:17 2.5 C 42 %
2017 03-12-2019 00:11:17 2.5 C 42 %
2018 03-12-2019 00:21:17 2.5 C 41 %
2019 03-12-2019 00:30:18 2.5 C 41 %
2020 03-12-2019 00:40:18 2.6 C 41 %
2021 03-12-2019 00:51:17 2.6 C 41 %
2022 03-12-2019 01:01:18 2.6 C 41 %
2023 03-12-2019 01:11:18 2.6 C 41 %
2024 03-12-2019 01:21:17 2.7 C 41 %
2025 03-12-2019 01:31:17 2.7 C 41 %
Sensor: Nr:Datum:Temp:Feuchte:
Aussen-T/F 2026 03-12-2019 01:41:17 2.7 C 42 %
2027 03-12-2019 01:51:17 2.7 C 42 %
2028 03-12-2019 02:01:17 2.7 C 42 %
2029 03-12-2019 02:11:17 2.8 C 42 %
2030 03-12-2019 02:21:17 2.8 C 42 %
2031 03-12-2019 02:31:17 2.8 C 42 %
2032 03-12-2019 02:41:17 2.9 C 42 %
2033 03-12-2019 02:51:17 2.8 C 42 %
2034 03-12-2019 03:01:17 2.8 C 42 %
2035 03-12-2019 03:11:17 2.8 C 42 %
2036 03-12-2019 03:21:17 2.8 C 42 %
2037 03-12-2019 03:31:17 2.9 C 42 %
2038 03-12-2019 03:41:17 3 C 42 %
2039 03-12-2019 03:51:17 3 C 42 %
2040 03-12-2019 04:01:17 3 C 42 %
2041 03-12-2019 04:11:17 3 C 42 %
2042 03-12-2019 04:21:17 3 C 42 %
2043 03-12-2019 04:31:17 3.1 C 42 %
2044 03-12-2019 04:41:17 3.1 C 42 %
2045 03-12-2019 04:51:17 3.1 C 42 %
2046 03-12-2019 05:01:17 3.1 C 42 %
2047 03-12-2019 05:11:17 3.1 C 42 %
2048 03-12-2019 05:21:17 3.1 C 42 %
2049 03-12-2019 05:31:17 3.2 C 42 %
2050 03-12-2019 05:41:17 3.2 C 41 %
Sensor: Nr:Datum:Temp:Feuchte:
Aussen-T/F 2051 03-12-2019 05:51:17 3.2 C 41 %
2052 03-12-2019 06:01:18 3.2 C 41 %
2053 03-12-2019 06:11:18 3.2 C 41 %
2054 03-12-2019 06:21:17 3.2 C 41 %
2055 03-12-2019 06:31:17 3.3 C 41 %
2056 03-12-2019 06:41:17 3.3 C 41 %
2057 03-12-2019 06:51:18 3.3 C 41 %
2058 03-12-2019 07:01:17 3.3 C 41 %
2059 03-12-2019 07:11:17 3.3 C 41 %
2060 03-12-2019 07:21:17 3.3 C 41 %
2061 03-12-2019 07:31:17 3.2 C 41 %
2062 03-12-2019 07:41:17 3.3 C 41 %
2063 03-12-2019 07:51:17 3.3 C 42 %
2064 03-12-2019 08:01:17 3.3 C 42 %
2065 03-12-2019 08:11:17 3.4 C 42 %
2066 03-12-2019 08:21:17 3.3 C 42 %
2067 03-12-2019 08:31:17 3.4 C 42 %
2068 03-12-2019 08:41:17 3.4 C 41 %
2069 03-12-2019 08:51:17 3.4 C 41 %
2070 03-12-2019 09:01:17 3.5 C 42 %
2071 03-12-2019 09:11:17 3.5 C 42 %
2072 03-12-2019 09:21:17 3.5 C 41 %
2073 03-12-2019 09:31:17 3.6 C 41 %
2074 03-12-2019 09:41:17 3.6 C 41 %
2075 03-12-2019 09:51:17 3.7 C 41 %
Sensor: Nr:Datum:Temp:Feuchte:
Aussen-T/F 2076 03-12-2019 10:01:17 3.7 C 41 %
2077 03-12-2019 10:11:17 3.8 C 41 %
2078 03-12-2019 10:21:17 3.8 C 41 %
2079 03-12-2019 10:31:17 3.8 C 41 %
2080 03-12-2019 10:41:17 4.1 C 40 %
2081 03-12-2019 10:51:17 4.1 C 40 %
2082 03-12-2019 11:01:18 4.3 C 39 %
2083 03-12-2019 11:11:18 4.3 C 37 %
2084 03-12-2019 11:21:17 4.4 C 37 %
2085 03-12-2019 11:31:17 4.6 C 37 %
2086 03-12-2019 11:41:17 4.6 C 37 %
2087 03-12-2019 11:51:17 4.7 C 37 %
2088 03-12-2019 12:01:17 4.7 C 37 %
2089 03-12-2019 12:11:17 4.9 C 35 %
2090 03-12-2019 12:21:17 5 C 34 %
2091 03-12-2019 12:31:17 5 C 35 %
2092 03-12-2019 12:41:17 5.2 C 35 %
2093 03-12-2019 12:51:18 5.3 C 34 %
2094 03-12-2019 13:01:17 5.6 C 34 %
2095 03-12-2019 13:11:17 5.8 C 33 %
2096 03-12-2019 13:21:17 5.8 C 32 %
2097 03-12-2019 13:31:17 5.7 C 32 %
2098 03-12-2019 13:41:17 5.9 C 32 %
2099 03-12-2019 13:51:18 6.1 C 31 %
2100 03-12-2019 14:01:17 6.1 C 31 %
Sensor: Nr:Datum:Temp:Feuchte:
Aussen-T/F 2101 03-12-2019 14:11:17 6.2 C 31 %
2102 03-12-2019 14:21:17 6.1 C 31 %
2103 03-12-2019 14:31:17 6.3 C 31 %
2104 03-12-2019 14:41:17 6.2 C 30 %
2105 03-12-2019 14:51:18 6.4 C 31 %
2106 03-12-2019 15:01:17 6.2 C 30 %
2107 03-12-2019 15:11:17 6.3 C 31 %
2108 03-12-2019 15:21:17 6.3 C 31 %
2109 03-12-2019 15:31:17 6.2 C 31 %
2110 03-12-2019 15:41:17 6.1 C 32 %
2111 03-12-2019 15:51:17 6 C 33 %
2112 03-12-2019 16:01:17 5.7 C 36 %
2113 03-12-2019 16:11:17 5.6 C 39 %
2114 03-12-2019 16:21:17 5.4 C 40 %
2115 03-12-2019 16:31:18 5.3 C 41 %
2116 03-12-2019 16:41:18 5.2 C 41 %
2117 03-12-2019 16:51:17 5.2 C 41 %
2118 03-12-2019 17:01:18 5.1 C 41 %
2119 03-12-2019 17:11:18 5.1 C 41 %
2120 03-12-2019 17:21:17 5.1 C 41 %
2121 03-12-2019 17:31:17 5 C 41 %
2122 03-12-2019 17:41:17 5 C 41 %
2123 03-12-2019 17:51:17 5 C 41 %
2124 03-12-2019 18:01:18 4.8 C 41 %
2125 03-12-2019 18:11:18 4.7 C 40 %
Sensor: Nr:Datum:Temp:Feuchte:
Aussen-T/F 2126 03-12-2019 18:21:17 4.7 C 40 %
2127 03-12-2019 18:31:18 4.7 C 40 %
2128 03-12-2019 18:41:18 4.7 C 40 %
2129 03-12-2019 18:51:17 4.7 C 40 %
2130 03-12-2019 19:01:17 4.7 C 40 %
2131 03-12-2019 19:11:17 4.6 C 39 %
2132 03-12-2019 19:21:17 4.6 C 38 %
2133 03-12-2019 19:31:17 4.6 C 38 %
2134 03-12-2019 19:41:17 4.4 C 37 %
2135 03-12-2019 19:51:17 4.3 C 38 %
2136 03-12-2019 20:01:17 4.3 C 39 %
2137 03-12-2019 20:11:17 4.3 C 38 %
2138 03-12-2019 20:21:18 4.2 C 37 %
2139 03-12-2019 20:31:17 4.2 C 38 %
2140 03-12-2019 20:41:18 4.1 C 39 %
2141 03-12-2019 20:51:17 3.9 C 40 %
2142 03-12-2019 21:01:17 3.9 C 41 %
2143 03-12-2019 21:11:17 4 C 40 %
2144 03-12-2019 21:21:17 4 C 40 %
2145 03-12-2019 21:31:17 3.8 C 40 %
2146 03-12-2019 21:41:17 3.5 C 40 %
2147 03-12-2019 21:51:17 3.3 C 40 %
2148 03-12-2019 22:01:17 2.9 C 41 %
2149 03-12-2019 22:11:17 2.8 C 42 %
2150 03-12-2019 22:21:18 2.8 C 42 %
Sensor: Nr:Datum:Temp:Feuchte:
Aussen-T/F 2151 03-12-2019 22:31:18 3.3 C 42 %
2152 03-12-2019 22:41:18 3.5 C 40 %
2153 03-12-2019 22:51:17 3.2 C 38 %
2154 03-12-2019 23:01:18 2.6 C 39 %
2155 03-12-2019 23:11:18 2.5 C 41 %
2156 03-12-2019 23:21:17 2.5 C 41 %
2157 03-12-2019 23:31:17 2.2 C 40 %
2158 03-12-2019 23:41:17 2.8 C 40 %
2159 03-12-2019 23:51:17 2.6 C 38 %
2160 04-12-2019 00:01:18 2.3 C 39 %
2161 04-12-2019 00:11:18 1.7 C 41 %
2162 04-12-2019 00:21:17 1.3 C 42 %
2163 04-12-2019 00:31:17 0.9 C 43 %
2164 04-12-2019 00:41:17 0.4 C 43 %
2165 04-12-2019 00:51:17 0.6 C 45 %
2166 04-12-2019 01:01:18 0.2 C 44 %
2167 04-12-2019 01:11:18 0.2 C 45 %
2168 04-12-2019 01:21:17 0 C 44 %
2169 04-12-2019 01:31:17 -0.1 C 45 %
2170 04-12-2019 01:41:17 0.1 C 45 %
2171 04-12-2019 01:51:18 -0.3 C 45 %
2172 04-12-2019 02:01:17 -0.3 C 45 %
2173 04-12-2019 02:11:17 -0.2 C 45 %
2174 04-12-2019 02:21:17 -0.5 C 45 %
2175 04-12-2019 02:31:18 -0.4 C 45 %
Sensor: Nr:Datum:Temp:Feuchte:
Aussen-T/F 2176 04-12-2019 02:41:18 0.1 C 45 %
2177 04-12-2019 02:51:17 0.3 C 45 %
2178 04-12-2019 03:01:18 0.6 C 45 %
2179 04-12-2019 03:11:18 0.9 C 45 %
2180 04-12-2019 03:21:17 0.9 C 45 %
2181 04-12-2019 03:31:17 1 C 44 %
2182 04-12-2019 03:41:17 1 C 44 %
2183 04-12-2019 03:51:17 1 C 44 %
2184 04-12-2019 04:01:18 0.8 C 45 %
2185 04-12-2019 04:11:18 0.9 C 45 %
2186 04-12-2019 04:21:17 0.8 C 45 %
2187 04-12-2019 04:31:17 0.8 C 45 %
2188 04-12-2019 04:41:17 0.8 C 45 %
2189 04-12-2019 04:51:17 0.8 C 45 %
2190 04-12-2019 05:01:17 0.8 C 45 %
2191 04-12-2019 05:11:17 0.8 C 44 %
2192 04-12-2019 05:21:17 0.8 C 44 %
2193 04-12-2019 05:31:17 1 C 43 %
2194 04-12-2019 05:41:17 1 C 43 %
2195 04-12-2019 05:51:18 1 C 43 %
2196 04-12-2019 06:01:17 1 C 43 %
2197 04-12-2019 06:11:17 1.1 C 43 %
2198 04-12-2019 06:21:17 1.2 C 43 %
2199 04-12-2019 06:31:17 1.2 C 43 %
2200 04-12-2019 06:41:18 1.2 C 43 %
Sensor: Nr:Datum:Temp:Feuchte:
Aussen-T/F 2201 04-12-2019 06:51:17 1.2 C 43 %
2202 04-12-2019 07:01:17 1.1 C 43 %
2203 04-12-2019 07:11:17 1.1 C 43 %
2204 04-12-2019 07:21:18 1.1 C 43 %
2205 04-12-2019 07:31:17 1 C 43 %
2206 04-12-2019 07:41:17 0.9 C 44 %
2207 04-12-2019 07:51:17 1 C 43 %
2208 04-12-2019 08:01:17 0.9 C 44 %
2209 04-12-2019 08:11:17 0.9 C 44 %
2210 04-12-2019 08:21:17 0.9 C 44 %
2211 04-12-2019 08:31:17 0.9 C 44 %
2212 04-12-2019 08:41:17 1 C 42 %
2213 04-12-2019 08:51:17 1 C 42 %
2214 04-12-2019 09:01:18 1 C 42 %
2215 04-12-2019 09:11:18 1.2 C 42 %
2216 04-12-2019 09:21:18 1.2 C 42 %
2217 04-12-2019 09:31:17 1.2 C 41 %
2218 04-12-2019 09:41:17 1.2 C 41 %
2219 04-12-2019 09:51:17 1.4 C 41 %
2220 04-12-2019 10:01:17 1.5 C 41 %
2221 04-12-2019 10:11:18 1.4 C 39 %
2222 04-12-2019 10:21:17 1.3 C 38 %
2223 04-12-2019 10:31:17 1.1 C 37 %
2224 04-12-2019 10:41:17 1.1 C 37 %
2225 04-12-2019 10:51:18 1 C 38 %
Sensor: Nr:Datum:Temp:Feuchte:
Aussen-T/F 2226 04-12-2019 11:01:17 1 C 38 %
2227 04-12-2019 11:11:17 1.1 C 39 %
2228 04-12-2019 11:21:17 1.1 C 39 %
2229 04-12-2019 11:31:18 1.1 C 40 %
2230 04-12-2019 11:41:18 1 C 40 %
2231 04-12-2019 11:51:17 1.1 C 41 %
2232 04-12-2019 12:01:17 1.2 C 41 %
2233 04-12-2019 12:11:17 1.3 C 41 %
2234 04-12-2019 12:21:18 1.3 C 41 %
2235 04-12-2019 12:31:17 1.5 C 41 %
2236 04-12-2019 12:41:17 1.5 C 41 %
2237 04-12-2019 12:51:17 1.6 C 41 %
2238 04-12-2019 13:01:17 1.6 C 41 %
2239 04-12-2019 13:11:17 1.7 C 41 %
2240 04-12-2019 13:21:17 1.8 C 40 %
2241 04-12-2019 13:31:18 1.8 C 40 %
2242 04-12-2019 13:41:18 2.1 C 38 %
2243 04-12-2019 13:51:17 2.1 C 37 %
2244 04-12-2019 14:01:17 2.1 C 37 %
2245 04-12-2019 14:11:17 2.1 C 36 %
2246 04-12-2019 14:21:17 2.1 C 36 %
2247 04-12-2019 14:31:18 2 C 36 %
2248 04-12-2019 14:41:18 2.2 C 35 %
2249 04-12-2019 14:51:17 2.1 C 36 %
2250 04-12-2019 15:01:18 2 C 37 %
Sensor: Nr:Datum:Temp:Feuchte:
Aussen-T/F 2251 04-12-2019 15:11:18 1.7 C 38 %
2252 04-12-2019 15:21:17 1.7 C 40 %
2253 04-12-2019 15:31:17 1.7 C 40 %
2254 04-12-2019 15:41:17 1.8 C 39 %
2255 04-12-2019 15:51:18 1.8 C 39 %
2256 04-12-2019 16:01:17 1.6 C 37 %
2257 04-12-2019 16:11:17 1.5 C 37 %
2258 04-12-2019 16:21:17 1.4 C 37 %
2259 04-12-2019 16:31:17 1.4 C 37 %
2260 04-12-2019 16:41:17 1.2 C 37 %
2261 04-12-2019 16:51:17 1.1 C 36 %
2262 04-12-2019 17:01:17 1 C 37 %
2263 04-12-2019 17:11:17 1 C 37 %
2264 04-12-2019 17:21:18 1 C 36 %
2265 04-12-2019 17:31:17 0.9 C 38 %
2266 04-12-2019 17:41:17 0.6 C 38 %
2267 04-12-2019 17:51:18 0.7 C 39 %
2268 04-12-2019 18:01:17 0.8 C 38 %
2269 04-12-2019 18:11:17 0.3 C 39 %
2270 04-12-2019 18:21:17 0.4 C 40 %
2271 04-12-2019 18:31:17 0.6 C 40 %
2272 04-12-2019 18:41:17 -0.2 C 40 %
2273 04-12-2019 18:51:17 -0.5 C 41 %
2274 04-12-2019 19:01:17 -0.3 C 44 %
2275 04-12-2019 19:11:17 -0.7 C 42 %
Sensor: Nr:Datum:Temp:Feuchte:
Aussen-T/F 2276 04-12-2019 19:21:17 -1.1 C 42 %
2277 04-12-2019 19:31:17 -1 C 44 %
2278 04-12-2019 19:41:17 -1.2 C 44 %
2279 04-12-2019 19:51:17 -1.4 C 43 %
2280 04-12-2019 20:01:17 -1.3 C 44 %
2281 04-12-2019 20:11:17 -1.1 C 45 %
2282 04-12-2019 20:21:17 -1.5 C 44 %
2283 04-12-2019 20:31:17 -1.5 C 44 %
2284 04-12-2019 20:41:17 -1.8 C 43 %
2285 04-12-2019 20:51:18 -1.9 C 44 %
2286 04-12-2019 21:01:18 -1.9 C 44 %
2287 04-12-2019 21:11:18 -1.7 C 44 %
2288 04-12-2019 21:21:17 -2 C 43 %
2289 04-12-2019 21:31:17 -2 C 43 %
2290 04-12-2019 21:41:17 -2.4 C 43 %
2291 04-12-2019 21:51:17 -2.4 C 43 %
2292 04-12-2019 22:01:17 -2.5 C 43 %
2293 04-12-2019 22:11:17 -2.6 C 43 %
2294 04-12-2019 22:21:17 -2.7 C 44 %
2295 04-12-2019 22:31:18 -2.8 C 43 %
2296 04-12-2019 22:41:18 -2.7 C 43 %
2297 04-12-2019 22:51:17 -2.5 C 43 %
2298 04-12-2019 23:01:17 -2.6 C 42 %
2299 04-12-2019 23:11:17 -2.9 C 42 %
2300 04-12-2019 23:21:17 -2.7 C 42 %
Sensor: Nr:Datum:Temp:Feuchte:
Aussen-T/F 2301 04-12-2019 23:31:17 -2.7 C 42 %
2302 04-12-2019 23:41:17 -2.9 C 41 %
2303 04-12-2019 23:51:18 -2.9 C 42 %
2304 05-12-2019 00:01:17 -3 C 41 %
2305 05-12-2019 00:11:17 -3 C 41 %
2306 05-12-2019 00:21:17 -3.1 C 41 %
2307 05-12-2019 00:31:18 -2.8 C 41 %
2308 05-12-2019 00:41:18 -2.8 C 41 %
2309 05-12-2019 00:51:17 -2.9 C 41 %
2310 05-12-2019 01:01:17 -2.9 C 41 %
2311 05-12-2019 01:11:17 -3.2 C 41 %
2312 05-12-2019 01:21:17 -2.5 C 43 %
2313 05-12-2019 01:31:18 -2.6 C 43 %
2314 05-12-2019 01:41:18 -2.7 C 43 %
2315 05-12-2019 01:51:17 -2.6 C 43 %
2316 05-12-2019 02:01:17 -2.6 C 42 %
2317 05-12-2019 02:11:18 -2.8 C 41 %
2318 05-12-2019 02:21:17 -3 C 41 %
2319 05-12-2019 02:31:17 -3.2 C 41 %
2320 05-12-2019 02:41:17 -3.2 C 41 %
2321 05-12-2019 02:51:17 -3.2 C 41 %
2322 05-12-2019 03:01:17 -3.4 C 40 %
2323 05-12-2019 03:11:17 -3.5 C 40 %
2324 05-12-2019 03:21:17 -3.3 C 41 %
2325 05-12-2019 03:31:17 -3.2 C 41 %
Sensor: Nr:Datum:Temp:Feuchte:
Aussen-T/F 2326 05-12-2019 03:41:17 -3.6 C 40 %
2327 05-12-2019 03:51:17 -3 C 43 %
2328 05-12-2019 04:01:17 -2.7 C 43 %
2329 05-12-2019 04:11:17 -2.7 C 43 %
2330 05-12-2019 04:21:17 -2.7 C 43 %
2331 05-12-2019 04:31:18 -2.9 C 42 %
2332 05-12-2019 04:41:18 -3.3 C 40 %
2333 05-12-2019 04:51:17 -2.9 C 42 %
2334 05-12-2019 05:01:17 -2.8 C 43 %
2335 05-12-2019 05:11:17 -2.8 C 42 %
2336 05-12-2019 05:21:17 -2.7 C 43 %
2337 05-12-2019 05:31:17 -2.7 C 43 %
2338 05-12-2019 05:41:18 -2.5 C 43 %
2339 05-12-2019 05:51:17 -2.5 C 43 %
2340 05-12-2019 06:01:17 -2.6 C 43 %
2341 05-12-2019 06:11:17 -2.7 C 43 %
2342 05-12-2019 06:21:17 -2.9 C 43 %
2343 05-12-2019 06:31:17 -2.9 C 43 %
2344 05-12-2019 06:41:17 -3 C 42 %
2345 05-12-2019 06:51:17 -2.9 C 43 %
2346 05-12-2019 07:01:17 -2.9 C 42 %
2347 05-12-2019 07:11:17 -2.9 C 42 %
2348 05-12-2019 07:21:17 -3.2 C 42 %
2349 05-12-2019 07:31:17 -3.1 C 42 %
2350 05-12-2019 07:41:18 -2.9 C 42 %
Sensor: Nr:Datum:Temp:Feuchte:
Aussen-T/F 2351 05-12-2019 07:51:17 -2.9 C 42 %
2352 05-12-2019 08:01:17 -3 C 42 %
2353 05-12-2019 08:11:17 -2.8 C 43 %
2354 05-12-2019 08:21:18 -2.9 C 42 %
2355 05-12-2019 08:31:17 -2.8 C 42 %
2356 05-12-2019 08:41:17 -3 C 42 %
2357 05-12-2019 08:51:17 -3 C 42 %
2358 05-12-2019 09:01:18 -2.7 C 43 %
2359 05-12-2019 09:11:18 -2.6 C 43 %
2360 05-12-2019 09:21:17 -2.6 C 42 %
2361 05-12-2019 09:31:17 -2.6 C 42 %
2362 05-12-2019 09:41:17 -2.5 C 43 %
2363 05-12-2019 09:51:17 -2.4 C 42 %
2364 05-12-2019 10:01:18 -2.3 C 42 %
2365 05-12-2019 10:11:18 -2.4 C 42 %
2366 05-12-2019 10:21:17 -2.1 C 43 %
2367 05-12-2019 10:31:17 -1.7 C 43 %
2368 05-12-2019 10:41:17 -2 C 42 %
2369 05-12-2019 10:51:18 -1.7 C 42 %
2370 05-12-2019 11:01:17 -1.7 C 43 %
2371 05-12-2019 11:11:17 -1.4 C 42 %
2372 05-12-2019 11:21:17 -1.2 C 41 %
2373 05-12-2019 11:31:18 -1.2 C 41 %
2374 05-12-2019 11:41:18 -0.7 C 42 %
2375 05-12-2019 11:51:17 -0.9 C 42 %
Sensor: Nr:Datum:Temp:Feuchte:
Aussen-T/F 2376 05-12-2019 12:01:18 -1 C 41 %
2377 05-12-2019 12:11:18 -0.8 C 41 %
2378 05-12-2019 12:21:17 -0.6 C 41 %
2379 05-12-2019 12:31:17 -0.8 C 40 %
2380 05-12-2019 12:41:17 -0.9 C 40 %
2381 05-12-2019 12:51:18 -0.6 C 41 %
2382 05-12-2019 13:01:17 -0.5 C 40 %
2383 05-12-2019 13:11:17 -0.6 C 40 %
2384 05-12-2019 13:21:17 -0.4 C 41 %
2385 05-12-2019 13:31:17 -0.4 C 41 %
2386 05-12-2019 13:41:17 -0.2 C 41 %
2387 05-12-2019 13:51:17 0.1 C 40 %
2388 05-12-2019 14:01:18 0.1 C 40 %
2389 05-12-2019 14:11:18 0.2 C 40 %
2390 05-12-2019 14:21:17 0.2 C 40 %
2391 05-12-2019 14:31:17 0.2 C 40 %
2392 05-12-2019 14:41:17 0.2 C 40 %
2393 05-12-2019 14:51:17 0.2 C 41 %
2394 05-12-2019 15:01:17 0.1 C 41 %
2395 05-12-2019 15:11:17 0 C 41 %
2396 05-12-2019 15:21:17 -0.1 C 42 %
2397 05-12-2019 15:31:17 -0.1 C 43 %
2398 05-12-2019 15:41:17 -0.1 C 44 %
2399 05-12-2019 15:51:18 -0.1 C 44 %
2400 05-12-2019 16:01:17 -0.4 C 44 %
Sensor: Nr:Datum:Temp:Feuchte:
Aussen-T/F 2401 05-12-2019 16:11:17 -0.5 C 44 %
2402 05-12-2019 16:21:17 -0.7 C 45 %
2403 05-12-2019 16:31:18 -0.8 C 44 %
2404 05-12-2019 16:41:18 -1 C 44 %
2405 05-12-2019 16:51:17 -1 C 44 %
2406 05-12-2019 17:01:17 -1.2 C 44 %
2407 05-12-2019 17:11:17 -1.1 C 45 %
2408 05-12-2019 17:21:18 -1.2 C 45 %
2409 05-12-2019 17:31:17 -1.3 C 44 %
2410 05-12-2019 17:41:17 -1.7 C 44 %
2411 05-12-2019 17:51:17 -1.6 C 44 %
2412 05-12-2019 18:01:18 -1.8 C 43 %
2413 05-12-2019 18:11:18 -2 C 43 %
2414 05-12-2019 18:21:17 -2 C 43 %
2415 05-12-2019 18:31:17 -2 C 43 %
2416 05-12-2019 18:41:17 -2.2 C 43 %
2417 05-12-2019 18:51:18 -2.5 C 42 %
2418 05-12-2019 19:01:17 -2.1 C 43 %
2419 05-12-2019 19:11:17 -2.1 C 44 %
2420 05-12-2019 19:21:17 -2.6 C 42 %
2421 05-12-2019 19:31:17 -2.9 C 41 %
2422 05-12-2019 19:41:17 -2.6 C 42 %
2423 05-12-2019 19:51:18 -1.9 C 43 %
2424 05-12-2019 20:01:17 -1.5 C 44 %
2425 05-12-2019 20:11:17 -1.6 C 43 %
Sensor: Nr:Datum:Temp:Feuchte:
Aussen-T/F 2426 05-12-2019 20:21:17 -1.5 C 43 %
2427 05-12-2019 20:31:17 -1.9 C 42 %
2428 05-12-2019 20:41:17 -2 C 42 %
2429 05-12-2019 20:51:18 -2.1 C 42 %
2430 05-12-2019 21:01:17 -2.3 C 42 %
2431 05-12-2019 21:11:17 -2.6 C 42 %
2432 05-12-2019 21:21:17 -2.1 C 43 %
2433 05-12-2019 21:31:17 -2 C 43 %
2434 05-12-2019 21:41:17 -2 C 43 %
2435 05-12-2019 21:51:17 -2 C 43 %
2436 05-12-2019 22:01:17 -2.3 C 42 %
2437 05-12-2019 22:11:17 -2.3 C 42 %
2438 05-12-2019 22:21:18 -2.2 C 42 %
2439 05-12-2019 22:31:17 -2.4 C 42 %
2440 05-12-2019 22:41:17 -2.4 C 42 %
2441 05-12-2019 22:51:17 -2.3 C 42 %
2442 05-12-2019 23:01:17 -2.6 C 41 %
2443 05-12-2019 23:11:17 -2.7 C 41 %
2444 05-12-2019 23:21:18 -2.7 C 42 %
2445 05-12-2019 23:31:17 -3.1 C 41 %
2446 05-12-2019 23:41:17 -3.3 C 41 %
2447 05-12-2019 23:51:17 -3.2 C 42 %
2448 06-12-2019 00:01:18 -2.9 C 42 %
2449 06-12-2019 00:11:18 -3.4 C 40 %
2450 06-12-2019 00:21:17 -3.8 C 40 %
Sensor: Nr:Datum:Temp:Feuchte:
Aussen-T/F 2451 06-12-2019 00:31:17 -3.4 C 42 %
2452 06-12-2019 00:41:17 -3.2 C 42 %
2453 06-12-2019 00:51:17 -2.7 C 43 %
2454 06-12-2019 01:01:17 -2.4 C 43 %
2455 06-12-2019 01:11:17 -2.1 C 43 %
2456 06-12-2019 01:21:17 -2 C 41 %
2457 06-12-2019 01:31:18 -1.8 C 42 %
2458 06-12-2019 01:41:18 -1.6 C 43 %
2459 06-12-2019 01:51:17 -1.6 C 43 %
2460 06-12-2019 02:01:17 -1.4 C 42 %
2461 06-12-2019 02:11:17 -1.4 C 40 %
2462 06-12-2019 02:21:17 -1.6 C 40 %
2463 06-12-2019 02:31:17 -1.5 C 40 %
2464 06-12-2019 02:41:17 -1.7 C 39 %
2465 06-12-2019 02:51:17 -1.6 C 40 %
2466 06-12-2019 03:01:18 -1.4 C 39 %
2467 06-12-2019 03:11:18 -1.2 C 39 %
2468 06-12-2019 03:21:17 -1 C 38 %
2469 06-12-2019 03:31:17 -1 C 37 %
2470 06-12-2019 03:41:17 -1 C 38 %
2471 06-12-2019 03:51:17 -1.1 C 37 %
2472 06-12-2019 04:01:17 -1.2 C 38 %
2473 06-12-2019 04:11:17 -1.3 C 37 %
2474 06-12-2019 04:21:17 -1.3 C 38 %
2475 06-12-2019 04:31:17 -1.1 C 38 %
Sensor: Nr:Datum:Temp:Feuchte:
Aussen-T/F 2476 06-12-2019 04:41:17 -1.1 C 38 %
2477 06-12-2019 04:51:17 -0.8 C 38 %
2478 06-12-2019 05:01:17 -1 C 38 %
2479 06-12-2019 05:11:17 -0.8 C 37 %
2480 06-12-2019 05:21:17 -0.9 C 36 %
2481 06-12-2019 05:31:18 -1 C 37 %
2482 06-12-2019 05:41:18 -0.8 C 38 %
2483 06-12-2019 05:51:17 -0.6 C 36 %
2484 06-12-2019 06:01:17 -0.6 C 35 %
2485 06-12-2019 06:11:17 -0.6 C 36 %
2486 06-12-2019 06:21:17 -0.5 C 36 %
2487 06-12-2019 06:31:17 -0.5 C 35 %
2488 06-12-2019 06:41:17 -0.4 C 36 %
2489 06-12-2019 06:51:18 -0.4 C 37 %
2490 06-12-2019 07:01:17 -0.4 C 38 %
2491 06-12-2019 07:11:17 -0.4 C 38 %
2492 06-12-2019 07:21:17 -0.1 C 37 %
2493 06-12-2019 07:31:17 0 C 36 %
2494 06-12-2019 07:41:17 0.2 C 34 %
2495 06-12-2019 07:51:18 0.4 C 32 %
2496 06-12-2019 08:01:17 0.4 C 32 %
2497 06-12-2019 08:11:17 0.4 C 32 %
2498 06-12-2019 08:21:17 0.4 C 35 %
2499 06-12-2019 08:31:17 0.6 C 32 %
2500 06-12-2019 08:41:17 0.5 C 35 %
Sensor: Nr:Datum:Temp:Feuchte:
Aussen-T/F 2501 06-12-2019 08:51:18 0.5 C 35 %
2502 06-12-2019 09:01:17 0.6 C 36 %
2503 06-12-2019 09:11:17 0.8 C 36 %
2504 06-12-2019 09:21:17 1.2 C 33 %
2505 06-12-2019 09:31:17 1.4 C 33 %
2506 06-12-2019 09:41:17 1.5 C 33 %
2507 06-12-2019 09:51:17 1.7 C 34 %
2508 06-12-2019 10:01:17 1.8 C 33 %
2509 06-12-2019 10:11:17 1.8 C 35 %
2510 06-12-2019 10:21:18 1.9 C 36 %
2511 06-12-2019 10:31:17 1.9 C 36 %
2512 06-12-2019 10:41:17 2.4 C 35 %
2513 06-12-2019 10:51:17 2.5 C 35 %
2514 06-12-2019 11:01:18 2.7 C 35 %
2515 06-12-2019 11:11:18 3.2 C 32 %
2516 06-12-2019 11:21:17 3.3 C 32 %
2517 06-12-2019 11:31:17 3.5 C 32 %
2518 06-12-2019 11:41:17 3.5 C 32 %
2519 06-12-2019 11:51:17 3.5 C 33 %
2520 06-12-2019 12:01:17 3.6 C 33 %
2521 06-12-2019 12:11:17 3.6 C 33 %
2522 06-12-2019 12:21:17 3.6 C 35 %
2523 06-12-2019 12:31:18 3.7 C 37 %
2524 06-12-2019 12:41:18 3.7 C 39 %
2525 06-12-2019 12:51:17 3.7 C 40 %
Sensor: Nr:Datum:Temp:Feuchte:
Aussen-T/F 2526 06-12-2019 13:01:17 3.8 C 39 %
2527 06-12-2019 13:11:17 3.9 C 38 %
2528 06-12-2019 13:21:17 4 C 36 %
2529 06-12-2019 13:31:18 4.2 C 35 %
2530 06-12-2019 13:41:18 4.2 C 35 %
2531 06-12-2019 13:51:17 4.1 C 36 %
2532 06-12-2019 14:01:17 4.1 C 39 %
2533 06-12-2019 14:11:17 4.2 C 40 %
2534 06-12-2019 14:21:17 4.2 C 38 %
2535 06-12-2019 14:31:18 4.2 C 38 %
2536 06-12-2019 14:41:18 4.4 C 38 %
2537 06-12-2019 14:51:17 4.4 C 39 %
2538 06-12-2019 15:01:17 4.3 C 38 %
2539 06-12-2019 15:11:17 4.4 C 38 %
2540 06-12-2019 15:21:17 4.7 C 36 %
2541 06-12-2019 15:31:17 4.5 C 37 %
2542 06-12-2019 15:41:17 4.5 C 37 %
2543 06-12-2019 15:51:18 4.6 C 37 %
2544 06-12-2019 16:01:18 4.8 C 38 %
2545 06-12-2019 16:11:18 5 C 34 %
2546 06-12-2019 16:21:17 5.2 C 32 %
2547 06-12-2019 16:31:17 5.1 C 32 %
2548 06-12-2019 16:41:17 5.3 C 32 %
2549 06-12-2019 16:51:17 5.2 C 31 %
2550 06-12-2019 17:01:17 5.2 C 31 %
Sensor: Nr:Datum:Temp:Feuchte:
Aussen-T/F 2551 06-12-2019 17:11:17 5.3 C 31 %
2552 06-12-2019 17:21:17 5.3 C 30 %
2553 06-12-2019 17:31:18 5.5 C 30 %
2554 06-12-2019 17:41:18 5.6 C 29 %
2555 06-12-2019 17:51:17 5.5 C 30 %
2556 06-12-2019 18:01:17 5.9 C 29 %
2557 06-12-2019 18:11:17 6 C 28 %
2558 06-12-2019 18:21:18 6.2 C 29 %
2559 06-12-2019 18:31:17 6.1 C 28 %
2560 06-12-2019 18:41:17 6.1 C 29 %
2561 06-12-2019 18:51:17 5.9 C 30 %
2562 06-12-2019 19:01:17 5.6 C 31 %
2563 06-12-2019 19:11:17 5.8 C 32 %
2564 06-12-2019 19:21:17 5.9 C 31 %
2565 06-12-2019 19:31:17 6.2 C 30 %
2566 06-12-2019 19:41:17 6.5 C 28 %
2567 06-12-2019 19:51:17 6.5 C 28 %
2568 06-12-2019 20:01:17 6.8 C 28 %
2569 06-12-2019 20:11:17 6.7 C 28 %
2570 06-12-2019 20:21:17 6.8 C 28 %
2571 06-12-2019 20:31:17 6.7 C 28 %
2572 06-12-2019 20:41:17 6.7 C 28 %
2573 06-12-2019 20:51:18 6.7 C 28 %
2574 06-12-2019 21:01:17 6.8 C 27 %
2575 06-12-2019 21:11:17 6.7 C 28 %
Sensor: Nr:Datum:Temp:Feuchte:
Aussen-T/F 2576 06-12-2019 21:21:17 6.7 C 28 %
2577 06-12-2019 21:31:17 6.6 C 28 %
2578 06-12-2019 21:41:17 6.5 C 28 %
2579 06-12-2019 21:51:17 6.5 C 29 %
2580 06-12-2019 22:01:17 6.6 C 29 %
2581 06-12-2019 22:11:17 6.7 C 28 %
2582 06-12-2019 22:21:17 6.7 C 28 %
2583 06-12-2019 22:31:17 6.7 C 28 %
2584 06-12-2019 22:41:17 6.9 C 28 %
2585 06-12-2019 22:51:17 6.9 C 27 %
2586 06-12-2019 23:01:18 7 C 27 %
2587 06-12-2019 23:11:18 6.9 C 28 %
2588 06-12-2019 23:21:17 6.8 C 29 %
2589 06-12-2019 23:31:17 6.8 C 29 %
2590 06-12-2019 23:41:17 6.9 C 29 %
2591 06-12-2019 23:51:18 6.8 C 30 %
2592 07-12-2019 00:01:17 6.9 C 30 %
2593 07-12-2019 00:11:17 7 C 28 %
2594 07-12-2019 00:21:17 7.2 C 28 %
2595 07-12-2019 00:31:17 7.2 C 28 %
2596 07-12-2019 00:41:17 7.2 C 28 %
2597 07-12-2019 00:51:17 7.4 C 28 %
2598 07-12-2019 01:01:17 7.4 C 28 %
2599 07-12-2019 01:11:17 7.6 C 28 %
2600 07-12-2019 01:21:17 7.7 C 28 %
Sensor: Nr:Datum:Temp:Feuchte:
Aussen-T/F 2601 07-12-2019 01:31:18 7.8 C 28 %
2602 07-12-2019 01:41:18 7.6 C 29 %
2603 07-12-2019 01:51:17 7.6 C 29 %
2604 07-12-2019 02:01:17 7.5 C 30 %
2605 07-12-2019 02:11:17 7.7 C 31 %
2606 07-12-2019 02:21:17 7.5 C 31 %
2607 07-12-2019 02:31:17 7.1 C 35 %
2608 07-12-2019 02:41:17 7.2 C 38 %
2609 07-12-2019 02:51:17 7.3 C 35 %
2610 07-12-2019 03:01:17 7.4 C 35 %
2611 07-12-2019 03:11:17 7.6 C 33 %
2612 07-12-2019 03:21:17 8.4 C 30 %
2613 07-12-2019 03:31:17 8.5 C 29 %
2614 07-12-2019 03:41:17 8.7 C 28 %
2615 07-12-2019 03:51:17 9 C 27 %
2616 07-12-2019 04:01:18 8.4 C 29 %
2617 07-12-2019 04:11:18 8.5 C 29 %
2618 07-12-2019 04:21:17 8 C 30 %
2619 07-12-2019 04:31:17 7.9 C 30 %
2620 07-12-2019 04:41:17 8 C 30 %
2621 07-12-2019 04:51:17 8 C 30 %
2622 07-12-2019 05:01:17 7.7 C 30 %
2623 07-12-2019 05:11:17 8 C 30 %
2624 07-12-2019 05:21:17 8 C 30 %
2625 07-12-2019 05:31:17 7.8 C 31 %
Sensor: Nr:Datum:Temp:Feuchte:
Aussen-T/F 2626 07-12-2019 05:41:17 8.2 C 30 %
2627 07-12-2019 05:51:18 7.2 C 31 %
2628 07-12-2019 06:01:18 7.6 C 30 %
2629 07-12-2019 06:11:18 8.7 C 26 %
2630 07-12-2019 06:21:17 8.6 C 26 %
2631 07-12-2019 06:31:18 8.2 C 26 %
2632 07-12-2019 06:41:18 8.1 C 26 %
2633 07-12-2019 06:51:17 7.5 C 27 %
2634 07-12-2019 07:01:17 6.8 C 30 %
2635 07-12-2019 07:11:17 7.1 C 28 %
2636 07-12-2019 07:21:17 7.3 C 27 %
2637 07-12-2019 07:31:17 6.8 C 30 %
2638 07-12-2019 07:41:17 6.3 C 31 %
2639 07-12-2019 07:51:18 7.8 C 28 %
2640 07-12-2019 08:01:18 8 C 27 %
2641 07-12-2019 08:11:18 7.9 C 28 %
2642 07-12-2019 08:21:17 8.1 C 28 %
2643 07-12-2019 08:31:17 8.1 C 27 %
2644 07-12-2019 08:41:17 8.3 C 28 %
2645 07-12-2019 08:51:17 8.4 C 27 %
2646 07-12-2019 09:01:17 8.4 C 27 %
2647 07-12-2019 09:11:17 8.3 C 28 %
2648 07-12-2019 09:21:17 8.2 C 28 %
2649 07-12-2019 09:31:17 8.1 C 29 %
2650 07-12-2019 09:41:17 8.3 C 28 %
Sensor: Nr:Datum:Temp:Feuchte:
Aussen-T/F 2651 07-12-2019 09:51:18 8.6 C 27 %
2652 07-12-2019 10:01:17 8.6 C 27 %
2653 07-12-2019 10:11:17 8.8 C 27 %
2654 07-12-2019 10:21:17 9 C 26 %
2655 07-12-2019 10:31:17 9.1 C 25 %
2656 07-12-2019 10:41:17 9.1 C 26 %
2657 07-12-2019 10:51:18 9.2 C 25 %
2658 07-12-2019 11:01:18 9 C 26 %
2659 07-12-2019 11:11:18 8.4 C 29 %
2660 07-12-2019 11:21:17 8.3 C 30 %
2661 07-12-2019 11:31:17 8.4 C 30 %
2662 07-12-2019 11:41:17 8.5 C 30 %
2663 07-12-2019 11:51:17 8.6 C 28 %
2664 07-12-2019 12:01:17 8.8 C 27 %
2665 07-12-2019 12:11:17 8.9 C 27 %
2666 07-12-2019 12:21:17 9.2 C 25 %
2667 07-12-2019 12:31:18 9.4 C 25 %
2668 07-12-2019 12:41:18 9.5 C 25 %
2669 07-12-2019 12:51:17 9.5 C 25 %
2670 07-12-2019 13:01:17 9.7 C 23 %
2671 07-12-2019 13:11:17 10 C 20 %
2672 07-12-2019 13:21:17 9.8 C 20 %
2673 07-12-2019 13:31:17 9.8 C 20 %
2674 07-12-2019 13:41:17 9.9 C 20 %
2675 07-12-2019 13:51:17 9.9 C 20 %
Sensor: Nr:Datum:Temp:Feuchte:
Aussen-T/F 2676 07-12-2019 14:01:17 9.8 C 20 %
2677 07-12-2019 14:11:17 9.7 C 20 %
2678 07-12-2019 14:21:17 9.9 C 20 %
2679 07-12-2019 14:31:18 9.9 C 20 %
2680 07-12-2019 14:41:18 9.9 C 20 %
2681 07-12-2019 14:51:17 9.9 C 20 %
2682 07-12-2019 15:01:17 9.9 C 20 %
2683 07-12-2019 15:11:17 9.7 C 21 %
2684 07-12-2019 15:21:17 9.6 C 21 %
2685 07-12-2019 15:31:17 9.7 C 21 %
2686 07-12-2019 15:41:17 9.6 C 20 %
2687 07-12-2019 15:51:17 9.4 C 23 %
2688 07-12-2019 16:01:17 9 C 25 %
2689 07-12-2019 16:11:17 8.9 C 25 %
2690 07-12-2019 16:21:18 8.8 C 25 %
2691 07-12-2019 16:31:17 8.6 C 26 %
2692 07-12-2019 16:41:18 8.5 C 26 %
2693 07-12-2019 16:51:17 8.2 C 27 %
2694 07-12-2019 17:01:17 8.1 C 29 %
2695 07-12-2019 17:11:17 8.2 C 28 %
2696 07-12-2019 17:21:17 8.1 C 28 %
2697 07-12-2019 17:31:18 8.2 C 28 %
2698 07-12-2019 17:41:18 8.3 C 27 %
2699 07-12-2019 17:51:17 8.1 C 27 %
2700 07-12-2019 18:01:18 8 C 28 %
Sensor: Nr:Datum:Temp:Feuchte:
Aussen-T/F 2701 07-12-2019 18:11:18 8 C 27 %
2702 07-12-2019 18:21:17 7.8 C 28 %
2703 07-12-2019 18:31:17 7.7 C 29 %
2704 07-12-2019 18:41:17 7.6 C 30 %
2705 07-12-2019 18:51:17 7.6 C 30 %
2706 07-12-2019 19:01:17 7.5 C 31 %
2707 07-12-2019 19:11:17 7.5 C 31 %
2708 07-12-2019 19:21:17 7.5 C 32 %
2709 07-12-2019 19:31:17 7.7 C 31 %
2710 07-12-2019 19:41:17 7.6 C 30 %
2711 07-12-2019 19:51:17 7.7 C 30 %
2712 07-12-2019 20:01:18 7.4 C 30 %
2713 07-12-2019 20:11:18 7.3 C 31 %
2714 07-12-2019 20:21:17 7.3 C 31 %
2715 07-12-2019 20:31:17 7.4 C 30 %
2716 07-12-2019 20:41:17 7.6 C 30 %
2717 07-12-2019 20:51:17 7.6 C 30 %
2718 07-12-2019 21:01:17 7.5 C 30 %
2719 07-12-2019 21:11:17 7.6 C 30 %
2720 07-12-2019 21:21:17 8 C 28 %
2721 07-12-2019 21:31:17 8.1 C 28 %
2722 07-12-2019 21:41:17 8.2 C 28 %
2723 07-12-2019 21:51:17 7.9 C 28 %
2724 07-12-2019 22:01:17 8.2 C 28 %
2725 07-12-2019 22:11:17 8.1 C 27 %
Sensor: Nr:Datum:Temp:Feuchte:
Aussen-T/F 2726 07-12-2019 22:21:17 7.8 C 28 %
2727 07-12-2019 22:31:18 7.7 C 30 %
2728 07-12-2019 22:41:18 7.6 C 30 %
2729 07-12-2019 22:51:17 7.5 C 31 %
2730 07-12-2019 23:01:17 7.4 C 32 %
2731 07-12-2019 23:11:17 7.6 C 31 %
2732 07-12-2019 23:21:17 7.6 C 32 %
2733 07-12-2019 23:31:17 7.5 C 32 %
2734 07-12-2019 23:41:17 7.7 C 31 %
2735 07-12-2019 23:51:18 7.9 C 28 %
2736 08-12-2019 00:01:17 8.1 C 27 %
2737 08-12-2019 00:11:17 8.9 C 23 %
2738 08-12-2019 00:21:17 8.9 C 21 %
2739 08-12-2019 00:31:18 9 C 21 %
2740 08-12-2019 00:41:18 8.9 C 23 %
2741 08-12-2019 00:51:17 8.5 C 25 %
2742 08-12-2019 01:01:18 8.3 C 25 %
2743 08-12-2019 01:11:18 8.5 C 25 %
2744 08-12-2019 01:21:17 8.4 C 26 %
2745 08-12-2019 01:31:17 8.9 C 25 %
2746 08-12-2019 01:41:17 8.8 C 25 %
2747 08-12-2019 01:51:18 9.2 C 20 %
2748 08-12-2019 02:01:17 9.2 C 20 %
2749 08-12-2019 02:11:17 8.9 C 20 %
2750 08-12-2019 02:21:17 9 C 20 %
Sensor: Nr:Datum:Temp:Feuchte:
Aussen-T/F 2751 08-12-2019 02:31:17 9.1 C 20 %
2752 08-12-2019 02:41:18 9 C 20 %
2753 08-12-2019 02:51:17 9.1 C 20 %
2754 08-12-2019 03:01:17 9 C 20 %
2755 08-12-2019 03:11:17 9.1 C 20 %
2756 08-12-2019 03:21:17 9.1 C 20 %
2757 08-12-2019 03:31:17 9.3 C 20 %
2758 08-12-2019 03:41:17 9.3 C 20 %
2759 08-12-2019 03:51:17 9.4 C 20 %
2760 08-12-2019 04:01:17 9.7 C 20 %
2761 08-12-2019 04:11:18 9.6 C 20 %
2762 08-12-2019 04:21:17 9.5 C 20 %
2763 08-12-2019 04:31:17 9.6 C 20 %
2764 08-12-2019 04:41:17 9.6 C 20 %
2765 08-12-2019 04:51:17 9.5 C 20 %
2766 08-12-2019 05:01:17 9.6 C 20 %
2767 08-12-2019 05:11:17 9.5 C 21 %
2768 08-12-2019 05:21:17 9.5 C 21 %
2769 08-12-2019 05:31:17 9.4 C 23 %
2770 08-12-2019 05:41:17 9.5 C 23 %
2771 08-12-2019 05:51:17 9.2 C 25 %
2772 08-12-2019 06:01:17 9.3 C 25 %
2773 08-12-2019 06:11:18 9.5 C 25 %
2774 08-12-2019 06:21:17 9.9 C 21 %
2775 08-12-2019 06:31:17 9.8 C 23 %
Sensor: Nr:Datum:Temp:Feuchte:
Aussen-T/F 2776 08-12-2019 06:41:17 9.7 C 25 %
2777 08-12-2019 06:51:17 9.9 C 23 %
2778 08-12-2019 07:01:18 10 C 21 %
2779 08-12-2019 07:11:18 10.1 C 20 %
2780 08-12-2019 07:21:17 9.9 C 21 %
2781 08-12-2019 07:31:17 10 C 21 %
2782 08-12-2019 07:41:17 10.1 C 20 %
2783 08-12-2019 07:51:17 10 C 20 %
2784 08-12-2019 08:01:17 10 C 20 %
2785 08-12-2019 08:11:17 10.2 C 20 %
2786 08-12-2019 08:21:17 10.1 C 20 %
2787 08-12-2019 08:31:17 10.3 C 21 %
2788 08-12-2019 08:41:17 10.1 C 21 %
2789 08-12-2019 08:51:17 10.3 C 21 %
2790 08-12-2019 09:01:17 10.3 C 21 %
2791 08-12-2019 09:11:17 10.1 C 21 %
2792 08-12-2019 09:21:17 10.2 C 21 %
2793 08-12-2019 09:31:17 10.3 C 21 %
2794 08-12-2019 09:41:17 10.4 C 21 %
2795 08-12-2019 09:51:17 10.4 C 21 %
2796 08-12-2019 10:01:17 10.4 C 21 %
2797 08-12-2019 10:11:17 10.5 C 21 %
2798 08-12-2019 10:21:17 10.5 C 22 %
2799 08-12-2019 10:31:17 10.5 C 22 %
2800 08-12-2019 10:41:17 10.1 C 25 %
Sensor: Nr:Datum:Temp:Feuchte:
Aussen-T/F 2801 08-12-2019 10:51:17 10.2 C 25 %
2802 08-12-2019 11:01:17 10.5 C 25 %
2803 08-12-2019 11:11:17 10.6 C 23 %
2804 08-12-2019 11:21:17 10.8 C 23 %
2805 08-12-2019 11:31:17 10.8 C 23 %
2806 08-12-2019 11:41:17 10.8 C 22 %
2807 08-12-2019 11:51:17 11 C 22 %
2808 08-12-2019 12:01:18 11.1 C 22 %
2809 08-12-2019 12:11:18 11.3 C 22 %
2810 08-12-2019 12:21:17 11.4 C 22 %
2811 08-12-2019 12:31:17 11.4 C 22 %
2812 08-12-2019 12:41:17 11.4 C 23 %
2813 08-12-2019 12:51:17 11.3 C 24 %
2814 08-12-2019 13:01:18 11.5 C 24 %
2815 08-12-2019 13:11:18 11.5 C 22 %
2816 08-12-2019 13:21:17 11.3 C 25 %
2817 08-12-2019 13:31:17 11.1 C 25 %
2818 08-12-2019 13:41:17 11.4 C 25 %
2819 08-12-2019 13:51:17 11.4 C 25 %
2820 08-12-2019 14:01:17 11.5 C 25 %
2821 08-12-2019 14:11:17 11.5 C 25 %
2822 08-12-2019 14:21:17 11.5 C 25 %
2823 08-12-2019 14:31:18 11.7 C 25 %
2824 08-12-2019 14:41:18 11.7 C 25 %
2825 08-12-2019 14:51:17 11.7 C 25 %
Sensor: Nr:Datum:Temp:Feuchte:
Aussen-T/F 2826 08-12-2019 15:01:18 11.8 C 25 %
2827 08-12-2019 15:11:18 11.8 C 25 %
2828 08-12-2019 15:21:18 11.7 C 25 %
2829 08-12-2019 15:31:18 11.7 C 25 %
2830 08-12-2019 15:41:18 11.8 C 25 %
2831 08-12-2019 15:51:17 11.8 C 25 %
2832 08-12-2019 16:01:17 11.7 C 25 %
2833 08-12-2019 16:11:17 11.8 C 25 %
2834 08-12-2019 16:21:18 11.7 C 25 %
2835 08-12-2019 16:31:18 11.6 C 26 %
2836 08-12-2019 16:41:18 11.4 C 27 %
2837 08-12-2019 16:51:17 9.4 C 31 %
2838 08-12-2019 17:01:17 8.9 C 33 %
2839 08-12-2019 17:11:17 8.8 C 33 %
2840 08-12-2019 17:21:17 8.7 C 34 %
2841 08-12-2019 17:31:17 9.2 C 27 %
2842 08-12-2019 17:41:17 8.5 C 33 %
2843 08-12-2019 17:51:17 8.5 C 33 %
2844 08-12-2019 18:01:17 8.5 C 32 %
2845 08-12-2019 18:11:17 8.6 C 31 %
2846 08-12-2019 18:21:17 8.2 C 33 %
2847 08-12-2019 18:31:18 8.5 C 29 %
2848 08-12-2019 18:41:18 8.5 C 29 %
2849 08-12-2019 18:51:17 8.6 C 28 %
2850 08-12-2019 19:01:17 8.9 C 27 %
Sensor: Nr:Datum:Temp:Feuchte:
Aussen-T/F 2851 08-12-2019 19:11:17 8.5 C 28 %
2852 08-12-2019 19:21:17 8.5 C 28 %
2853 08-12-2019 19:31:17 8.6 C 27 %
2854 08-12-2019 19:41:17 8 C 31 %
2855 08-12-2019 19:51:18 7.8 C 33 %
2856 08-12-2019 20:01:17 7.5 C 36 %
2857 08-12-2019 20:11:17 8.1 C 33 %
2858 08-12-2019 20:21:17 8.2 C 30 %
2859 08-12-2019 20:31:17 8.3 C 29 %
2860 08-12-2019 20:41:17 8.5 C 28 %
2861 08-12-2019 20:51:17 8.6 C 26 %
2862 08-12-2019 21:01:18 8.8 C 26 %
2863 08-12-2019 21:11:18 8.9 C 25 %
2864 08-12-2019 21:21:17 8.4 C 26 %
2865 08-12-2019 21:31:17 8.7 C 26 %
2866 08-12-2019 21:41:17 8.4 C 26 %
2867 08-12-2019 21:51:18 8.4 C 26 %
2868 08-12-2019 22:01:17 8.5 C 26 %
2869 08-12-2019 22:11:17 7.9 C 27 %
2870 08-12-2019 22:21:17 8.1 C 26 %
2871 08-12-2019 22:31:17 8.6 C 26 %
2872 08-12-2019 22:41:17 8.8 C 26 %
2873 08-12-2019 22:51:17 8.7 C 25 %
2874 08-12-2019 23:01:17 8.8 C 25 %
2875 08-12-2019 23:11:17 8.7 C 26 %
Sensor: Nr:Datum:Temp:Feuchte:
Aussen-T/F 2876 08-12-2019 23:21:17 8.8 C 25 %
2877 08-12-2019 23:31:18 8.7 C 25 %
2878 08-12-2019 23:41:18 8.5 C 25 %
2879 08-12-2019 23:51:17 8.4 C 21 %
2880 09-12-2019 00:01:18 8.7 C 20 %
2881 09-12-2019 00:11:18 8.1 C 21 %
2882 09-12-2019 00:21:17 8.4 C 21 %
2883 09-12-2019 00:31:17 8.4 C 21 %
2884 09-12-2019 00:41:17 8.5 C 20 %
2885 09-12-2019 00:51:17 8.4 C 20 %
2886 09-12-2019 01:01:17 8.4 C 20 %
2887 09-12-2019 01:11:17 8.5 C 20 %
2888 09-12-2019 01:21:18 8.1 C 20 %
2889 09-12-2019 01:31:17 8 C 20 %
2890 09-12-2019 01:41:17 8.3 C 20 %
2891 09-12-2019 01:51:17 8.2 C 20 %
2892 09-12-2019 02:01:17 7.8 C 20 %
2893 09-12-2019 02:11:17 7.6 C 20 %
2894 09-12-2019 02:21:17 7.4 C 21 %
2895 09-12-2019 02:31:18 7.4 C 21 %
2896 09-12-2019 02:41:18 7.1 C 23 %
2897 09-12-2019 02:51:18 7.5 C 20 %
2898 09-12-2019 03:01:17 7.5 C 20 %
2899 09-12-2019 03:11:17 7.5 C 20 %
2900 09-12-2019 03:21:17 7.5 C 20 %
Sensor: Nr:Datum:Temp:Feuchte:
Aussen-T/F 2901 09-12-2019 03:31:17 7.3 C 20 %
2902 09-12-2019 03:41:17 6.8 C 23 %
2903 09-12-2019 03:51:17 7.3 C 21 %
2904 09-12-2019 04:01:17 7.3 C 20 %
2905 09-12-2019 04:11:17 7.9 C 20 %
2906 09-12-2019 04:21:18 8 C 20 %
2907 09-12-2019 04:31:18 7.6 C 20 %
2908 09-12-2019 04:41:18 7.4 C 21 %
2909 09-12-2019 04:51:17 6.9 C 25 %
2910 09-12-2019 05:01:17 6.9 C 25 %
2911 09-12-2019 05:11:17 7.4 C 20 %
2912 09-12-2019 05:21:17 7.5 C 20 %
2913 09-12-2019 05:31:17 7.4 C 20 %
2914 09-12-2019 05:41:18 7.1 C 20 %
2915 09-12-2019 05:51:17 7.2 C 20 %
2916 09-12-2019 06:01:17 7.4 C 20 %
2917 09-12-2019 06:11:17 7.4 C 20 %
2918 09-12-2019 06:21:17 7.4 C 20 %
2919 09-12-2019 06:31:17 7.6 C 20 %
2920 09-12-2019 06:41:17 7.8 C 20 %
2921 09-12-2019 06:51:18 7.7 C 20 %
2922 09-12-2019 07:01:17 7.6 C 20 %
2923 09-12-2019 07:11:18 7.5 C 20 %
2924 09-12-2019 07:21:17 7.2 C 20 %
2925 09-12-2019 07:31:17 7.2 C 20 %
Sensor: Nr:Datum:Temp:Feuchte:
Aussen-T/F 2926 09-12-2019 07:41:17 7.6 C 20 %
2927 09-12-2019 07:51:18 7.5 C 20 %
2928 09-12-2019 08:01:17 7.9 C 20 %
2929 09-12-2019 08:11:17 7.8 C 20 %
2930 09-12-2019 08:21:17 7.9 C 20 %
2931 09-12-2019 08:31:17 8 C 20 %
2932 09-12-2019 08:41:17 7.9 C 20 %
2933 09-12-2019 08:51:17 7.9 C 20 %
2934 09-12-2019 09:01:17 7.8 C 20 %
2935 09-12-2019 09:11:17 7.9 C 20 %
2936 09-12-2019 09:21:17 7.5 C 20 %
2937 09-12-2019 09:31:17 7.4 C 23 %
2938 09-12-2019 09:41:17 7.5 C 21 %
2939 09-12-2019 09:51:17 7.7 C 21 %
2940 09-12-2019 10:01:17 7.9 C 21 %
2941 09-12-2019 10:11:17 7.9 C 21 %
2942 09-12-2019 10:21:17 7.9 C 20 %
2943 09-12-2019 10:31:18 7.9 C 21 %
2944 09-12-2019 10:41:18 7.9 C 21 %
2945 09-12-2019 10:51:17 8.1 C 20 %
2946 09-12-2019 11:01:17 8 C 20 %
2947 09-12-2019 11:11:17 8.2 C 20 %
2948 09-12-2019 11:21:17 8.4 C 20 %
2949 09-12-2019 11:31:18 8.4 C 20 %
2950 09-12-2019 11:41:18 8.3 C 20 %
Sensor: Nr:Datum:Temp:Feuchte:
Aussen-T/F 2951 09-12-2019 11:51:17 8.1 C 20 %
2952 09-12-2019 12:01:17 8.2 C 20 %
2953 09-12-2019 12:11:17 8 C 20 %
2954 09-12-2019 12:21:18 8.1 C 20 %
2955 09-12-2019 12:31:17 8.3 C 20 %
2956 09-12-2019 12:41:17 8.2 C 20 %
2957 09-12-2019 12:51:17 8.3 C 20 %
2958 09-12-2019 13:01:18 8.3 C 20 %
2959 09-12-2019 13:11:18 8.3 C 20 %
2960 09-12-2019 13:21:17 8.2 C 20 %
2961 09-12-2019 13:31:17 8.1 C 20 %
2962 09-12-2019 13:41:17 8.5 C 20 %
2963 09-12-2019 13:51:17 8.8 C 20 %
2964 09-12-2019 14:01:17 8.6 C 20 %
2965 09-12-2019 14:11:17 8.5 C 20 %
2966 09-12-2019 14:21:17 8.6 C 20 %
2967 09-12-2019 14:31:17 8.4 C 20 %
2968 09-12-2019 14:41:17 7.9 C 20 %
2969 09-12-2019 14:51:18 8.4 C 20 %
2970 09-12-2019 15:01:17 7.9 C 20 %
2971 09-12-2019 15:11:17 7.3 C 25 %
2972 09-12-2019 15:21:17 7 C 27 %
2973 09-12-2019 15:31:18 7.1 C 26 %
2974 09-12-2019 15:41:18 7.1 C 25 %
2975 09-12-2019 15:51:17 7.4 C 23 %
Sensor: Nr:Datum:Temp:Feuchte:
Aussen-T/F 2976 09-12-2019 16:01:18 7.5 C 20 %
2977 09-12-2019 16:11:18 7.5 C 20 %
2978 09-12-2019 16:21:17 7.6 C 20 %
2979 09-12-2019 16:31:18 7.3 C 20 %
2980 09-12-2019 16:41:18 7.4 C 20 %
2981 09-12-2019 16:51:17 7.3 C 20 %
2982 09-12-2019 17:01:18 7.1 C 20 %
2983 09-12-2019 17:11:18 7.2 C 20 %
2984 09-12-2019 17:21:17 6.7 C 25 %
2985 09-12-2019 17:31:17 6.1 C 32 %
2986 09-12-2019 17:41:17 5.9 C 36 %
2987 09-12-2019 17:51:17 6 C 34 %
2988 09-12-2019 18:01:18 6 C 30 %
2989 09-12-2019 18:11:18 6.1 C 31 %
2990 09-12-2019 18:21:17 6 C 33 %
2991 09-12-2019 18:31:17 5.8 C 35 %
2992 09-12-2019 18:41:17 5.7 C 37 %
2993 09-12-2019 18:51:18 5.7 C 38 %
2994 09-12-2019 19:01:17 5.6 C 35 %
2995 09-12-2019 19:11:17 5.5 C 38 %
2996 09-12-2019 19:21:17 5.6 C 39 %
2997 09-12-2019 19:31:17 5.6 C 38 %
2998 09-12-2019 19:41:17 5.6 C 38 %
2999 09-12-2019 19:51:17 5.6 C 37 %
3000 09-12-2019 20:01:17 5.6 C 35 %
Sensor: Nr:Datum:Temp:Feuchte:
Aussen-T/F 3001 09-12-2019 20:11:17 5.6 C 34 %
3002 09-12-2019 20:21:17 5.6 C 35 %
3003 09-12-2019 20:31:17 5.6 C 32 %
3004 09-12-2019 20:41:17 5.4 C 33 %
3005 09-12-2019 20:51:17 5.3 C 34 %
3006 09-12-2019 21:01:17 5.2 C 33 %
3007 09-12-2019 21:11:18 5.1 C 34 %
3008 09-12-2019 21:21:17 5.2 C 35 %
3009 09-12-2019 21:31:17 5.3 C 32 %
3010 09-12-2019 21:41:17 5.1 C 31 %
3011 09-12-2019 21:51:17 5 C 31 %
3012 09-12-2019 22:01:17 4.8 C 32 %
3013 09-12-2019 22:11:17 4.7 C 31 %
3014 09-12-2019 22:21:17 4.9 C 30 %
3015 09-12-2019 22:31:17 4.9 C 30 %
3016 09-12-2019 22:41:17 4.9 C 30 %
3017 09-12-2019 22:51:18 4.7 C 30 %
3018 09-12-2019 23:01:17 4.6 C 29 %
3019 09-12-2019 23:11:17 4.5 C 29 %
3020 09-12-2019 23:21:17 4.1 C 30 %
3021 09-12-2019 23:31:18 4 C 30 %
3022 09-12-2019 23:41:18 4.1 C 29 %
3023 09-12-2019 23:51:17 4.1 C 29 %
3024 10-12-2019 00:01:17 3.7 C 30 %
3025 10-12-2019 00:11:17 4.1 C 28 %
Sensor: Nr:Datum:Temp:Feuchte:
Aussen-T/F 3026 10-12-2019 00:21:17 3.4 C 30 %
3027 10-12-2019 00:31:17 3.6 C 30 %
3028 10-12-2019 00:41:17 3.1 C 31 %
3029 10-12-2019 00:51:17 3 C 31 %
3030 10-12-2019 01:01:17 2.4 C 33 %
3031 10-12-2019 01:11:17 2.4 C 36 %
3032 10-12-2019 01:21:17 2.5 C 36 %
3033 10-12-2019 01:31:18 2.8 C 34 %
3034 10-12-2019 01:41:18 2.4 C 34 %
3035 10-12-2019 01:51:17 2.4 C 33 %
3036 10-12-2019 02:01:18 2.7 C 33 %
3037 10-12-2019 02:11:18 2.9 C 32 %
3038 10-12-2019 02:21:17 2.3 C 33 %
3039 10-12-2019 02:31:17 2.1 C 35 %
3040 10-12-2019 02:41:17 1.7 C 37 %
3041 10-12-2019 02:51:17 1.6 C 39 %
3042 10-12-2019 03:01:17 1.8 C 40 %
3043 10-12-2019 03:11:17 1.8 C 40 %
3044 10-12-2019 03:21:17 1.8 C 40 %
3045 10-12-2019 03:31:17 2 C 40 %
3046 10-12-2019 03:41:17 1.4 C 41 %
3047 10-12-2019 03:51:17 1.4 C 43 %
3048 10-12-2019 04:01:17 1.1 C 43 %
3049 10-12-2019 04:11:17 1.3 C 41 %
3050 10-12-2019 04:21:17 0.6 C 41 %
Sensor: Nr:Datum:Temp:Feuchte:
Aussen-T/F 3051 10-12-2019 04:31:18 0.6 C 44 %
3052 10-12-2019 04:41:18 0.7 C 45 %
3053 10-12-2019 04:51:17 0.9 C 46 %
3054 10-12-2019 05:01:17 1.1 C 44 %
3055 10-12-2019 05:11:17 1.8 C 41 %
3056 10-12-2019 05:21:18 2.2 C 35 %
3057 10-12-2019 05:31:18 2 C 35 %
3058 10-12-2019 05:41:18 2 C 35 %
3059 10-12-2019 05:51:17 1.8 C 36 %
3060 10-12-2019 06:01:17 1.5 C 36 %
3061 10-12-2019 06:11:17 1.6 C 37 %
3062 10-12-2019 06:21:18 1.4 C 36 %
3063 10-12-2019 06:31:17 1.1 C 38 %
3064 10-12-2019 06:41:17 0.9 C 42 %
3065 10-12-2019 06:51:17 1.2 C 42 %
3066 10-12-2019 07:01:18 1.3 C 40 %
3067 10-12-2019 07:11:18 1.5 C 40 %
3068 10-12-2019 07:21:17 1.7 C 36 %
3069 10-12-2019 07:31:17 1.2 C 37 %
3070 10-12-2019 07:41:17 0.8 C 41 %
3071 10-12-2019 07:51:17 0.8 C 41 %
3072 10-12-2019 08:01:17 0.7 C 41 %
3073 10-12-2019 08:11:17 0.8 C 41 %
3074 10-12-2019 08:21:17 0.4 C 42 %
3075 10-12-2019 08:31:18 0.6 C 42 %
Sensor: Nr:Datum:Temp:Feuchte:
Aussen-T/F 3076 10-12-2019 08:41:18 0.4 C 42 %
3077 10-12-2019 08:51:17 0.4 C 43 %
3078 10-12-2019 09:01:17 0.1 C 42 %
3079 10-12-2019 09:11:17 0.5 C 44 %
3080 10-12-2019 09:21:17 0.8 C 44 %
3081 10-12-2019 09:31:17 1.4 C 42 %
3082 10-12-2019 09:41:17 1.7 C 39 %
3083 10-12-2019 09:51:17 1.8 C 39 %
3084 10-12-2019 10:01:17 2.2 C 36 %
3085 10-12-2019 10:11:17 2.5 C 35 %
3086 10-12-2019 10:21:17 2.7 C 33 %
3087 10-12-2019 10:31:17 2.7 C 33 %
3088 10-12-2019 10:41:17 2.5 C 33 %
3089 10-12-2019 10:51:17 2.4 C 35 %
3090 10-12-2019 11:01:17 2.4 C 34 %
3091 10-12-2019 11:11:17 2.5 C 34 %
3092 10-12-2019 11:21:17 2.3 C 35 %
3093 10-12-2019 11:31:18 2.2 C 36 %
3094 10-12-2019 11:41:18 2.9 C 34 %
3095 10-12-2019 11:51:17 3.5 C 30 %
3096 10-12-2019 12:01:17 3.7 C 30 %
3097 10-12-2019 12:11:17 3.8 C 30 %
3098 10-12-2019 12:21:17 3.9 C 30 %
3099 10-12-2019 12:31:17 3.9 C 30 %
3100 10-12-2019 12:41:17 4.3 C 27 %
Sensor: Nr:Datum:Temp:Feuchte:
Aussen-T/F 3101 10-12-2019 12:51:17 4.5 C 27 %
3102 10-12-2019 13:01:17 4.6 C 27 %
3103 10-12-2019 13:11:17 4.7 C 27 %
3104 10-12-2019 13:21:17 4.7 C 27 %
3105 10-12-2019 13:31:17 4.9 C 27 %
3106 10-12-2019 13:41:17 5.1 C 25 %
3107 10-12-2019 13:51:17 5 C 25 %
3108 10-12-2019 14:01:17 4.6 C 27 %
3109 10-12-2019 14:11:17 4.2 C 28 %
3110 10-12-2019 14:21:17 3.8 C 30 %
3111 10-12-2019 14:31:18 3.9 C 30 %
3112 10-12-2019 14:41:18 3.8 C 30 %
3113 10-12-2019 14:51:17 3.5 C 30 %
3114 10-12-2019 15:01:17 3.5 C 30 %
3115 10-12-2019 15:11:17 3.3 C 31 %
3116 10-12-2019 15:21:17 3.2 C 31 %
3117 10-12-2019 15:31:17 3.1 C 31 %
3118 10-12-2019 15:41:18 3.2 C 31 %
3119 10-12-2019 15:51:17 2.9 C 31 %
3120 10-12-2019 16:01:17 2.4 C 32 %
3121 10-12-2019 16:11:17 3.1 C 31 %
3122 10-12-2019 16:21:17 3.4 C 30 %
3123 10-12-2019 16:31:17 3.5 C 28 %
3124 10-12-2019 16:41:17 3.3 C 28 %
3125 10-12-2019 16:51:17 3.3 C 26 %
Sensor: Nr:Datum:Temp:Feuchte:
Aussen-T/F 3126 10-12-2019 17:01:17 2.8 C 27 %
3127 10-12-2019 17:11:17 2.7 C 27 %
3128 10-12-2019 17:21:18 2.7 C 27 %
3129 10-12-2019 17:31:17 2.7 C 27 %
3130 10-12-2019 17:41:17 2.6 C 27 %
3131 10-12-2019 17:51:17 2.4 C 28 %
3132 10-12-2019 18:01:17 2.3 C 27 %
3133 10-12-2019 18:11:17 1.7 C 31 %
3134 10-12-2019 18:21:17 1.9 C 32 %
3135 10-12-2019 18:31:17 1.8 C 33 %
3136 10-12-2019 18:41:17 1.7 C 34 %
3137 10-12-2019 18:51:17 1.6 C 35 %
3138 10-12-2019 19:01:17 1.5 C 36 %
3139 10-12-2019 19:11:17 1.5 C 36 %
3140 10-12-2019 19:21:17 1.6 C 36 %
3141 10-12-2019 19:31:17 1.5 C 36 %
3142 10-12-2019 19:41:18 1.7 C 36 %
3143 10-12-2019 19:51:17 1.7 C 35 %
3144 10-12-2019 20:01:17 2.2 C 32 %
3145 10-12-2019 20:11:17 2.1 C 32 %
3146 10-12-2019 20:21:17 2.7 C 29 %
3147 10-12-2019 20:31:18 2.9 C 28 %
3148 10-12-2019 20:41:18 2.6 C 30 %
3149 10-12-2019 20:51:17 2.3 C 30 %
3150 10-12-2019 21:01:17 2.5 C 31 %
Sensor: Nr:Datum:Temp:Feuchte:
Aussen-T/F 3151 10-12-2019 21:11:17 2.3 C 31 %
3152 10-12-2019 21:21:17 2.1 C 32 %
3153 10-12-2019 21:31:17 2 C 33 %
3154 10-12-2019 21:41:18 1.8 C 35 %
3155 10-12-2019 21:51:17 1.8 C 36 %
3156 10-12-2019 22:01:17 1.8 C 36 %
3157 10-12-2019 22:11:17 2.1 C 35 %
3158 10-12-2019 22:21:17 2.2 C 34 %
3159 10-12-2019 22:31:17 2.4 C 32 %
3160 10-12-2019 22:41:17 2.5 C 33 %
3161 10-12-2019 22:51:18 2.8 C 31 %
3162 10-12-2019 23:01:17 2.9 C 30 %
3163 10-12-2019 23:11:17 3 C 30 %
3164 10-12-2019 23:21:17 3 C 30 %
3165 10-12-2019 23:31:17 2.9 C 31 %
3166 10-12-2019 23:41:17 3.3 C 28 %
3167 10-12-2019 23:51:17 3.3 C 30 %
3168 11-12-2019 00:01:18 3.2 C 30 %
3169 11-12-2019 00:11:18 3.3 C 29 %
3170 11-12-2019 00:21:17 3.4 C 28 %
3171 11-12-2019 00:31:17 3.4 C 29 %
3172 11-12-2019 00:41:17 3.5 C 27 %
3173 11-12-2019 00:51:17 3.4 C 27 %
3174 11-12-2019 01:01:17 3.5 C 25 %
3175 11-12-2019 01:11:17 3.4 C 27 %
Sensor: Nr:Datum:Temp:Feuchte:
Aussen-T/F 3176 11-12-2019 01:21:18 3.4 C 28 %
3177 11-12-2019 01:31:17 3.4 C 29 %
3178 11-12-2019 01:41:17 3.2 C 30 %
3179 11-12-2019 01:51:17 3.1 C 32 %
3180 11-12-2019 02:01:17 3 C 33 %
3181 11-12-2019 02:11:17 2.9 C 33 %
3182 11-12-2019 02:21:17 2.9 C 32 %
3183 11-12-2019 02:31:18 2.8 C 34 %
3184 11-12-2019 02:41:18 2.9 C 31 %
3185 11-12-2019 02:51:17 3 C 30 %
3186 11-12-2019 03:01:18 3.1 C 30 %
3187 11-12-2019 03:11:18 3 C 32 %
3188 11-12-2019 03:21:17 2.9 C 30 %
3189 11-12-2019 03:31:17 3 C 30 %
3190 11-12-2019 03:41:17 3 C 35 %
3191 11-12-2019 03:51:17 2.8 C 36 %
3192 11-12-2019 04:01:17 2.7 C 35 %
3193 11-12-2019 04:11:17 2.8 C 35 %
3194 11-12-2019 04:21:17 2.8 C 35 %
3195 11-12-2019 04:31:18 2.8 C 38 %
3196 11-12-2019 04:41:18 2.7 C 38 %
3197 11-12-2019 04:51:17 2.7 C 39 %
3198 11-12-2019 05:01:17 2.7 C 39 %
3199 11-12-2019 05:11:17 2.7 C 39 %
3200 11-12-2019 05:21:18 2.7 C 40 %
Sensor: Nr:Datum:Temp:Feuchte:
Aussen-T/F 3201 11-12-2019 05:31:17 2.6 C 42 %
3202 11-12-2019 05:41:17 2.6 C 43 %
3203 11-12-2019 05:51:17 2.5 C 44 %
3204 11-12-2019 06:01:18 2.5 C 44 %
3205 11-12-2019 06:11:18 2.5 C 44 %
3206 11-12-2019 06:21:17 2.5 C 44 %
3207 11-12-2019 06:31:17 2.5 C 44 %
3208 11-12-2019 06:41:17 2.5 C 44 %
3209 11-12-2019 06:51:17 2.5 C 44 %
3210 11-12-2019 07:01:17 2.4 C 44 %
3211 11-12-2019 07:11:17 2.5 C 44 %
3212 11-12-2019 07:21:17 2.4 C 44 %
3213 11-12-2019 07:31:17 2.4 C 44 %
3214 11-12-2019 07:41:18 2.4 C 43 %
3215 11-12-2019 07:51:17 2.4 C 43 %
3216 11-12-2019 08:01:17 2.4 C 43 %
3217 11-12-2019 08:11:17 2.4 C 43 %
3218 11-12-2019 08:21:17 2.4 C 43 %
3219 11-12-2019 08:31:18 2.3 C 43 %
3220 11-12-2019 08:41:18 2.3 C 43 %
3221 11-12-2019 08:51:17 2.3 C 43 %
3222 11-12-2019 09:01:18 2.3 C 43 %
3223 11-12-2019 09:11:18 2.4 C 43 %
3224 11-12-2019 09:21:17 2.5 C 43 %
3225 11-12-2019 09:31:17 2.5 C 43 %
Sensor: Nr:Datum:Temp:Feuchte:
Aussen-T/F 3226 11-12-2019 09:41:17 2.5 C 43 %
3227 11-12-2019 09:51:17 2.5 C 43 %
3228 11-12-2019 10:01:17 2.6 C 43 %
3229 11-12-2019 10:11:17 2.7 C 43 %
3230 11-12-2019 10:21:17 2.7 C 42 %
3231 11-12-2019 10:31:17 2.7 C 42 %
3232 11-12-2019 10:41:17 2.8 C 41 %
3233 11-12-2019 10:51:17 3.1 C 40 %
3234 11-12-2019 11:01:17 3 C 39 %
3235 11-12-2019 11:11:17 3.1 C 39 %
3236 11-12-2019 11:21:17 3.2 C 39 %
3237 11-12-2019 11:31:17 3.1 C 38 %
3238 11-12-2019 11:41:17 3.1 C 38 %
3239 11-12-2019 11:51:17 3.2 C 39 %
3240 11-12-2019 12:01:18 3.2 C 39 %
3241 11-12-2019 12:11:18 3.1 C 39 %
3242 11-12-2019 12:21:17 3.1 C 39 %
3243 11-12-2019 12:31:17 3.1 C 40 %
3244 11-12-2019 12:41:17 3.1 C 40 %
3245 11-12-2019 12:51:17 3.1 C 40 %
3246 11-12-2019 13:01:18 3.2 C 40 %
3247 11-12-2019 13:11:18 3.2 C 40 %
3248 11-12-2019 13:21:17 3.2 C 40 %
3249 11-12-2019 13:31:17 3.2 C 40 %
3250 11-12-2019 13:41:17 3.2 C 40 %
Sensor: Nr:Datum:Temp:Feuchte:
Aussen-T/F 3251 11-12-2019 13:51:17 3.2 C 40 %
3252 11-12-2019 14:01:17 3.2 C 41 %
3253 11-12-2019 14:11:18 3.2 C 41 %
3254 11-12-2019 14:21:17 3.2 C 41 %
3255 11-12-2019 14:31:17 3.3 C 41 %
3256 11-12-2019 14:41:17 3.3 C 42 %
3257 11-12-2019 14:51:17 3.3 C 42 %
3258 11-12-2019 15:01:17 3.3 C 42 %
3259 11-12-2019 15:11:17 3.4 C 42 %
3260 11-12-2019 15:21:17 3.3 C 42 %
3261 11-12-2019 15:31:18 3.3 C 42 %
3262 11-12-2019 15:41:18 3.3 C 42 %
3263 11-12-2019 15:51:17 3.3 C 42 %
3264 11-12-2019 16:01:17 3.2 C 42 %
3265 11-12-2019 16:11:17 3.2 C 42 %
3266 11-12-2019 16:21:17 3.2 C 42 %
3267 11-12-2019 16:31:17 3.2 C 42 %
3268 11-12-2019 16:41:17 3.1 C 42 %
3269 11-12-2019 16:51:17 3.1 C 42 %
3270 11-12-2019 17:01:17 3.1 C 43 %
3271 11-12-2019 17:11:17 3.1 C 42 %
3272 11-12-2019 17:21:17 3.1 C 42 %
3273 11-12-2019 17:31:17 3.1 C 42 %
3274 11-12-2019 17:41:17 3.1 C 42 %
3275 11-12-2019 17:51:18 3.2 C 43 %
Sensor: Nr:Datum:Temp:Feuchte:
Aussen-T/F 3276 11-12-2019 18:01:17 3.2 C 43 %
3277 11-12-2019 18:11:17 3.3 C 43 %
3278 11-12-2019 18:21:17 3.3 C 43 %
3279 11-12-2019 18:31:18 3.4 C 43 %
3280 11-12-2019 18:41:18 3.4 C 43 %
3281 11-12-2019 18:51:17 3.5 C 43 %
3282 11-12-2019 19:01:17 3.5 C 42 %
3283 11-12-2019 19:11:17 3.5 C 42 %
3284 11-12-2019 19:21:18 3.5 C 42 %
3285 11-12-2019 19:31:17 3.5 C 42 %
3286 11-12-2019 19:41:17 3.6 C 42 %
3287 11-12-2019 19:51:18 3.6 C 42 %
3288 11-12-2019 20:01:17 3.6 C 42 %
3289 11-12-2019 20:11:17 3.7 C 42 %
3290 11-12-2019 20:21:17 3.8 C 42 %
3291 11-12-2019 20:31:18 3.8 C 42 %
3292 11-12-2019 20:41:18 3.9 C 42 %
3293 11-12-2019 20:51:17 4.1 C 41 %
3294 11-12-2019 21:01:17 4.1 C 40 %
3295 11-12-2019 21:11:17 4.3 C 39 %
3296 11-12-2019 21:21:17 4.4 C 37 %
3297 11-12-2019 21:31:17 4.1 C 37 %
3298 11-12-2019 21:41:17 4.3 C 37 %
3299 11-12-2019 21:51:17 4.3 C 36 %
3300 11-12-2019 22:01:17 4.5 C 35 %
Sensor: Nr:Datum:Temp:Feuchte:
Aussen-T/F 3301 11-12-2019 22:11:17 4.1 C 35 %
3302 11-12-2019 22:21:17 3.9 C 37 %
3303 11-12-2019 22:31:17 3.6 C 39 %
3304 11-12-2019 22:41:17 3.8 C 39 %
3305 11-12-2019 22:51:18 3.5 C 40 %
3306 11-12-2019 23:01:17 3.8 C 40 %
3307 11-12-2019 23:11:17 3.8 C 40 %
3308 11-12-2019 23:21:17 3.4 C 40 %
3309 11-12-2019 23:31:17 3 C 41 %
3310 11-12-2019 23:41:17 3.4 C 43 %
3311 11-12-2019 23:51:18 3.2 C 42 %
3312 12-12-2019 00:01:17 3 C 42 %
3313 12-12-2019 00:11:17 2.9 C 43 %
3314 12-12-2019 00:21:17 2.8 C 43 %
3315 12-12-2019 00:31:17 2.5 C 43 %
3316 12-12-2019 00:41:17 2.4 C 43 %
3317 12-12-2019 00:51:17 2.3 C 43 %
3318 12-12-2019 01:01:17 2.7 C 44 %
3319 12-12-2019 01:11:17 2.8 C 44 %
3320 12-12-2019 01:21:18 2.6 C 43 %
3321 12-12-2019 01:31:17 2.2 C 43 %
3322 12-12-2019 01:41:17 2.5 C 43 %
3323 12-12-2019 01:51:18 2.1 C 43 %
3324 12-12-2019 02:01:17 1.8 C 44 %
3325 12-12-2019 02:11:17 1.6 C 44 %
Sensor: Nr:Datum:Temp:Feuchte:
Aussen-T/F 3326 12-12-2019 02:21:17 1.7 C 44 %
3327 12-12-2019 02:31:18 1.6 C 44 %
3328 12-12-2019 02:41:18 2 C 43 %
3329 12-12-2019 02:51:17 2 C 43 %
3330 12-12-2019 03:01:17 2.3 C 43 %
3331 12-12-2019 03:11:17 2.4 C 43 %
3332 12-12-2019 03:21:17 2.5 C 43 %
3333 12-12-2019 03:31:17 2.4 C 43 %
3334 12-12-2019 03:41:17 2.5 C 43 %
3335 12-12-2019 03:51:17 2.7 C 43 %
3336 12-12-2019 04:01:17 2.6 C 43 %
3337 12-12-2019 04:11:17 2.7 C 43 %
3338 12-12-2019 04:21:17 2.8 C 43 %
3339 12-12-2019 04:31:17 2.8 C 43 %
3340 12-12-2019 04:41:17 2.9 C 43 %
3341 12-12-2019 04:51:17 2.4 C 42 %
3342 12-12-2019 05:01:17 2 C 42 %
3343 12-12-2019 05:11:17 2.1 C 42 %
3344 12-12-2019 05:21:17 2.2 C 42 %
3345 12-12-2019 05:31:18 2.1 C 42 %
3346 12-12-2019 05:41:18 2.1 C 42 %
3347 12-12-2019 05:51:17 2.1 C 42 %
3348 12-12-2019 06:01:17 1.9 C 43 %
3349 12-12-2019 06:11:17 2 C 42 %
3350 12-12-2019 06:21:17 2.1 C 42 %
Sensor: Nr:Datum:Temp:Feuchte:
Aussen-T/F 3351 12-12-2019 06:31:17 2.1 C 42 %
3352 12-12-2019 06:41:17 2.3 C 42 %
3353 12-12-2019 06:51:17 2.7 C 43 %
3354 12-12-2019 07:01:17 3 C 42 %
3355 12-12-2019 07:11:17 3 C 42 %
3356 12-12-2019 07:21:17 3 C 42 %
3357 12-12-2019 07:31:17 3 C 42 %
3358 12-12-2019 07:41:17 2.8 C 42 %
3359 12-12-2019 07:51:17 2.9 C 42 %
3360 12-12-2019 08:01:17 2.9 C 42 %
3361 12-12-2019 08:11:17 3.1 C 42 %
3362 12-12-2019 08:21:17 3.2 C 42 %
3363 12-12-2019 08:31:18 3.3 C 42 %
3364 12-12-2019 08:41:18 3.5 C 42 %
3365 12-12-2019 08:51:17 3.5 C 42 %
3366 12-12-2019 09:01:18 3.5 C 42 %
3367 12-12-2019 09:11:18 3.6 C 42 %
3368 12-12-2019 09:21:17 3.9 C 42 %
3369 12-12-2019 09:31:17 3.9 C 42 %
3370 12-12-2019 09:41:17 3.7 C 41 %
3371 12-12-2019 09:51:17 3.5 C 41 %
3372 12-12-2019 10:01:17 3.9 C 41 %
3373 12-12-2019 10:11:17 4 C 40 %
3374 12-12-2019 10:21:18 4.4 C 37 %
3375 12-12-2019 10:31:17 4.6 C 35 %
Sensor: Nr:Datum:Temp:Feuchte:
Aussen-T/F 3376 12-12-2019 10:41:17 4.7 C 32 %
3377 12-12-2019 10:51:17 4.8 C 31 %
3378 12-12-2019 11:01:18 4.7 C 32 %
3379 12-12-2019 11:11:18 4.6 C 31 %
3380 12-12-2019 11:21:17 4.4 C 31 %
3381 12-12-2019 11:31:17 4.4 C 32 %
3382 12-12-2019 11:41:17 4.7 C 31 %
3383 12-12-2019 11:51:18 4.9 C 29 %
3384 12-12-2019 12:01:17 5.1 C 29 %
3385 12-12-2019 12:11:17 5.1 C 27 %
3386 12-12-2019 12:21:17 5 C 26 %
3387 12-12-2019 12:31:18 4.7 C 27 %
3388 12-12-2019 12:41:18 4.7 C 28 %
3389 12-12-2019 12:51:17 4.7 C 27 %
3390 12-12-2019 13:01:17 4.6 C 28 %
3391 12-12-2019 13:11:18 5 C 26 %
3392 12-12-2019 13:21:17 4.8 C 27 %
3393 12-12-2019 13:31:17 4.6 C 26 %
3394 12-12-2019 13:41:17 4.2 C 26 %
3395 12-12-2019 13:51:17 4.6 C 25 %
3396 12-12-2019 14:01:17 4.6 C 25 %
3397 12-12-2019 14:11:17 4.3 C 25 %
3398 12-12-2019 14:21:17 4 C 27 %
3399 12-12-2019 14:31:18 4.5 C 25 %
3400 12-12-2019 14:41:18 4.8 C 25 %
Sensor: Nr:Datum:Temp:Feuchte:
Aussen-T/F 3401 12-12-2019 14:51:17 4.7 C 25 %
3402 12-12-2019 15:01:18 4 C 26 %
3403 12-12-2019 15:11:18 4.2 C 26 %
3404 12-12-2019 15:21:17 3.6 C 29 %
3405 12-12-2019 15:31:17 3.5 C 29 %
3406 12-12-2019 15:41:17 3.8 C 28 %
3407 12-12-2019 15:51:17 3.7 C 28 %
3408 12-12-2019 16:01:17 3.6 C 28 %
3409 12-12-2019 16:11:17 3.7 C 26 %
3410 12-12-2019 16:21:18 3.5 C 27 %
3411 12-12-2019 16:31:17 3.4 C 26 %
3412 12-12-2019 16:41:17 3.3 C 28 %
3413 12-12-2019 16:51:17 3.1 C 30 %
3414 12-12-2019 17:01:17 2.6 C 30 %
3415 12-12-2019 17:11:17 1.7 C 35 %
3416 12-12-2019 17:21:17 1.2 C 36 %
3417 12-12-2019 17:31:17 1.1 C 38 %
3418 12-12-2019 17:41:17 0.9 C 41 %
3419 12-12-2019 17:51:17 1 C 40 %
3420 12-12-2019 18:01:17 1.1 C 40 %
3421 12-12-2019 18:11:17 1.1 C 40 %
3422 12-12-2019 18:21:17 1.1 C 40 %
3423 12-12-2019 18:31:17 1 C 40 %
3424 12-12-2019 18:41:17 0.9 C 41 %
3425 12-12-2019 18:51:17 0.7 C 41 %
Sensor: Nr:Datum:Temp:Feuchte:
Aussen-T/F 3426 12-12-2019 19:01:17 0.7 C 41 %
3427 12-12-2019 19:11:17 0.6 C 41 %
3428 12-12-2019 19:21:17 0.6 C 42 %
3429 12-12-2019 19:31:17 0.6 C 42 %
3430 12-12-2019 19:41:17 0.7 C 42 %
3431 12-12-2019 19:51:17 0.7 C 41 %
3432 12-12-2019 20:01:17 0.6 C 41 %
3433 12-12-2019 20:11:17 0.6 C 41 %
3434 12-12-2019 20:21:17 0.6 C 41 %
3435 12-12-2019 20:31:17 0.6 C 41 %
3436 12-12-2019 20:41:17 0.6 C 41 %
3437 12-12-2019 20:51:17 1.3 C 42 %
3438 12-12-2019 21:01:17 1.6 C 38 %
3439 12-12-2019 21:11:17 1.6 C 36 %
3440 12-12-2019 21:21:17 1.3 C 36 %
3441 12-12-2019 21:31:17 1.3 C 35 %
3442 12-12-2019 21:41:17 1 C 35 %
3443 12-12-2019 21:51:17 0.7 C 37 %
3444 12-12-2019 22:01:17 1.2 C 37 %
3445 12-12-2019 22:11:17 0.9 C 37 %
3446 12-12-2019 22:21:18 0.4 C 38 %
3447 12-12-2019 22:31:17 0.3 C 39 %
3448 12-12-2019 22:41:17 0.2 C 40 %
3449 12-12-2019 22:51:17 0.4 C 39 %
3450 12-12-2019 23:01:18 1.1 C 37 %
Sensor: Nr:Datum:Temp:Feuchte:
Aussen-T/F 3451 12-12-2019 23:11:18 1.5 C 35 %
3452 12-12-2019 23:21:17 1.9 C 32 %
3453 12-12-2019 23:31:17 1.6 C 31 %
3454 12-12-2019 23:41:17 1.4 C 32 %
3455 12-12-2019 23:51:17 1.5 C 31 %
3456 13-12-2019 00:01:17 0.9 C 33 %
3457 13-12-2019 00:11:17 0.6 C 35 %
3458 13-12-2019 00:21:17 1 C 33 %
3459 13-12-2019 00:31:18 0.7 C 34 %
3460 13-12-2019 00:41:18 0.9 C 35 %
3461 13-12-2019 00:51:17 1.3 C 32 %
3462 13-12-2019 01:01:18 1.7 C 30 %
3463 13-12-2019 01:11:18 1.8 C 29 %
3464 13-12-2019 01:21:17 2 C 27 %
3465 13-12-2019 01:31:17 1.9 C 28 %
3466 13-12-2019 01:41:17 2 C 27 %
3467 13-12-2019 01:51:17 2 C 27 %
3468 13-12-2019 02:01:18 1.9 C 29 %
3469 13-12-2019 02:11:18 2 C 27 %
3470 13-12-2019 02:21:17 2 C 27 %
3471 13-12-2019 02:31:17 2 C 27 %
3472 13-12-2019 02:41:17 2 C 27 %
3473 13-12-2019 02:51:17 2 C 27 %
3474 13-12-2019 03:01:17 1.8 C 29 %
3475 13-12-2019 03:11:17 1.8 C 30 %
Sensor: Nr:Datum:Temp:Feuchte:
Aussen-T/F 3476 13-12-2019 03:21:17 1.7 C 30 %
3477 13-12-2019 03:31:17 1.6 C 30 %
3478 13-12-2019 03:41:17 1.7 C 30 %
3479 13-12-2019 03:51:17 1.6 C 31 %
3480 13-12-2019 04:01:17 1.4 C 32 %
3481 13-12-2019 04:11:17 1.5 C 32 %
3482 13-12-2019 04:21:17 1.6 C 32 %
3483 13-12-2019 04:31:17 1.6 C 32 %
3484 13-12-2019 04:41:17 1.6 C 32 %
3485 13-12-2019 04:51:17 1.4 C 34 %
3486 13-12-2019 05:01:17 1.4 C 35 %
3487 13-12-2019 05:11:17 1.5 C 34 %
3488 13-12-2019 05:21:17 1.5 C 34 %
3489 13-12-2019 05:31:18 1.7 C 33 %
3490 13-12-2019 05:41:18 1.7 C 32 %
3491 13-12-2019 05:51:17 1.8 C 33 %
3492 13-12-2019 06:01:17 1.9 C 32 %
3493 13-12-2019 06:11:17 2 C 31 %
3494 13-12-2019 06:21:17 2 C 31 %
3495 13-12-2019 06:31:17 2 C 32 %
3496 13-12-2019 06:41:17 1.7 C 35 %
3497 13-12-2019 06:51:17 1.8 C 37 %
3498 13-12-2019 07:01:17 1.8 C 37 %
3499 13-12-2019 07:11:18 1.7 C 39 %
3500 13-12-2019 07:21:17 1.8 C 38 %
Sensor: Nr:Datum:Temp:Feuchte:
Aussen-T/F 3501 13-12-2019 07:31:17 1.8 C 40 %
3502 13-12-2019 07:41:17 1.8 C 39 %
3503 13-12-2019 07:51:17 1.9 C 38 %
3504 13-12-2019 08:01:17 1.8 C 38 %
3505 13-12-2019 08:11:17 1.8 C 39 %
3506 13-12-2019 08:21:17 1.7 C 40 %
3507 13-12-2019 08:31:17 1.7 C 41 %
3508 13-12-2019 08:41:17 1.6 C 41 %
3509 13-12-2019 08:51:17 1.7 C 41 %
3510 13-12-2019 09:01:17 1.9 C 40 %
3511 13-12-2019 09:11:17 1.9 C 40 %
3512 13-12-2019 09:21:17 1.9 C 40 %
3513 13-12-2019 09:31:17 1.7 C 42 %
3514 13-12-2019 09:41:17 1.7 C 42 %
3515 13-12-2019 09:51:18 1.9 C 43 %
3516 13-12-2019 10:01:17 1.8 C 43 %
3517 13-12-2019 10:11:17 1.9 C 43 %
3518 13-12-2019 10:21:18 2 C 41 %
3519 13-12-2019 10:31:17 2.2 C 41 %
3520 13-12-2019 10:41:17 2.3 C 41 %
3521 13-12-2019 10:51:18 2.3 C 41 %
3522 13-12-2019 11:01:17 2.4 C 41 %
3523 13-12-2019 11:11:17 2.3 C 40 %
3524 13-12-2019 11:21:17 2.3 C 40 %
3525 13-12-2019 11:31:17 2.4 C 41 %
Sensor: Nr:Datum:Temp:Feuchte:
Aussen-T/F 3526 13-12-2019 11:41:17 2.5 C 41 %
3527 13-12-2019 11:51:18 2.8 C 42 %
3528 13-12-2019 12:01:17 3 C 41 %
3529 13-12-2019 12:11:17 3.1 C 39 %
3530 13-12-2019 12:21:17 3.2 C 38 %
3531 13-12-2019 12:31:17 3.5 C 38 %
3532 13-12-2019 12:41:17 3.5 C 38 %
3533 13-12-2019 12:51:18 3.6 C 38 %
3534 13-12-2019 13:01:18 3.8 C 39 %
3535 13-12-2019 13:11:18 4.1 C 37 %
3536 13-12-2019 13:21:17 4.6 C 38 %
3537 13-12-2019 13:31:17 5.2 C 35 %
3538 13-12-2019 13:41:17 5.7 C 35 %
3539 13-12-2019 13:51:17 6.4 C 31 %
3540 13-12-2019 14:01:17 6.7 C 30 %
3541 13-12-2019 14:11:17 7 C 28 %
3542 13-12-2019 14:21:17 6.8 C 29 %
3543 13-12-2019 14:31:17 6.8 C 28 %
3544 13-12-2019 14:41:17 6.7 C 28 %
3545 13-12-2019 14:51:18 6.4 C 29 %
3546 13-12-2019 15:01:18 6.3 C 29 %
3547 13-12-2019 15:11:18 6.3 C 29 %
3548 13-12-2019 15:21:17 6.2 C 30 %
3549 13-12-2019 15:31:17 5.9 C 30 %
3550 13-12-2019 15:41:17 5.8 C 31 %
Sensor: Nr:Datum:Temp:Feuchte:
Aussen-T/F 3551 13-12-2019 15:51:17 5.5 C 31 %
3552 13-12-2019 16:01:18 5.3 C 30 %
3553 13-12-2019 16:11:18 5.4 C 30 %
3554 13-12-2019 16:21:17 5.3 C 30 %
3555 13-12-2019 16:31:17 5.1 C 30 %
3556 13-12-2019 16:41:17 4.8 C 31 %
3557 13-12-2019 16:51:17 4.5 C 31 %
3558 13-12-2019 17:01:17 4.6 C 31 %
3559 13-12-2019 17:11:17 4.5 C 31 %
3560 13-12-2019 17:21:17 4.3 C 34 %
3561 13-12-2019 17:31:18 4.3 C 34 %
3562 13-12-2019 17:41:18 4.2 C 33 %
3563 13-12-2019 17:51:17 4 C 33 %
3564 13-12-2019 18:01:17 3.8 C 36 %
3565 13-12-2019 18:11:17 3.7 C 40 %
3566 13-12-2019 18:21:17 3.8 C 39 %
3567 13-12-2019 18:31:17 3.8 C 40 %
3568 13-12-2019 18:41:18 3.8 C 39 %
3569 13-12-2019 18:51:17 3.9 C 36 %
3570 13-12-2019 19:01:17 3.9 C 36 %
3571 13-12-2019 19:11:17 3.9 C 35 %
3572 13-12-2019 19:21:17 4 C 34 %
3573 13-12-2019 19:31:17 4.1 C 35 %
3574 13-12-2019 19:41:17 4 C 36 %
3575 13-12-2019 19:51:17 4.6 C 32 %
Sensor: Nr:Datum:Temp:Feuchte:
Aussen-T/F 3576 13-12-2019 20:01:17 4.6 C 32 %
3577 13-12-2019 20:11:17 4.8 C 31 %
3578 13-12-2019 20:21:17 4.7 C 31 %
3579 13-12-2019 20:31:17 4.7 C 31 %
3580 13-12-2019 20:41:17 4.7 C 32 %
3581 13-12-2019 20:51:17 4.5 C 32 %
3582 13-12-2019 21:01:17 4.3 C 34 %
3583 13-12-2019 21:11:17 4 C 36 %
3584 13-12-2019 21:21:17 4.5 C 35 %
3585 13-12-2019 21:31:18 4.4 C 33 %
3586 13-12-2019 21:41:18 4.4 C 35 %
3587 13-12-2019 21:51:17 4.6 C 32 %
3588 13-12-2019 22:01:17 4.6 C 31 %
3589 13-12-2019 22:11:17 4.6 C 30 %
3590 13-12-2019 22:21:17 4.7 C 30 %
3591 13-12-2019 22:31:18 4.7 C 30 %
3592 13-12-2019 22:41:18 3.8 C 34 %
3593 13-12-2019 22:51:17 3.8 C 36 %
3594 13-12-2019 23:01:17 4.5 C 32 %
3595 13-12-2019 23:11:17 5.1 C 29 %
3596 13-12-2019 23:21:17 5.2 C 28 %
3597 13-12-2019 23:31:17 5.2 C 28 %
3598 13-12-2019 23:41:17 5 C 30 %
3599 13-12-2019 23:51:17 5 C 30 %
3600 14-12-2019 00:01:17 4.4 C 32 %
Sensor: Nr:Datum:Temp:Feuchte:
Aussen-T/F 3601 14-12-2019 00:11:17 4.5 C 30 %
3602 14-12-2019 00:21:17 4.6 C 30 %
3603 14-12-2019 00:31:18 4.3 C 33 %
3604 14-12-2019 00:41:18 4.7 C 32 %
3605 14-12-2019 00:51:17 5.1 C 28 %
3606 14-12-2019 01:01:17 5.4 C 27 %
3607 14-12-2019 01:11:17 5.3 C 27 %
3608 14-12-2019 01:21:17 5.2 C 26 %
3609 14-12-2019 01:31:17 5.1 C 26 %
3610 14-12-2019 01:41:17 5.3 C 25 %
3611 14-12-2019 01:51:17 5.2 C 25 %
3612 14-12-2019 02:01:17 5 C 26 %
3613 14-12-2019 02:11:17 4.5 C 30 %
3614 14-12-2019 02:21:17 4.6 C 29 %
3615 14-12-2019 02:31:18 4.7 C 29 %
3616 14-12-2019 02:41:18 4.8 C 28 %
3617 14-12-2019 02:51:17 4.5 C 30 %
3618 14-12-2019 03:01:18 4.2 C 33 %
3619 14-12-2019 03:11:18 4.1 C 36 %
3620 14-12-2019 03:21:17 3.9 C 38 %
3621 14-12-2019 03:31:17 3.9 C 39 %
3622 14-12-2019 03:41:17 3.9 C 36 %
3623 14-12-2019 03:51:18 3.8 C 36 %
3624 14-12-2019 04:01:17 3.8 C 40 %
3625 14-12-2019 04:11:17 3.8 C 41 %
Sensor: Nr:Datum:Temp:Feuchte:
Aussen-T/F 3626 14-12-2019 04:21:17 3.7 C 42 %
3627 14-12-2019 04:31:18 3.5 C 42 %
3628 14-12-2019 04:41:18 3.5 C 42 %
3629 14-12-2019 04:51:17 3.4 C 42 %
3630 14-12-2019 05:01:17 3.4 C 41 %
3631 14-12-2019 05:11:17 3.4 C 41 %
3632 14-12-2019 05:21:17 3.4 C 42 %
3633 14-12-2019 05:31:18 3.4 C 42 %
3634 14-12-2019 05:41:18 3.4 C 43 %
3635 14-12-2019 05:51:17 3.4 C 43 %
3636 14-12-2019 06:01:18 3.4 C 42 %
3637 14-12-2019 06:11:18 3.7 C 43 %
3638 14-12-2019 06:21:17 4 C 42 %
3639 14-12-2019 06:31:17 5 C 40 %
3640 14-12-2019 06:41:17 5.2 C 39 %
3641 14-12-2019 06:51:18 5.6 C 36 %
3642 14-12-2019 07:01:17 5.6 C 36 %
3643 14-12-2019 07:11:18 5.7 C 36 %
3644 14-12-2019 07:21:17 5.8 C 36 %
3645 14-12-2019 07:31:17 5.8 C 36 %
3646 14-12-2019 07:41:17 6.3 C 37 %
3647 14-12-2019 07:51:17 6.5 C 36 %
3648 14-12-2019 08:01:17 6.8 C 35 %
3649 14-12-2019 08:11:17 7 C 28 %
3650 14-12-2019 08:21:17 7.2 C 26 %
Sensor: Nr:Datum:Temp:Feuchte:
Aussen-T/F 3651 14-12-2019 08:31:18 7.1 C 25 %
3652 14-12-2019 08:41:18 6.9 C 25 %
3653 14-12-2019 08:51:17 6.7 C 25 %
3654 14-12-2019 09:01:17 6.9 C 23 %
3655 14-12-2019 09:11:17 6.7 C 23 %
3656 14-12-2019 09:21:18 6.5 C 23 %
3657 14-12-2019 09:31:18 6.7 C 20 %
3658 14-12-2019 09:41:18 6.5 C 21 %
3659 14-12-2019 09:51:17 6.7 C 21 %
3660 14-12-2019 10:01:17 6.7 C 21 %
3661 14-12-2019 10:11:17 6.6 C 23 %
3662 14-12-2019 10:21:17 6.6 C 25 %
3663 14-12-2019 10:31:17 6.7 C 25 %
3664 14-12-2019 10:41:17 6.4 C 26 %
3665 14-12-2019 10:51:17 5.9 C 29 %
3666 14-12-2019 11:01:18 5.9 C 29 %
3667 14-12-2019 11:11:18 6.4 C 27 %
3668 14-12-2019 11:21:17 6.7 C 26 %
3669 14-12-2019 11:31:17 6.3 C 26 %
3670 14-12-2019 11:41:17 6.4 C 25 %
3671 14-12-2019 11:51:17 6.9 C 20 %
3672 14-12-2019 12:01:17 7 C 20 %
3673 14-12-2019 12:11:17 7.2 C 20 %
3674 14-12-2019 12:21:18 7 C 20 %
3675 14-12-2019 12:31:17 7.3 C 20 %
Sensor: Nr:Datum:Temp:Feuchte:
Aussen-T/F 3676 14-12-2019 12:41:17 7.6 C 20 %
3677 14-12-2019 12:51:17 7.8 C 20 %
3678 14-12-2019 13:01:17 7.9 C 20 %
3679 14-12-2019 13:11:17 8 C 20 %
3680 14-12-2019 13:21:17 8.4 C 20 %
3681 14-12-2019 13:31:17 8.4 C 20 %
3682 14-12-2019 13:41:17 8.3 C 20 %
3683 14-12-2019 13:51:17 8.4 C 20 %
3684 14-12-2019 14:01:18 8.5 C 20 %
3685 14-12-2019 14:11:18 8.4 C 20 %
3686 14-12-2019 14:21:17 8.4 C 20 %
3687 14-12-2019 14:31:18 8.7 C 20 %
3688 14-12-2019 14:41:18 8.8 C 20 %
3689 14-12-2019 14:51:18 8.6 C 20 %
3690 14-12-2019 15:01:17 7.3 C 23 %
3691 14-12-2019 15:11:17 6.8 C 28 %
3692 14-12-2019 15:21:17 6.6 C 30 %
3693 14-12-2019 15:31:17 6.7 C 28 %
3694 14-12-2019 15:41:18 6.8 C 28 %
3695 14-12-2019 15:51:17 7.1 C 26 %
3696 14-12-2019 16:01:17 7 C 26 %
3697 14-12-2019 16:11:17 6.9 C 26 %
3698 14-12-2019 16:21:17 6.9 C 27 %
3699 14-12-2019 16:31:18 7.2 C 25 %
3700 14-12-2019 16:41:18 7.6 C 25 %
Sensor: Nr:Datum:Temp:Feuchte:
Aussen-T/F 3701 14-12-2019 16:51:17 7.5 C 25 %
3702 14-12-2019 17:01:17 7.6 C 25 %
3703 14-12-2019 17:11:17 7.6 C 25 %
3704 14-12-2019 17:21:17 7.4 C 25 %
3705 14-12-2019 17:31:18 7.2 C 26 %
3706 14-12-2019 17:41:18 6.9 C 27 %
3707 14-12-2019 17:51:17 7.1 C 26 %
3708 14-12-2019 18:01:17 7.1 C 26 %
3709 14-12-2019 18:11:17 7.3 C 26 %
3710 14-12-2019 18:22:17 7.6 C 25 %
3711 14-12-2019 18:31:17 7.8 C 25 %
3712 14-12-2019 18:41:17 7.4 C 25 %
3713 14-12-2019 18:52:17 7 C 26 %
3714 14-12-2019 19:01:18 6.7 C 27 %
3715 14-12-2019 19:11:18 6.2 C 28 %
3716 14-12-2019 19:21:17 6.4 C 26 %
3717 14-12-2019 19:31:17 6.1 C 26 %
3718 14-12-2019 19:41:17 6.4 C 25 %
3719 14-12-2019 19:52:17 6.4 C 25 %
3720 14-12-2019 20:01:18 6.6 C 25 %
3721 14-12-2019 20:11:18 6.7 C 25 %
3722 14-12-2019 20:21:17 6.9 C 25 %
3723 14-12-2019 20:31:17 5.8 C 27 %
3724 14-12-2019 20:41:17 5.9 C 27 %
3725 14-12-2019 20:52:17 7 C 25 %
Sensor: Nr:Datum:Temp:Feuchte:
Aussen-T/F 3726 14-12-2019 21:01:17 7.2 C 25 %
3727 14-12-2019 21:11:17 7 C 25 %
3728 14-12-2019 21:22:17 7.1 C 25 %
3729 14-12-2019 21:31:18 6.7 C 26 %
3730 14-12-2019 21:41:18 6.8 C 26 %
3731 14-12-2019 21:52:17 6.9 C 26 %
3732 14-12-2019 22:02:17 7.1 C 25 %
3733 14-12-2019 22:11:17 6.8 C 26 %
3734 14-12-2019 22:22:17 6.9 C 26 %
3735 14-12-2019 22:31:17 7.3 C 25 %
3736 14-12-2019 22:41:17 7 C 26 %
3737 14-12-2019 22:52:17 7.3 C 25 %
3738 14-12-2019 23:02:17 7.1 C 25 %
3739 14-12-2019 23:12:17 7.3 C 25 %
3740 14-12-2019 23:22:17 7 C 26 %
3741 14-12-2019 23:31:18 7 C 26 %
3742 14-12-2019 23:41:18 7.4 C 25 %
3743 14-12-2019 23:51:18 7 C 25 %
3744 15-12-2019 00:02:17 6.4 C 27 %
3745 15-12-2019 00:11:17 6 C 28 %
3746 15-12-2019 00:22:17 5.6 C 30 %
3747 15-12-2019 00:31:18 5.3 C 31 %
3748 15-12-2019 00:41:18 5.1 C 32 %
3749 15-12-2019 00:52:17 5.2 C 32 %
3750 15-12-2019 01:02:17 5.2 C 32 %
Sensor: Nr:Datum:Temp:Feuchte:
Aussen-T/F 3751 15-12-2019 01:12:17 5.3 C 33 %
3752 15-12-2019 01:22:17 5.5 C 33 %
3753 15-12-2019 01:31:18 5.7 C 31 %
3754 15-12-2019 01:41:18 5.6 C 31 %
3755 15-12-2019 01:52:17 5.6 C 31 %
3756 15-12-2019 02:02:17 5.9 C 31 %
3757 15-12-2019 02:12:17 5.8 C 32 %
3758 15-12-2019 02:22:17 5.9 C 32 %
3759 15-12-2019 02:32:18 5.7 C 35 %
3760 15-12-2019 02:42:18 5.8 C 37 %
3761 15-12-2019 02:52:17 5.9 C 39 %
3762 15-12-2019 03:02:18 5.9 C 40 %
3763 15-12-2019 03:12:18 5.9 C 41 %
3764 15-12-2019 03:22:17 6 C 41 %
3765 15-12-2019 03:32:17 6 C 42 %
3766 15-12-2019 03:42:17 6.3 C 42 %
3767 15-12-2019 03:52:17 6.4 C 42 %
3768 15-12-2019 04:02:17 6.8 C 42 %
3769 15-12-2019 04:12:17 7.3 C 41 %
3770 15-12-2019 04:22:17 7.3 C 41 %
3771 15-12-2019 04:32:17 7.5 C 41 %
3772 15-12-2019 04:42:17 7.9 C 40 %
3773 15-12-2019 04:52:17 8 C 39 %
3774 15-12-2019 05:02:17 8.2 C 38 %
3775 15-12-2019 05:12:17 8.2 C 37 %
Sensor: Nr:Datum:Temp:Feuchte:
Aussen-T/F 3776 15-12-2019 05:22:17 8.4 C 37 %
3777 15-12-2019 05:32:18 9 C 34 %
3778 15-12-2019 05:42:18 10 C 30 %
3779 15-12-2019 05:52:17 10.2 C 30 %
3780 15-12-2019 06:02:17 10.3 C 29 %
3781 15-12-2019 06:12:17 10.3 C 29 %
3782 15-12-2019 06:22:17 10.1 C 29 %
3783 15-12-2019 06:32:17 10.5 C 28 %
3784 15-12-2019 06:42:17 10.8 C 27 %
3785 15-12-2019 06:52:17 10.7 C 27 %
3786 15-12-2019 07:02:17 10.5 C 27 %
3787 15-12-2019 07:12:17 10.9 C 27 %
3788 15-12-2019 07:22:17 10.3 C 27 %
3789 15-12-2019 07:32:17 10.6 C 27 %
3790 15-12-2019 07:42:17 10.5 C 27 %
3791 15-12-2019 07:52:17 10.7 C 27 %
3792 15-12-2019 08:02:17 10.7 C 27 %
3793 15-12-2019 08:12:17 11 C 26 %
3794 15-12-2019 08:22:17 10.9 C 27 %
3795 15-12-2019 08:32:18 10.6 C 27 %
3796 15-12-2019 08:42:18 10.2 C 28 %
3797 15-12-2019 08:52:17 9.5 C 34 %
3798 15-12-2019 09:02:17 9.2 C 34 %
3799 15-12-2019 09:12:17 8.9 C 35 %
3800 15-12-2019 09:22:17 8.7 C 33 %
Sensor: Nr:Datum:Temp:Feuchte:
Aussen-T/F 3801 15-12-2019 09:32:17 8.5 C 34 %
3802 15-12-2019 09:42:17 8.2 C 35 %
3803 15-12-2019 09:52:18 8 C 36 %
3804 15-12-2019 10:02:18 8.1 C 34 %
3805 15-12-2019 10:12:18 8.2 C 32 %
3806 15-12-2019 10:22:18 8.2 C 34 %
3807 15-12-2019 10:32:17 8.1 C 33 %
3808 15-12-2019 10:42:17 8.5 C 31 %
3809 15-12-2019 10:52:17 8.7 C 30 %
3810 15-12-2019 11:02:17 8.4 C 30 %
3811 15-12-2019 11:12:17 8.5 C 30 %
3812 15-12-2019 11:22:17 8.5 C 28 %
3813 15-12-2019 11:32:17 8.6 C 28 %
3814 15-12-2019 11:42:17 8.6 C 28 %
3815 15-12-2019 11:52:17 8.3 C 27 %
3816 15-12-2019 12:02:17 8.3 C 27 %
3817 15-12-2019 12:12:17 8.1 C 27 %
3818 15-12-2019 12:22:17 8.1 C 28 %
3819 15-12-2019 12:32:17 7.9 C 29 %
3820 15-12-2019 12:42:17 8.2 C 28 %
3821 15-12-2019 12:52:18 8.4 C 28 %
3822 15-12-2019 13:02:18 8.7 C 27 %
3823 15-12-2019 13:12:18 9.1 C 25 %
3824 15-12-2019 13:22:17 9.3 C 23 %
3825 15-12-2019 13:32:17 9.2 C 21 %
Sensor: Nr:Datum:Temp:Feuchte:
Aussen-T/F 3826 15-12-2019 13:42:17 9.2 C 20 %
3827 15-12-2019 13:52:18 9.2 C 20 %
3828 15-12-2019 14:02:17 9.2 C 20 %
3829 15-12-2019 14:12:17 9.3 C 20 %
3830 15-12-2019 14:22:17 9.3 C 20 %
3831 15-12-2019 14:32:17 9.1 C 20 %
3832 15-12-2019 14:42:17 9.1 C 20 %
3833 15-12-2019 14:52:17 9 C 20 %
3834 15-12-2019 15:02:17 9 C 20 %
3835 15-12-2019 15:12:17 8.9 C 20 %
3836 15-12-2019 15:22:17 8.9 C 20 %
3837 15-12-2019 15:32:17 8.8 C 20 %
3838 15-12-2019 15:42:17 8.7 C 20 %
3839 15-12-2019 15:52:17 8.7 C 20 %
3840 15-12-2019 16:02:17 8.4 C 20 %
3841 15-12-2019 16:12:17 8.2 C 20 %
3842 15-12-2019 16:22:18 8.4 C 20 %
3843 15-12-2019 16:32:17 7.9 C 20 %
3844 15-12-2019 16:42:17 7.6 C 20 %
3845 15-12-2019 16:52:17 8 C 20 %
3846 15-12-2019 17:02:17 7.4 C 20 %
3847 15-12-2019 17:12:17 7.4 C 20 %
3848 15-12-2019 17:22:17 7.8 C 20 %
3849 15-12-2019 17:32:17 7.2 C 21 %
3850 15-12-2019 17:42:17 7.6 C 20 %
Sensor: Nr:Datum:Temp:Feuchte:
Aussen-T/F 3851 15-12-2019 17:52:17 7.7 C 20 %
3852 15-12-2019 18:02:17 7.5 C 20 %
3853 15-12-2019 18:12:17 8.2 C 20 %
3854 15-12-2019 18:22:17 7.5 C 20 %
3855 15-12-2019 18:32:17 6.9 C 25 %
3856 15-12-2019 18:42:17 6.2 C 27 %
3857 15-12-2019 18:52:18 5.9 C 29 %
3858 15-12-2019 19:02:17 5.4 C 30 %
3859 15-12-2019 19:12:17 5.3 C 31 %
3860 15-12-2019 19:22:17 4.9 C 32 %
3861 15-12-2019 19:32:18 5.3 C 32 %
3862 15-12-2019 19:42:18 5 C 33 %
3863 15-12-2019 19:52:17 5.4 C 33 %
3864 15-12-2019 20:02:17 5.2 C 33 %
3865 15-12-2019 20:12:17 4.7 C 35 %
3866 15-12-2019 20:22:17 4.4 C 36 %
3867 15-12-2019 20:32:17 4.3 C 37 %
3868 15-12-2019 20:42:17 3.9 C 39 %
3869 15-12-2019 20:52:17 3.7 C 40 %
3870 15-12-2019 21:02:17 3.5 C 41 %
3871 15-12-2019 21:12:17 3.3 C 41 %
3872 15-12-2019 21:22:17 3.1 C 41 %
3873 15-12-2019 21:32:18 2.8 C 42 %
3874 15-12-2019 21:42:18 2.9 C 43 %
3875 15-12-2019 21:52:17 3.3 C 43 %
Sensor: Nr:Datum:Temp:Feuchte:
Aussen-T/F 3876 15-12-2019 22:02:17 3.3 C 44 %
3877 15-12-2019 22:12:17 3.3 C 43 %
3878 15-12-2019 22:22:17 3.5 C 43 %
3879 15-12-2019 22:32:17 3.5 C 43 %
3880 15-12-2019 22:42:17 3.4 C 43 %
3881 15-12-2019 22:52:18 3.3 C 43 %
3882 15-12-2019 23:02:17 3.5 C 43 %
3883 15-12-2019 23:12:18 3.6 C 43 %
3884 15-12-2019 23:22:17 3.7 C 43 %
3885 15-12-2019 23:32:18 3.5 C 42 %
3886 15-12-2019 23:42:18 3.3 C 42 %
3887 15-12-2019 23:52:17 3.8 C 43 %
3888 16-12-2019 00:02:17 4 C 42 %
3889 16-12-2019 00:12:17 4.4 C 42 %
3890 16-12-2019 00:22:17 4.4 C 42 %
3891 16-12-2019 00:32:17 4.5 C 42 %
3892 16-12-2019 00:42:17 4.5 C 42 %
3893 16-12-2019 00:52:18 4.7 C 42 %
3894 16-12-2019 01:02:17 5.1 C 41 %
3895 16-12-2019 01:12:17 5 C 41 %
3896 16-12-2019 01:22:17 5.2 C 42 %
3897 16-12-2019 01:32:17 5.2 C 41 %
3898 16-12-2019 01:42:18 5.3 C 42 %
3899 16-12-2019 01:52:17 5.5 C 42 %
3900 16-12-2019 02:02:18 5.4 C 42 %
Sensor: Nr:Datum:Temp:Feuchte:
Aussen-T/F 3901 16-12-2019 02:12:18 5.5 C 42 %
3902 16-12-2019 02:22:17 5.7 C 42 %
3903 16-12-2019 02:32:17 5.7 C 42 %
3904 16-12-2019 02:42:17 5.9 C 42 %
3905 16-12-2019 02:52:18 5.8 C 41 %
3906 16-12-2019 03:02:17 5.8 C 41 %
3907 16-12-2019 03:12:17 5.9 C 41 %
3908 16-12-2019 03:22:17 5.9 C 41 %
3909 16-12-2019 03:32:18 5.9 C 41 %
3910 16-12-2019 03:42:18 5.8 C 41 %
3911 16-12-2019 03:52:17 6 C 41 %
3912 16-12-2019 04:02:17 6 C 41 %
3913 16-12-2019 04:12:17 6 C 41 %
3914 16-12-2019 04:22:17 5.9 C 41 %
3915 16-12-2019 04:32:17 6.1 C 41 %
3916 16-12-2019 04:42:17 6.2 C 41 %
3917 16-12-2019 04:52:17 6.3 C 41 %
3918 16-12-2019 05:02:17 6.4 C 41 %
3919 16-12-2019 05:12:17 6.4 C 41 %
3920 16-12-2019 05:22:17 6.5 C 41 %
3921 16-12-2019 05:32:17 6.6 C 41 %
3922 16-12-2019 05:42:17 6.6 C 41 %
3923 16-12-2019 05:52:17 6.8 C 41 %
3924 16-12-2019 06:02:17 6.9 C 41 %
3925 16-12-2019 06:12:17 6.9 C 41 %
Sensor: Nr:Datum:Temp:Feuchte:
Aussen-T/F 3926 16-12-2019 06:22:17 6.8 C 40 %
3927 16-12-2019 06:32:17 6.7 C 40 %
3928 16-12-2019 06:42:17 6.8 C 40 %
3929 16-12-2019 06:52:17 6.8 C 40 %
3930 16-12-2019 07:02:17 6.8 C 40 %
3931 16-12-2019 07:12:17 6.7 C 40 %
3932 16-12-2019 07:22:17 6.8 C 40 %
3933 16-12-2019 07:32:18 6.9 C 41 %
3934 16-12-2019 07:42:18 6.9 C 41 %
3935 16-12-2019 07:52:17 7 C 40 %
3936 16-12-2019 08:02:17 7.1 C 40 %
3937 16-12-2019 08:12:17 7 C 40 %
3938 16-12-2019 08:22:17 7.1 C 40 %
3939 16-12-2019 08:32:17 7.1 C 40 %
3940 16-12-2019 08:42:17 7.1 C 40 %
3941 16-12-2019 08:52:17 7.2 C 40 %
3942 16-12-2019 09:02:17 7.3 C 40 %
3943 16-12-2019 09:12:17 7.5 C 40 %
3944 16-12-2019 09:22:18 7.4 C 40 %
3945 16-12-2019 09:32:17 7.5 C 40 %
3946 16-12-2019 09:42:17 7.5 C 40 %
3947 16-12-2019 09:52:17 7.6 C 40 %
3948 16-12-2019 10:02:18 7.6 C 40 %
3949 16-12-2019 10:12:18 7.7 C 40 %
3950 16-12-2019 10:22:17 7.8 C 40 %
Sensor: Nr:Datum:Temp:Feuchte:
Aussen-T/F 3951 16-12-2019 10:32:17 7.9 C 40 %
3952 16-12-2019 10:42:17 8.1 C 40 %
3953 16-12-2019 10:52:17 8.2 C 40 %
3954 16-12-2019 11:02:17 8.3 C 40 %
3955 16-12-2019 11:12:17 8.5 C 40 %
3956 16-12-2019 11:22:17 8.9 C 40 %
3957 16-12-2019 11:32:18 8.8 C 39 %
3958 16-12-2019 11:42:18 9.1 C 39 %
3959 16-12-2019 11:52:17 9.4 C 39 %
3960 16-12-2019 12:02:17 9.3 C 38 %
3961 16-12-2019 12:12:17 9.3 C 37 %
3962 16-12-2019 12:22:17 9.3 C 37 %
3963 16-12-2019 12:32:17 9.4 C 37 %
3964 16-12-2019 12:42:17 9.4 C 38 %
3965 16-12-2019 12:52:17 9.8 C 38 %
3966 16-12-2019 13:02:17 9.9 C 36 %
3967 16-12-2019 13:12:17 9.9 C 36 %
3968 16-12-2019 13:22:17 10 C 35 %
3969 16-12-2019 13:32:17 10.2 C 34 %
3970 16-12-2019 13:42:17 10.2 C 35 %
3971 16-12-2019 13:52:18 10.3 C 34 %
3972 16-12-2019 14:02:17 10.1 C 34 %
3973 16-12-2019 14:12:17 10.2 C 34 %
3974 16-12-2019 14:22:17 10.3 C 34 %
3975 16-12-2019 14:32:17 10.2 C 33 %
Sensor: Nr:Datum:Temp:Feuchte:
Aussen-T/F 3976 16-12-2019 14:42:17 10.1 C 34 %
3977 16-12-2019 14:52:18 10.1 C 34 %
3978 16-12-2019 15:02:17 9.9 C 35 %
3979 16-12-2019 15:12:17 9.8 C 35 %
3980 16-12-2019 15:22:17 9.6 C 36 %
3981 16-12-2019 15:32:18 9.3 C 37 %
3982 16-12-2019 15:42:18 9.1 C 39 %
3983 16-12-2019 15:52:17 9 C 40 %
3984 16-12-2019 16:02:17 8.7 C 40 %
3985 16-12-2019 16:12:17 8.5 C 40 %
3986 16-12-2019 16:22:17 8.4 C 40 %
3987 16-12-2019 16:32:18 8.2 C 41 %
3988 16-12-2019 16:42:18 8 C 40 %
3989 16-12-2019 16:52:17 7.7 C 41 %
3990 16-12-2019 17:02:17 7.4 C 41 %
3991 16-12-2019 17:12:17 7.3 C 41 %
3992 16-12-2019 17:22:17 7.5 C 41 %
3993 16-12-2019 17:32:17 7.3 C 41 %
3994 16-12-2019 17:42:17 7.2 C 41 %
3995 16-12-2019 17:52:17 7 C 41 %
3996 16-12-2019 18:02:17 7.1 C 41 %
3997 16-12-2019 18:12:17 7.4 C 41 %
3998 16-12-2019 18:22:17 7.5 C 41 %
3999 16-12-2019 18:32:17 8.2 C 40 %
4000 16-12-2019 18:42:17 8.1 C 38 %
Sensor: Nr:Datum:Temp:Feuchte:
Aussen-T/F 4001 16-12-2019 18:52:17 8.7 C 37 %
4002 16-12-2019 19:02:18 8.5 C 35 %
4003 16-12-2019 19:12:18 7.9 C 36 %
4004 16-12-2019 19:22:17 7.7 C 37 %
4005 16-12-2019 19:32:17 8.5 C 40 %
4006 16-12-2019 19:42:17 7.9 C 37 %
4007 16-12-2019 19:52:18 8 C 37 %
4008 16-12-2019 20:02:17 7.9 C 37 %
4009 16-12-2019 20:12:17 8.1 C 36 %
4010 16-12-2019 20:22:17 7.7 C 37 %
4011 16-12-2019 20:32:17 8 C 39 %
4012 16-12-2019 20:42:17 7.9 C 36 %
4013 16-12-2019 20:52:17 7.8 C 36 %
4014 16-12-2019 21:02:17 7.3 C 37 %
4015 16-12-2019 21:12:17 7.2 C 40 %
4016 16-12-2019 21:22:17 7.5 C 39 %
4017 16-12-2019 21:32:17 7.2 C 38 %
4018 16-12-2019 21:42:17 7 C 40 %
4019 16-12-2019 21:52:17 6.7 C 41 %
4020 16-12-2019 22:02:17 6.9 C 41 %
4021 16-12-2019 22:12:17 7.5 C 40 %
4022 16-12-2019 22:22:17 7.4 C 38 %
4023 16-12-2019 22:32:17 7.9 C 37 %
4024 16-12-2019 22:42:17 7.8 C 36 %
4025 16-12-2019 22:52:18 7.3 C 37 %
Sensor: Nr:Datum:Temp:Feuchte:
Aussen-T/F 4026 16-12-2019 23:02:17 7.3 C 39 %
4027 16-12-2019 23:12:17 7.3 C 39 %
4028 16-12-2019 23:22:17 7.5 C 40 %
4029 16-12-2019 23:32:17 7.6 C 39 %
4030 16-12-2019 23:42:17 7.6 C 39 %
4031 16-12-2019 23:52:18 7.8 C 39 %
4032 17-12-2019 00:02:17 7.6 C 37 %
4033 17-12-2019 00:12:17 7.5 C 38 %
4034 17-12-2019 00:22:17 7.6 C 38 %
4035 17-12-2019 00:32:18 7.3 C 39 %
4036 17-12-2019 00:42:18 7.2 C 40 %
4037 17-12-2019 00:52:17 7.4 C 39 %
4038 17-12-2019 01:02:17 7.2 C 39 %
4039 17-12-2019 01:12:17 7.4 C 40 %
4040 17-12-2019 01:22:17 7.8 C 39 %
4041 17-12-2019 01:32:17 7.3 C 37 %
4042 17-12-2019 01:42:17 7.4 C 38 %
4043 17-12-2019 01:52:17 7.4 C 37 %
4044 17-12-2019 02:02:18 7.4 C 37 %
4045 17-12-2019 02:12:18 7.6 C 37 %
4046 17-12-2019 02:22:17 7.3 C 37 %
4047 17-12-2019 02:32:17 7.1 C 37 %
4048 17-12-2019 02:42:17 7.5 C 36 %
4049 17-12-2019 02:52:18 7.6 C 36 %
4050 17-12-2019 03:02:17 8 C 35 %
Sensor: Nr:Datum:Temp:Feuchte:
Aussen-T/F 4051 17-12-2019 03:12:17 8.1 C 35 %
4052 17-12-2019 03:22:17 8.4 C 35 %
4053 17-12-2019 03:32:17 8.8 C 32 %
4054 17-12-2019 03:42:17 8.9 C 32 %
4055 17-12-2019 03:52:18 8.8 C 32 %
4056 17-12-2019 04:02:17 8.5 C 32 %
4057 17-12-2019 04:12:17 8.5 C 32 %
4058 17-12-2019 04:22:17 8.4 C 32 %
4059 17-12-2019 04:32:17 8.4 C 32 %
4060 17-12-2019 04:42:17 8 C 32 %
4061 17-12-2019 04:52:18 8.3 C 33 %
4062 17-12-2019 05:02:17 8.5 C 33 %
4063 17-12-2019 05:12:17 8.5 C 33 %
4064 17-12-2019 05:22:17 8.2 C 33 %
4065 17-12-2019 05:32:17 8.1 C 34 %
4066 17-12-2019 05:42:17 7.9 C 35 %
4067 17-12-2019 05:52:17 7.9 C 36 %
4068 17-12-2019 06:02:17 7.8 C 36 %
4069 17-12-2019 06:12:17 7.3 C 36 %
4070 17-12-2019 06:22:18 7.3 C 38 %
4071 17-12-2019 06:32:17 7.5 C 38 %
4072 17-12-2019 06:42:17 7.6 C 36 %
4073 17-12-2019 06:52:17 7.6 C 38 %
4074 17-12-2019 07:02:17 7.7 C 36 %
4075 17-12-2019 07:12:17 7.6 C 37 %
Sensor: Nr:Datum:Temp:Feuchte:
Aussen-T/F 4076 17-12-2019 07:22:17 7.5 C 36 %
4077 17-12-2019 07:32:18 7 C 37 %
4078 17-12-2019 07:42:18 7.4 C 38 %
4079 17-12-2019 07:52:17 7.2 C 36 %
4080 17-12-2019 08:02:17 7.2 C 36 %
4081 17-12-2019 08:12:17 6.9 C 37 %
4082 17-12-2019 08:22:17 6.9 C 38 %
4083 17-12-2019 08:32:17 7 C 38 %
4084 17-12-2019 08:42:18 6.9 C 37 %
4085 17-12-2019 08:52:17 6.9 C 37 %
4086 17-12-2019 09:02:17 6.5 C 38 %
4087 17-12-2019 09:12:17 6.4 C 39 %
4088 17-12-2019 09:22:18 6.5 C 40 %
4089 17-12-2019 09:32:17 6.4 C 40 %
4090 17-12-2019 09:42:17 6.6 C 40 %
4091 17-12-2019 09:52:17 6.3 C 39 %
4092 17-12-2019 10:02:18 6.4 C 40 %
4093 17-12-2019 10:12:18 6.4 C 40 %
4094 17-12-2019 10:22:17 6.4 C 39 %
4095 17-12-2019 10:32:17 6.8 C 40 %
4096 17-12-2019 10:42:17 7.2 C 37 %
4097 17-12-2019 10:52:17 8 C 36 %
4098 17-12-2019 11:02:17 8.6 C 34 %
4099 17-12-2019 11:12:17 8.5 C 32 %
4100 17-12-2019 11:22:17 8.7 C 32 %
Sensor: Nr:Datum:Temp:Feuchte:
Aussen-T/F 4101 17-12-2019 11:32:17 9 C 32 %
4102 17-12-2019 11:42:17 9.1 C 32 %
4103 17-12-2019 11:52:17 9 C 32 %
4104 17-12-2019 12:02:17 9 C 34 %
4105 17-12-2019 12:12:17 9.2 C 34 %
4106 17-12-2019 12:22:17 9.5 C 33 %
4107 17-12-2019 12:32:17 9.7 C 32 %
4108 17-12-2019 12:42:17 9.8 C 32 %
4109 17-12-2019 12:52:17 9.6 C 32 %
4110 17-12-2019 13:02:17 10.1 C 31 %
4111 17-12-2019 13:12:17 10.4 C 30 %
4112 17-12-2019 13:22:17 10.6 C 30 %
4113 17-12-2019 13:32:17 11 C 29 %
4114 17-12-2019 13:42:17 11.6 C 28 %
4115 17-12-2019 13:52:18 12.3 C 26 %
4116 17-12-2019 14:02:17 12.5 C 26 %
4117 17-12-2019 14:12:17 12.4 C 26 %
4118 17-12-2019 14:22:17 11.6 C 27 %
4119 17-12-2019 14:32:17 11.4 C 27 %
4120 17-12-2019 14:42:17 11.5 C 27 %
4121 17-12-2019 14:52:17 11.8 C 27 %
4122 17-12-2019 15:02:17 12 C 26 %
4123 17-12-2019 15:12:17 12 C 26 %
4124 17-12-2019 15:22:17 11.8 C 27 %
4125 17-12-2019 15:32:17 11.8 C 27 %
Sensor: Nr:Datum:Temp:Feuchte:
Aussen-T/F 4126 17-12-2019 15:42:17 12.3 C 25 %
4127 17-12-2019 15:52:18 12.2 C 25 %
4128 17-12-2019 16:02:17 12.4 C 25 %
4129 17-12-2019 16:12:17 12.4 C 25 %
4130 17-12-2019 16:22:17 12.5 C 25 %
4131 17-12-2019 16:32:18 12.6 C 25 %
4132 17-12-2019 16:42:18 12.2 C 25 %
4133 17-12-2019 16:52:17 11.8 C 25 %
4134 17-12-2019 17:02:17 11.2 C 26 %
4135 17-12-2019 17:12:18 11.5 C 25 %
4136 17-12-2019 17:22:17 12 C 24 %
4137 17-12-2019 17:32:18 13.1 C 20 %
4138 17-12-2019 17:42:18 13.4 C 20 %
4139 17-12-2019 17:52:17 13.8 C 20 %
4140 17-12-2019 18:02:17 13.4 C 20 %
4141 17-12-2019 18:12:17 13.2 C 20 %
4142 17-12-2019 18:22:17 13.6 C 20 %
4143 17-12-2019 18:32:17 13.7 C 20 %
4144 17-12-2019 18:42:17 13.1 C 21 %
4145 17-12-2019 18:52:17 12.7 C 25 %
4146 17-12-2019 19:02:17 12.8 C 25 %
4147 17-12-2019 19:12:17 13.1 C 22 %
4148 17-12-2019 19:22:17 12.8 C 25 %
4149 17-12-2019 19:32:18 11.7 C 29 %
4150 17-12-2019 19:42:18 11.6 C 29 %
Sensor: Nr:Datum:Temp:Feuchte:
Aussen-T/F 4151 17-12-2019 19:52:17 11.6 C 30 %
4152 17-12-2019 20:02:18 11.6 C 30 %
4153 17-12-2019 20:12:18 11.5 C 31 %
4154 17-12-2019 20:22:17 11.6 C 31 %
4155 17-12-2019 20:32:17 11.3 C 33 %
4156 17-12-2019 20:42:17 11.2 C 35 %
4157 17-12-2019 20:52:17 11 C 36 %
4158 17-12-2019 21:02:17 10.9 C 36 %
4159 17-12-2019 21:12:17 10.5 C 38 %
4160 17-12-2019 21:22:17 10.3 C 39 %
4161 17-12-2019 21:32:17 10.4 C 38 %
4162 17-12-2019 21:42:17 11.5 C 31 %
4163 17-12-2019 21:52:17 11.3 C 31 %
4164 17-12-2019 22:02:17 13 C 25 %
4165 17-12-2019 22:12:17 12.5 C 26 %
4166 17-12-2019 22:22:17 13.1 C 25 %
4167 17-12-2019 22:32:17 13.4 C 25 %
4168 17-12-2019 22:42:17 13.2 C 25 %
4169 17-12-2019 22:52:17 13.1 C 25 %
4170 17-12-2019 23:02:17 12.4 C 26 %
4171 17-12-2019 23:12:17 11.9 C 29 %
4172 17-12-2019 23:22:17 11.3 C 30 %
4173 17-12-2019 23:32:17 11.1 C 31 %
4174 17-12-2019 23:42:17 11 C 30 %
4175 17-12-2019 23:52:17 10.8 C 33 %
Sensor: Nr:Datum:Temp:Feuchte:
G-T/H 1 19-11-2019 00:09:17 9.5 C 72 %
2 19-11-2019 00:19:17 9.5 C 72 %
3 19-11-2019 00:29:17 9.5 C 72 %
4 19-11-2019 00:39:17 9.5 C 72 %
5 19-11-2019 00:49:18 9.6 C 72 %
6 19-11-2019 00:59:18 9.6 C 72 %
7 19-11-2019 01:09:17 9.5 C 72 %
8 19-11-2019 01:19:17 9.5 C 72 %
9 19-11-2019 01:29:17 9.5 C 72 %
10 19-11-2019 01:39:18 9.5 C 72 %
11 19-11-2019 01:49:18 9.5 C 72 %
12 19-11-2019 01:59:18 9.5 C 72 %
13 19-11-2019 02:09:18 9.5 C 72 %
14 19-11-2019 02:19:17 9.5 C 72 %
15 19-11-2019 02:29:17 9.5 C 72 %
16 19-11-2019 02:39:17 9.5 C 72 %
17 19-11-2019 02:49:17 9.5 C 72 %
18 19-11-2019 02:59:17 9.5 C 72 %
19 19-11-2019 03:09:17 9.5 C 72 %
20 19-11-2019 03:19:17 9.5 C 72 %
21 19-11-2019 03:29:17 9.5 C 72 %
22 19-11-2019 03:39:17 9.5 C 72 %
23 19-11-2019 03:49:17 9.5 C 72 %
24 19-11-2019 03:59:17 9.5 C 72 %
25 19-11-2019 04:09:17 9.5 C 72 %
Sensor: Nr:Datum:Temp:Feuchte:
G-T/H 26 19-11-2019 04:19:18 9.5 C 72 %
27 19-11-2019 04:29:18 9.5 C 72 %
28 19-11-2019 04:39:17 9.5 C 72 %
29 19-11-2019 04:49:17 9.5 C 72 %
30 19-11-2019 04:59:17 9.5 C 72 %
31 19-11-2019 05:09:17 9.5 C 72 %
32 19-11-2019 05:19:18 9.5 C 72 %
33 19-11-2019 05:29:18 9.5 C 72 %
34 19-11-2019 05:39:17 9.4 C 72 %
35 19-11-2019 05:49:17 9.4 C 72 %
36 19-11-2019 05:59:17 9.4 C 72 %
37 19-11-2019 06:09:17 9.4 C 72 %
38 19-11-2019 06:19:17 9.4 C 72 %
39 19-11-2019 06:29:17 9.4 C 72 %
40 19-11-2019 06:39:17 9.4 C 72 %
41 19-11-2019 06:49:17 9.4 C 72 %
42 19-11-2019 06:59:17 9.4 C 72 %
43 19-11-2019 07:09:17 9.4 C 72 %
44 19-11-2019 07:19:17 9.4 C 72 %
45 19-11-2019 07:29:17 9.4 C 72 %
46 19-11-2019 07:39:17 9.4 C 72 %
47 19-11-2019 07:49:17 9.4 C 72 %
48 19-11-2019 07:59:17 9.3 C 72 %
49 19-11-2019 08:09:17 9.3 C 72 %
50 19-11-2019 08:19:17 9.3 C 72 %
Sensor: Nr:Datum:Temp:Feuchte:
G-T/H 51 19-11-2019 08:29:17 9.3 C 72 %
52 19-11-2019 08:39:17 9.3 C 72 %
53 19-11-2019 08:49:17 9.3 C 72 %
54 19-11-2019 08:59:17 9.3 C 72 %
55 19-11-2019 09:09:17 9.4 C 72 %
56 19-11-2019 09:19:17 9.3 C 72 %
57 19-11-2019 09:29:17 9.3 C 72 %
58 19-11-2019 09:39:17 9.3 C 72 %
59 19-11-2019 09:49:17 9.4 C 72 %
60 19-11-2019 09:59:17 9.3 C 72 %
61 19-11-2019 10:09:17 9.3 C 72 %
62 19-11-2019 10:19:17 9.4 C 72 %
63 19-11-2019 10:29:17 9.4 C 72 %
64 19-11-2019 10:39:17 9.3 C 72 %
65 19-11-2019 10:49:17 9.3 C 72 %
66 19-11-2019 10:59:17 9.3 C 72 %
67 19-11-2019 11:09:17 9.3 C 72 %
68 19-11-2019 11:19:17 9.3 C 72 %
69 19-11-2019 11:29:17 9.3 C 72 %
70 19-11-2019 11:39:17 9.3 C 72 %
71 19-11-2019 11:49:17 9.3 C 72 %
72 19-11-2019 11:59:17 9.4 C 72 %
73 19-11-2019 12:09:17 9.3 C 72 %
74 19-11-2019 12:19:17 9.4 C 72 %
75 19-11-2019 12:29:17 9.4 C 72 %
Sensor: Nr:Datum:Temp:Feuchte:
G-T/H 76 19-11-2019 12:39:17 9.4 C 72 %
77 19-11-2019 12:49:17 9.4 C 72 %
78 19-11-2019 12:59:17 9.4 C 72 %
79 19-11-2019 13:09:17 9.4 C 72 %
80 19-11-2019 13:19:17 9.4 C 72 %
81 19-11-2019 13:29:17 9.4 C 72 %
82 19-11-2019 13:39:17 9.4 C 72 %
83 19-11-2019 13:49:17 9.4 C 72 %
84 19-11-2019 13:59:17 9.4 C 72 %
85 19-11-2019 14:09:17 9.4 C 72 %
86 19-11-2019 14:19:17 9.4 C 72 %
87 19-11-2019 14:29:17 9.5 C 72 %
88 19-11-2019 14:39:17 9.4 C 72 %
89 19-11-2019 14:49:17 9.4 C 72 %
90 19-11-2019 14:59:17 9.5 C 72 %
91 19-11-2019 15:09:17 9.4 C 72 %
92 19-11-2019 15:19:18 9.4 C 72 %
93 19-11-2019 15:29:18 9.5 C 72 %
94 19-11-2019 15:39:17 9.5 C 72 %
95 19-11-2019 15:49:17 9.5 C 72 %
96 19-11-2019 15:59:17 9.5 C 73 %
97 19-11-2019 16:09:17 9.5 C 73 %
98 19-11-2019 16:19:17 9.5 C 73 %
99 19-11-2019 16:29:17 9.5 C 73 %
100 19-11-2019 16:39:17 9.4 C 73 %
Sensor: Nr:Datum:Temp:Feuchte:
G-T/H 101 19-11-2019 16:49:17 9.5 C 73 %
102 19-11-2019 16:59:17 9.5 C 73 %
103 19-11-2019 17:09:17 9.5 C 73 %
104 19-11-2019 17:19:17 9.4 C 73 %
105 19-11-2019 17:29:17 9.4 C 73 %
106 19-11-2019 17:39:17 9.4 C 73 %
107 19-11-2019 17:49:17 9.4 C 73 %
108 19-11-2019 17:59:17 9.4 C 73 %
109 19-11-2019 18:09:17 9.4 C 72 %
110 19-11-2019 18:19:17 9.4 C 72 %
111 19-11-2019 18:29:17 9.4 C 72 %
112 19-11-2019 18:39:17 9.4 C 72 %
113 19-11-2019 18:49:17 9.4 C 72 %
114 19-11-2019 18:59:17 9.4 C 72 %
115 19-11-2019 19:09:17 9.4 C 72 %
116 19-11-2019 19:19:17 9.4 C 72 %
117 19-11-2019 19:29:17 9.4 C 72 %
118 19-11-2019 19:39:17 9.4 C 72 %
119 19-11-2019 19:49:17 9.4 C 72 %
120 19-11-2019 19:59:17 9.4 C 72 %
121 19-11-2019 20:09:17 9.4 C 72 %
122 19-11-2019 20:19:17 9.4 C 72 %
123 19-11-2019 20:29:17 9.4 C 72 %
124 19-11-2019 20:39:17 9.4 C 72 %
125 19-11-2019 20:49:17 9.4 C 72 %
Sensor: Nr:Datum:Temp:Feuchte:
G-T/H 126 19-11-2019 20:59:17 9.4 C 72 %
127 19-11-2019 21:09:17 9.4 C 72 %
128 19-11-2019 21:19:17 9.4 C 72 %
129 19-11-2019 21:29:17 9.4 C 72 %
130 19-11-2019 21:39:17 9.4 C 72 %
131 19-11-2019 21:49:17 9.4 C 72 %
132 19-11-2019 21:59:17 9.3 C 72 %
133 19-11-2019 22:09:17 9.3 C 72 %
134 19-11-2019 22:19:17 9.3 C 72 %
135 19-11-2019 22:29:17 9.3 C 72 %
136 19-11-2019 22:39:17 9.3 C 72 %
137 19-11-2019 22:49:17 9.3 C 72 %
138 19-11-2019 22:59:17 9.3 C 72 %
139 19-11-2019 23:09:17 9.3 C 72 %
140 19-11-2019 23:19:17 9.3 C 72 %
141 19-11-2019 23:29:17 9.3 C 72 %
142 19-11-2019 23:39:17 9.3 C 72 %
143 19-11-2019 23:49:17 9.3 C 72 %
144 19-11-2019 23:59:17 9.3 C 71 %
145 20-11-2019 00:09:17 9.2 C 71 %
146 20-11-2019 00:19:17 9.2 C 71 %
147 20-11-2019 00:29:17 9.2 C 71 %
148 20-11-2019 00:39:17 9.2 C 71 %
149 20-11-2019 00:49:17 9.2 C 71 %
150 20-11-2019 00:59:17 9.2 C 71 %
Sensor: Nr:Datum:Temp:Feuchte:
G-T/H 151 20-11-2019 01:09:17 9.2 C 71 %
152 20-11-2019 01:19:17 9.2 C 71 %
153 20-11-2019 01:29:17 9.1 C 71 %
154 20-11-2019 01:39:17 9.1 C 71 %
155 20-11-2019 01:49:17 9.2 C 71 %
156 20-11-2019 01:59:17 9.1 C 71 %
157 20-11-2019 02:09:17 9.1 C 71 %
158 20-11-2019 02:19:17 9.1 C 71 %
159 20-11-2019 02:29:17 9.1 C 71 %
160 20-11-2019 02:39:17 9.1 C 71 %
161 20-11-2019 02:49:17 9.1 C 71 %
162 20-11-2019 02:59:17 9.1 C 71 %
163 20-11-2019 03:09:17 9.1 C 71 %
164 20-11-2019 03:19:17 9.1 C 71 %
165 20-11-2019 03:29:17 9.1 C 70 %
166 20-11-2019 03:39:17 9.1 C 70 %
167 20-11-2019 03:49:17 9.1 C 70 %
168 20-11-2019 03:59:17 9 C 70 %
169 20-11-2019 04:09:17 9 C 70 %
170 20-11-2019 04:19:17 9 C 70 %
171 20-11-2019 04:29:17 9 C 70 %
172 20-11-2019 04:39:17 9 C 70 %
173 20-11-2019 04:49:17 9 C 70 %
174 20-11-2019 04:59:17 9 C 70 %
175 20-11-2019 05:09:17 9 C 70 %
Sensor: Nr:Datum:Temp:Feuchte:
G-T/H 176 20-11-2019 05:19:17 9 C 70 %
177 20-11-2019 05:29:17 9 C 70 %
178 20-11-2019 05:39:17 9 C 70 %
179 20-11-2019 05:49:17 9 C 70 %
180 20-11-2019 05:59:17 9 C 70 %
181 20-11-2019 06:09:17 8.9 C 71 %
182 20-11-2019 06:19:17 9 C 70 %
183 20-11-2019 06:29:17 8.9 C 71 %
184 20-11-2019 06:39:17 8.9 C 71 %
185 20-11-2019 06:49:17 8.9 C 71 %
186 20-11-2019 06:59:17 8.9 C 71 %
187 20-11-2019 07:09:17 8.9 C 71 %
188 20-11-2019 07:19:17 8.9 C 71 %
189 20-11-2019 07:29:17 8.9 C 71 %
190 20-11-2019 07:39:18 8.9 C 71 %
191 20-11-2019 07:49:17 8.9 C 71 %
192 20-11-2019 07:59:17 8.9 C 71 %
193 20-11-2019 08:09:17 8.9 C 71 %
194 20-11-2019 08:19:17 8.9 C 71 %
195 20-11-2019 08:29:17 8.9 C 71 %
196 20-11-2019 08:39:17 8.8 C 71 %
197 20-11-2019 08:49:17 8.9 C 71 %
198 20-11-2019 08:59:17 8.9 C 71 %
199 20-11-2019 09:09:17 8.9 C 71 %
200 20-11-2019 09:19:17 8.8 C 71 %
Sensor: Nr:Datum:Temp:Feuchte:
G-T/H 201 20-11-2019 09:29:17 8.9 C 71 %
202 20-11-2019 09:39:17 8.8 C 71 %
203 20-11-2019 09:49:17 8.9 C 71 %
204 20-11-2019 09:59:17 8.8 C 71 %
205 20-11-2019 10:09:17 8.8 C 71 %
206 20-11-2019 10:19:17 8.8 C 71 %
207 20-11-2019 10:29:17 8.9 C 71 %
208 20-11-2019 10:39:17 8.9 C 71 %
209 20-11-2019 10:49:17 8.9 C 71 %
210 20-11-2019 10:59:17 8.8 C 71 %
211 20-11-2019 11:09:17 8.9 C 71 %
212 20-11-2019 11:19:17 8.8 C 71 %
213 20-11-2019 11:29:17 8.9 C 72 %
214 20-11-2019 11:39:17 8.9 C 72 %
215 20-11-2019 11:49:17 8.9 C 72 %
216 20-11-2019 11:59:17 8.9 C 72 %
217 20-11-2019 12:09:17 8.9 C 72 %
218 20-11-2019 12:19:17 8.9 C 72 %
219 20-11-2019 12:29:17 8.9 C 72 %
220 20-11-2019 12:39:17 8.9 C 72 %
221 20-11-2019 12:49:17 8.9 C 72 %
222 20-11-2019 12:59:17 8.9 C 72 %
223 20-11-2019 13:09:17 8.9 C 72 %
224 20-11-2019 13:19:17 8.9 C 72 %
225 20-11-2019 13:29:17 8.9 C 72 %
Sensor: Nr:Datum:Temp:Feuchte:
G-T/H 226 20-11-2019 13:39:17 8.9 C 72 %
227 20-11-2019 13:49:17 8.9 C 72 %
228 20-11-2019 13:59:17 8.9 C 72 %
229 20-11-2019 14:09:17 8.9 C 72 %
230 20-11-2019 14:19:17 8.9 C 72 %
231 20-11-2019 14:29:17 9 C 71 %
232 20-11-2019 14:39:17 8.9 C 72 %
233 20-11-2019 14:49:17 8.9 C 72 %
234 20-11-2019 14:59:17 9 C 71 %
235 20-11-2019 15:09:17 8.9 C 72 %
236 20-11-2019 15:19:17 9 C 71 %
237 20-11-2019 15:29:17 9 C 71 %
238 20-11-2019 15:39:17 9 C 71 %
239 20-11-2019 15:49:17 9 C 71 %
240 20-11-2019 15:59:17 9 C 71 %
241 20-11-2019 16:09:17 9 C 71 %
242 20-11-2019 16:19:17 9 C 71 %
243 20-11-2019 16:29:17 9 C 71 %
244 20-11-2019 16:39:17 9 C 71 %
245 20-11-2019 16:49:17 9 C 71 %
246 20-11-2019 16:59:17 8.9 C 72 %
247 20-11-2019 17:09:17 9 C 71 %
248 20-11-2019 17:19:17 9 C 71 %
249 20-11-2019 17:29:17 8.9 C 72 %
250 20-11-2019 17:39:17 9 C 71 %
Sensor: Nr:Datum:Temp:Feuchte:
G-T/H 251 20-11-2019 17:49:17 9 C 71 %
252 20-11-2019 17:59:17 8.9 C 72 %
253 20-11-2019 18:09:17 8.9 C 72 %
254 20-11-2019 18:19:17 8.9 C 72 %
255 20-11-2019 18:29:17 8.9 C 72 %
256 20-11-2019 18:39:17 8.9 C 72 %
257 20-11-2019 18:49:17 8.9 C 72 %
258 20-11-2019 18:59:17 8.9 C 72 %
259 20-11-2019 19:09:17 8.9 C 72 %
260 20-11-2019 19:19:17 8.9 C 72 %
261 20-11-2019 19:29:17 8.9 C 72 %
262 20-11-2019 19:39:18 8.9 C 72 %
263 20-11-2019 19:49:18 8.9 C 72 %
264 20-11-2019 19:59:18 8.9 C 72 %
265 20-11-2019 20:09:18 8.9 C 72 %
266 20-11-2019 20:19:17 8.9 C 72 %
267 20-11-2019 20:29:17 8.9 C 71 %
268 20-11-2019 20:39:17 8.9 C 71 %
269 20-11-2019 20:59:17 8.9 C 71 %
270 20-11-2019 20:59:17 8.8 C 71 %
271 20-11-2019 21:09:17 8.8 C 71 %
272 20-11-2019 21:19:17 8.8 C 71 %
273 20-11-2019 21:29:17 8.8 C 71 %
274 20-11-2019 21:39:17 8.8 C 71 %
275 20-11-2019 21:49:17 8.8 C 71 %
Sensor: Nr:Datum:Temp:Feuchte:
G-T/H 276 20-11-2019 21:59:17 8.8 C 71 %
277 20-11-2019 22:09:17 8.8 C 71 %
278 20-11-2019 22:19:17 8.8 C 71 %
279 20-11-2019 22:29:17 8.7 C 71 %
280 20-11-2019 22:39:17 8.7 C 71 %
281 20-11-2019 22:49:17 8.7 C 71 %
282 20-11-2019 22:59:17 8.7 C 71 %
283 20-11-2019 23:09:17 8.7 C 71 %
284 20-11-2019 23:19:17 8.7 C 71 %
285 20-11-2019 23:29:17 8.7 C 70 %
286 20-11-2019 23:39:17 8.7 C 70 %
287 20-11-2019 23:49:17 8.7 C 70 %
288 20-11-2019 23:59:17 8.7 C 70 %
289 21-11-2019 00:09:17 8.7 C 70 %
290 21-11-2019 00:29:17 8.6 C 70 %
291 21-11-2019 00:30:17 8.6 C 70 %
292 21-11-2019 00:39:17 8.6 C 70 %
293 21-11-2019 00:50:17 8.6 C 70 %
294 21-11-2019 01:00:17 8.6 C 70 %
295 21-11-2019 01:10:17 8.6 C 70 %
296 21-11-2019 01:20:17 8.6 C 70 %
297 21-11-2019 01:30:17 8.6 C 70 %
298 21-11-2019 01:40:17 8.5 C 70 %
299 21-11-2019 01:50:17 8.6 C 70 %
300 21-11-2019 02:00:17 8.5 C 70 %
Sensor: Nr:Datum:Temp:Feuchte:
G-T/H 301 21-11-2019 02:10:17 8.5 C 70 %
302 21-11-2019 02:20:17 8.5 C 70 %
303 21-11-2019 02:30:17 8.5 C 70 %
304 21-11-2019 02:40:17 8.5 C 70 %
305 21-11-2019 02:50:17 8.5 C 70 %
306 21-11-2019 03:00:17 8.5 C 70 %
307 21-11-2019 03:10:17 8.5 C 70 %
308 21-11-2019 03:20:17 8.4 C 70 %
309 21-11-2019 03:30:17 8.4 C 70 %
310 21-11-2019 03:40:17 8.4 C 70 %
311 21-11-2019 03:50:17 8.4 C 70 %
312 21-11-2019 04:00:17 8.4 C 70 %
313 21-11-2019 04:10:17 8.4 C 70 %
314 21-11-2019 04:20:17 8.4 C 70 %
315 21-11-2019 04:30:17 8.4 C 70 %
316 21-11-2019 04:40:17 8.4 C 70 %
317 21-11-2019 04:50:17 8.4 C 70 %
318 21-11-2019 05:00:17 8.4 C 70 %
319 21-11-2019 05:10:17 8.4 C 70 %
320 21-11-2019 05:20:17 8.4 C 70 %
321 21-11-2019 05:30:17 8.4 C 70 %
322 21-11-2019 05:40:17 8.3 C 70 %
323 21-11-2019 05:50:17 8.4 C 70 %
324 21-11-2019 06:00:17 8.3 C 70 %
325 21-11-2019 06:10:17 8.3 C 70 %
Sensor: Nr:Datum:Temp:Feuchte:
G-T/H 326 21-11-2019 06:20:17 8.3 C 70 %
327 21-11-2019 06:30:17 8.3 C 70 %
328 21-11-2019 06:40:17 8.3 C 70 %
329 21-11-2019 06:50:17 8.3 C 70 %
330 21-11-2019 07:00:17 8.3 C 70 %
331 21-11-2019 07:10:17 8.3 C 70 %
332 21-11-2019 07:20:17 8.3 C 70 %
333 21-11-2019 07:30:17 8.3 C 70 %
334 21-11-2019 07:40:17 8.3 C 70 %
335 21-11-2019 07:50:17 8.3 C 70 %
336 21-11-2019 08:00:17 8.3 C 70 %
337 21-11-2019 08:10:17 8.2 C 70 %
338 21-11-2019 08:20:17 8.3 C 70 %
339 21-11-2019 08:30:17 8.2 C 70 %
340 21-11-2019 08:40:17 8.3 C 70 %
341 21-11-2019 08:50:17 8.2 C 70 %
342 21-11-2019 09:00:17 8.2 C 70 %
343 21-11-2019 09:10:17 8.2 C 70 %
344 21-11-2019 09:20:17 8.2 C 70 %
345 21-11-2019 09:30:17 8.2 C 70 %
346 21-11-2019 09:40:17 8.2 C 70 %
347 21-11-2019 09:50:17 8.2 C 70 %
348 21-11-2019 10:00:17 8.2 C 70 %
349 21-11-2019 10:10:17 8.2 C 70 %
350 21-11-2019 10:20:17 8.2 C 70 %
Sensor: Nr:Datum:Temp:Feuchte:
G-T/H 351 21-11-2019 10:30:17 8.3 C 70 %
352 21-11-2019 10:40:17 8.2 C 70 %
353 21-11-2019 10:50:17 8.3 C 70 %
354 21-11-2019 11:00:17 8.2 C 70 %
355 21-11-2019 11:10:17 8.2 C 70 %
356 21-11-2019 11:20:17 8.3 C 70 %
357 21-11-2019 11:30:17 8.2 C 70 %
358 21-11-2019 11:40:17 8.2 C 70 %
359 21-11-2019 11:50:17 8.3 C 70 %
360 21-11-2019 12:00:17 8.3 C 70 %
361 21-11-2019 12:10:17 8.3 C 70 %
362 21-11-2019 12:20:17 8.2 C 70 %
363 21-11-2019 12:30:18 8.3 C 71 %
364 21-11-2019 12:40:18 8.2 C 71 %
365 21-11-2019 12:50:18 8.3 C 71 %
366 21-11-2019 13:00:17 8.3 C 71 %
367 21-11-2019 13:10:17 8.3 C 71 %
368 21-11-2019 13:20:17 8.3 C 71 %
369 21-11-2019 13:30:17 8.3 C 71 %
370 21-11-2019 13:40:17 8.3 C 71 %
371 21-11-2019 13:50:17 8.3 C 71 %
372 21-11-2019 14:00:17 8.3 C 71 %
373 21-11-2019 14:10:17 8.3 C 71 %
374 21-11-2019 14:20:17 8.4 C 71 %
375 21-11-2019 14:30:17 8.4 C 71 %
Sensor: Nr:Datum:Temp:Feuchte:
G-T/H 376 21-11-2019 14:40:17 8.3 C 71 %
377 21-11-2019 14:50:17 8.4 C 71 %
378 21-11-2019 15:00:17 8.4 C 71 %
379 21-11-2019 15:10:17 8.4 C 71 %
380 21-11-2019 15:20:17 8.4 C 71 %
381 21-11-2019 15:30:17 8.4 C 71 %
382 21-11-2019 15:40:17 8.4 C 71 %
383 21-11-2019 15:50:17 8.4 C 71 %
384 21-11-2019 16:00:17 8.4 C 72 %
385 21-11-2019 16:10:17 8.4 C 72 %
386 21-11-2019 16:20:17 8.4 C 72 %
387 21-11-2019 16:30:17 8.4 C 72 %
388 21-11-2019 16:40:17 8.4 C 72 %
389 21-11-2019 16:50:17 8.4 C 72 %
390 21-11-2019 17:00:17 8.5 C 72 %
391 21-11-2019 17:10:17 8.5 C 72 %
392 21-11-2019 17:20:17 8.5 C 72 %
393 21-11-2019 17:30:17 8.5 C 72 %
394 21-11-2019 17:40:17 8.5 C 72 %
395 21-11-2019 17:50:17 8.5 C 72 %
396 21-11-2019 18:00:17 8.5 C 72 %
397 21-11-2019 18:10:17 8.5 C 72 %
398 21-11-2019 18:20:17 8.5 C 72 %
399 21-11-2019 18:30:17 8.5 C 72 %
400 21-11-2019 18:40:17 8.5 C 72 %
Sensor: Nr:Datum:Temp:Feuchte:
G-T/H 401 21-11-2019 18:50:17 8.5 C 72 %
402 21-11-2019 19:00:17 8.5 C 72 %
403 21-11-2019 19:10:17 8.5 C 72 %
404 21-11-2019 19:20:17 8.5 C 72 %
405 21-11-2019 19:30:17 8.5 C 72 %
406 21-11-2019 19:40:17 8.5 C 72 %
407 21-11-2019 19:50:17 8.6 C 72 %
408 21-11-2019 20:00:17 8.5 C 72 %
409 21-11-2019 20:10:17 8.5 C 72 %
410 21-11-2019 20:20:17 8.5 C 72 %
411 21-11-2019 20:30:17 8.5 C 72 %
412 21-11-2019 20:40:17 8.6 C 72 %
413 21-11-2019 20:50:17 8.5 C 72 %
414 21-11-2019 21:00:17 8.5 C 72 %
415 21-11-2019 21:10:17 8.5 C 72 %
416 21-11-2019 21:20:17 8.5 C 72 %
417 21-11-2019 21:30:17 8.5 C 72 %
418 21-11-2019 21:40:17 8.5 C 72 %
419 21-11-2019 21:50:17 8.5 C 72 %
420 21-11-2019 22:00:17 8.5 C 72 %
421 21-11-2019 22:10:17 8.5 C 72 %
422 21-11-2019 22:20:17 8.6 C 72 %
423 21-11-2019 22:30:17 8.5 C 72 %
424 21-11-2019 22:40:17 8.6 C 72 %
425 21-11-2019 22:50:17 8.5 C 72 %
Sensor: Nr:Datum:Temp:Feuchte:
G-T/H 426 21-11-2019 23:00:17 8.6 C 72 %
427 21-11-2019 23:10:17 8.6 C 72 %
428 21-11-2019 23:20:17 8.5 C 72 %
429 21-11-2019 23:30:17 8.6 C 72 %
430 21-11-2019 23:40:17 8.5 C 72 %
431 21-11-2019 23:50:17 8.5 C 72 %
432 22-11-2019 00:00:17 8.5 C 72 %
433 22-11-2019 00:10:17 8.5 C 72 %
434 22-11-2019 00:20:17 8.6 C 72 %
435 22-11-2019 00:30:17 8.5 C 72 %
436 22-11-2019 00:40:17 8.5 C 72 %
437 22-11-2019 00:50:17 8.6 C 72 %
438 22-11-2019 01:00:17 8.5 C 72 %
439 22-11-2019 01:10:17 8.5 C 72 %
440 22-11-2019 01:20:17 8.6 C 72 %
441 22-11-2019 01:30:17 8.6 C 72 %
442 22-11-2019 01:40:17 8.5 C 72 %
443 22-11-2019 01:50:17 8.5 C 72 %
444 22-11-2019 02:00:17 8.5 C 72 %
445 22-11-2019 02:10:17 8.5 C 72 %
446 22-11-2019 02:20:17 8.5 C 72 %
447 22-11-2019 02:30:17 8.5 C 72 %
448 22-11-2019 02:40:17 8.6 C 72 %
449 22-11-2019 02:50:17 8.5 C 72 %
450 22-11-2019 03:00:17 8.5 C 72 %
Sensor: Nr:Datum:Temp:Feuchte:
G-T/H 451 22-11-2019 03:10:17 8.5 C 72 %
452 22-11-2019 03:20:17 8.5 C 72 %
453 22-11-2019 03:30:17 8.5 C 72 %
454 22-11-2019 03:40:17 8.5 C 72 %
455 22-11-2019 03:50:17 8.5 C 72 %
456 22-11-2019 04:00:17 8.5 C 72 %
457 22-11-2019 04:10:17 8.5 C 72 %
458 22-11-2019 04:20:17 8.5 C 72 %
459 22-11-2019 04:30:17 8.5 C 72 %
460 22-11-2019 04:40:17 8.5 C 72 %
461 22-11-2019 04:50:17 8.5 C 72 %
462 22-11-2019 05:00:18 8.5 C 72 %
463 22-11-2019 05:10:18 8.5 C 72 %
464 22-11-2019 05:20:17 8.5 C 72 %
465 22-11-2019 05:30:17 8.5 C 72 %
466 22-11-2019 05:40:17 8.5 C 72 %
467 22-11-2019 05:50:17 8.5 C 72 %
468 22-11-2019 06:00:18 8.5 C 72 %
469 22-11-2019 06:10:18 8.5 C 72 %
470 22-11-2019 06:20:18 8.5 C 72 %
471 22-11-2019 06:30:18 8.5 C 72 %
472 22-11-2019 06:40:18 8.5 C 72 %
473 22-11-2019 06:50:18 8.5 C 72 %
474 22-11-2019 07:00:17 8.5 C 72 %
475 22-11-2019 07:10:17 8.5 C 72 %
Sensor: Nr:Datum:Temp:Feuchte:
G-T/H 476 22-11-2019 07:20:17 8.5 C 72 %
477 22-11-2019 07:30:17 8.5 C 72 %
478 22-11-2019 07:40:17 8.5 C 72 %
479 22-11-2019 07:50:17 8.5 C 72 %
480 22-11-2019 08:00:17 8.5 C 72 %
481 22-11-2019 08:10:17 8.5 C 72 %
482 22-11-2019 08:20:17 8.5 C 72 %
483 22-11-2019 08:30:17 8.5 C 72 %
484 22-11-2019 08:40:17 8.5 C 72 %
485 22-11-2019 08:50:17 8.6 C 72 %
486 22-11-2019 09:00:17 8.5 C 72 %
487 22-11-2019 09:10:17 8.5 C 72 %
488 22-11-2019 09:20:17 8.5 C 72 %
489 22-11-2019 09:30:17 8.5 C 72 %
490 22-11-2019 09:40:17 8.5 C 72 %
491 22-11-2019 09:50:17 8.5 C 72 %
492 22-11-2019 10:00:17 8.6 C 72 %
493 22-11-2019 10:10:17 8.6 C 72 %
494 22-11-2019 10:20:17 8.5 C 72 %
495 22-11-2019 10:30:17 8.6 C 73 %
496 22-11-2019 10:40:17 8.6 C 73 %
497 22-11-2019 10:50:17 8.6 C 73 %
498 22-11-2019 11:00:17 8.6 C 73 %
499 22-11-2019 11:10:17 8.6 C 73 %
500 22-11-2019 11:20:17 8.6 C 73 %
Sensor: Nr:Datum:Temp:Feuchte:
G-T/H 501 22-11-2019 11:30:17 8.6 C 73 %
502 22-11-2019 11:40:17 8.6 C 73 %
503 22-11-2019 11:50:17 8.6 C 73 %
504 22-11-2019 12:00:17 8.7 C 73 %
505 22-11-2019 12:10:17 8.7 C 73 %
506 22-11-2019 12:20:17 8.7 C 73 %
507 22-11-2019 12:30:17 8.7 C 73